[[{"header":{"parameterUnit":"m.s-1","parameterCategory":1,"la1":30.6,"la2":28.766,"lo1":-90.7593,"lo2":-88.6598,"dx":0.0162,"dy":0.0183,"nx":116,"ny":114,"refTime":"2022-11-09T18:00:00:Z","depth":0,"parameterNumber":2,"parameterNumberName":"U-component_of_WINDS"},"data":[0.0,0.0,0.0,0.0,0.0,0.0,0.0,0.0,0.0,0.0,0.0,0.0,0.0,0.0,0.0,0.0,0.0,0.0,0.0,0.0,0.0,0.0,0.0,0.0,0.0,0.0,0.0,0.0,0.0,0.0,0.0,0.0,0.0,0.0,0.0,0.0,0.0,0.0,0.0,0.0,0.0,0.0,0.0,0.0,0.0,0.0,0.0,0.0,0.0,0.0,0.0,0.0,0.0,0.0,0.0,0.0,0.0,0.0,0.0,0.0,0.0,0.0,0.0,0.0,0.0,0.0,0.0,0.0,0.0,0.0,0.0,0.0,0.0,0.0,0.0,0.0,0.0,0.0,0.0,0.0,0.0,0.0,0.0,0.0,0.0,0.0,0.0,0.0,0.0,0.0,0.0,0.0,0.0,0.0,0.0,0.0,0.0,0.0,0.0,0.0,0.0,0.0,0.0,0.0,0.0,0.0,0.0,0.0,0.0,0.0,0.0,0.0,0.0,0.0,0.0,0.0,0.0,0.0,0.0,0.0,0.0,0.0,0.0,0.0,0.0,0.0,0.0,0.0,0.0,0.0,0.0,0.0,0.0,0.0,0.0,0.0,0.0,0.0,0.0,0.0,0.0,0.0,0.0,0.0,0.0,0.0,0.0,0.0,0.0,0.0,0.0,0.0,0.0,0.0,0.0,0.0,0.0,0.0,0.0,0.0,0.0,0.0,0.0,0.0,0.0,0.0,0.0,0.0,0.0,0.0,0.0,0.0,0.0,0.0,0.0,0.0,0.0,0.0,0.0,0.0,0.0,0.0,0.0,0.0,0.0,0.0,0.0,0.0,0.0,0.0,0.0,0.0,0.0,0.0,0.0,0.0,0.0,0.0,0.0,0.0,0.0,0.0,0.0,0.0,0.0,0.0,0.0,0.0,0.0,0.0,0.0,0.0,0.0,0.0,0.0,0.0,0.0,0.0,0.0,0.0,0.0,0.0,0.0,0.0,0.0,0.0,0.0,0.0,0.0,0.0,0.0,0.0,0.0,0.0,0.0,0.0,0.0,0.0,0.0,0.0,0.0,0.0,0.0,0.0,0.0,0.0,0.0,0.0,0.0,0.0,0.0,0.0,0.0,0.0,0.0,0.0,0.0,0.0,0.0,0.0,0.0,0.0,0.0,0.0,0.0,0.0,0.0,0.0,0.0,0.0,0.0,0.0,0.0,0.0,0.0,0.0,0.0,0.0,0.0,0.0,0.0,0.0,0.0,0.0,0.0,0.0,0.0,0.0,0.0,0.0,0.0,0.0,0.0,0.0,0.0,0.0,0.0,0.0,0.0,0.0,0.0,0.0,0.0,0.0,0.0,0.0,0.0,0.0,0.0,0.0,0.0,0.0,0.0,0.0,0.0,0.0,0.0,0.0,0.0,0.0,0.0,0.0,0.0,0.0,0.0,0.0,0.0,0.0,0.0,0.0,0.0,0.0,0.0,0.0,0.0,0.0,0.0,0.0,0.0,0.0,0.0,0.0,0.0,0.0,0.0,0.0,0.0,0.0,0.0,0.0,0.0,0.0,0.0,0.0,0.0,0.0,0.0,0.0,0.0,0.0,0.0,0.0,0.0,0.0,0.0,0.0,0.0,0.0,0.0,0.0,0.0,0.0,0.0,0.0,0.0,0.0,0.0,0.0,0.0,0.0,0.0,0.0,0.0,0.0,0.0,0.0,0.0,0.0,0.0,0.0,0.0,0.0,0.0,0.0,0.0,0.0,0.0,0.0,0.0,0.0,0.0,0.0,0.0,0.0,0.0,0.0,0.0,0.0,0.0,0.0,0.0,0.0,0.0,0.0,0.0,0.0,0.0,0.0,0.0,0.0,0.0,0.0,0.0,0.0,0.0,0.0,0.0,0.0,0.0,0.0,0.0,0.0,0.0,0.0,0.0,0.0,0.0,0.0,0.0,0.0,0.0,0.0,0.0,0.0,0.0,0.0,0.0,0.0,0.0,0.0,0.0,0.0,0.0,0.0,0.0,0.0,0.0,0.0,0.0,0.0,0.0,0.0,0.0,0.0,0.0,0.0,0.0,0.0,0.0,0.0,0.0,0.0,0.0,0.0,0.0,0.0,0.0,0.0,0.0,0.0,0.0,0.0,0.0,0.0,0.0,0.0,0.0,0.0,0.0,0.0,0.0,0.0,0.0,0.0,0.0,0.0,0.0,0.0,0.0,0.0,0.0,0.0,0.0,0.0,0.0,0.0,0.0,0.0,0.0,0.0,0.0,0.0,0.0,0.0,0.0,0.0,0.0,0.0,0.0,0.0,0.0,0.0,0.0,0.0,0.0,0.0,0.0,0.0,0.0,0.0,0.0,0.0,0.0,0.0,0.0,0.0,0.0,0.0,0.0,0.0,0.0,0.0,0.0,0.0,0.0,0.0,0.0,0.0,0.0,0.0,0.0,0.0,0.0,0.0,0.0,0.0,0.0,0.0,0.0,0.0,0.0,0.0,0.0,0.0,0.0,0.0,0.0,0.0,0.0,0.0,0.0,0.0,0.0,0.0,0.0,0.0,0.0,0.0,0.0,0.0,0.0,0.0,0.0,0.0,0.0,0.0,0.0,0.0,0.0,0.0,0.0,0.0,0.0,0.0,0.0,0.0,0.0,0.0,0.0,0.0,0.0,0.0,0.0,0.0,0.0,0.0,0.0,0.0,0.0,0.0,0.0,0.0,0.0,0.0,0.0,0.0,0.0,0.0,0.0,0.0,0.0,0.0,0.0,0.0,0.0,0.0,0.0,0.0,0.0,0.0,0.0,0.0,0.0,0.0,0.0,0.0,0.0,0.0,0.0,0.0,0.0,0.0,0.0,0.0,0.0,0.0,0.0,0.0,0.0,0.0,0.0,0.0,0.0,0.0,0.0,0.0,0.0,0.0,0.0,0.0,0.0,0.0,0.0,0.0,0.0,0.0,0.0,0.0,0.0,0.0,0.0,0.0,0.0,0.0,0.0,0.0,0.0,0.0,0.0,0.0,0.0,0.0,0.0,0.0,0.0,0.0,0.0,0.0,0.0,0.0,0.0,0.0,0.0,0.0,0.0,0.0,0.0,0.0,0.0,0.0,0.0,0.0,0.0,0.0,0.0,0.0,0.0,0.0,0.0,0.0,0.0,0.0,0.0,0.0,0.0,0.0,0.0,0.0,0.0,0.0,0.0,0.0,0.0,0.0,0.0,0.0,0.0,0.0,0.0,0.0,0.0,0.0,0.0,0.0,0.0,0.0,0.0,0.0,0.0,0.0,0.0,0.0,0.0,0.0,0.0,0.0,0.0,0.0,0.0,0.0,0.0,0.0,0.0,0.0,0.0,0.0,0.0,0.0,0.0,0.0,0.0,0.0,0.0,0.0,0.0,0.0,0.0,0.0,0.0,0.0,0.0,0.0,0.0,0.0,0.0,0.0,0.0,0.0,0.0,0.0,0.0,0.0,0.0,0.0,0.0,0.0,0.0,0.0,0.0,0.0,0.0,0.0,0.0,0.0,0.0,0.0,0.0,0.0,0.0,0.0,0.0,0.0,0.0,0.0,0.0,0.0,0.0,0.0,0.0,0.0,0.0,0.0,0.0,0.0,0.0,0.0,0.0,0.0,0.0,0.0,0.0,0.0,0.0,0.0,0.0,0.0,0.0,0.0,0.0,0.0,0.0,0.0,0.0,0.0,0.0,0.0,0.0,0.0,0.0,0.0,0.0,0.0,0.0,0.0,0.0,0.0,0.0,0.0,0.0,0.0,0.0,0.0,0.0,0.0,0.0,0.0,0.0,0.0,0.0,0.0,0.0,0.0,0.0,0.0,0.0,0.0,0.0,0.0,0.0,0.0,0.0,0.0,0.0,0.0,0.0,0.0,0.0,0.0,0.0,0.0,0.0,0.0,0.0,0.0,0.0,0.0,0.0,0.0,0.0,0.0,0.0,0.0,0.0,0.0,0.0,0.0,0.0,0.0,0.0,0.0,0.0,0.0,0.0,0.0,0.0,0.0,0.0,0.0,0.0,0.0,0.0,0.0,0.0,0.0,0.0,0.0,0.0,0.0,0.0,0.0,0.0,0.0,0.0,0.0,0.0,0.0,0.0,0.0,0.0,0.0,0.0,0.0,0.0,0.0,0.0,0.0,0.0,0.0,0.0,0.0,0.0,0.0,0.0,0.0,0.0,0.0,0.0,0.0,0.0,0.0,0.0,0.0,0.0,0.0,0.0,0.0,0.0,0.0,0.0,0.0,0.0,0.0,0.0,0.0,0.0,0.0,0.0,0.0,0.0,0.0,0.0,0.0,0.0,0.0,0.0,0.0,0.0,0.0,0.0,0.0,0.0,0.0,0.0,0.0,0.0,0.0,0.0,0.0,0.0,0.0,0.0,0.0,0.0,0.0,0.0,0.0,0.0,0.0,0.0,0.0,0.0,0.0,0.0,0.0,0.0,0.0,0.0,0.0,0.0,0.0,0.0,0.0,0.0,0.0,0.0,0.0,0.0,0.0,0.0,0.0,0.0,0.0,0.0,0.0,0.0,0.0,0.0,0.0,0.0,0.0,0.0,0.0,0.0,0.0,0.0,0.0,0.0,0.0,0.0,0.0,0.0,0.0,0.0,0.0,0.0,0.0,0.0,0.0,0.0,0.0,0.0,0.0,0.0,0.0,0.0,0.0,0.0,0.0,0.0,0.0,0.0,0.0,0.0,0.0,0.0,0.0,0.0,0.0,0.0,0.0,0.0,0.0,0.0,0.0,0.0,0.0,0.0,0.0,0.0,0.0,0.0,0.0,0.0,0.0,0.0,0.0,0.0,0.0,0.0,0.0,0.0,0.0,0.0,0.0,0.0,0.0,0.0,0.0,0.0,0.0,0.0,0.0,0.0,0.0,0.0,0.0,0.0,0.0,0.0,0.0,0.0,0.0,0.0,0.0,0.0,0.0,0.0,0.0,0.0,0.0,0.0,0.0,0.0,0.0,0.0,0.0,0.0,0.0,0.0,0.0,0.0,0.0,0.0,0.0,0.0,0.0,0.0,0.0,0.0,0.0,0.0,0.0,0.0,0.0,0.0,0.0,0.0,0.0,0.0,0.0,0.0,0.0,0.0,0.0,0.0,0.0,0.0,0.0,0.0,0.0,0.0,0.0,0.0,0.0,0.0,0.0,0.0,0.0,0.0,0.0,0.0,0.0,0.0,0.0,0.0,0.0,0.0,0.0,0.0,0.0,0.0,0.0,0.0,0.0,0.0,0.0,0.0,0.0,0.0,0.0,0.0,0.0,0.0,0.0,0.0,0.0,0.0,0.0,0.0,0.0,0.0,0.0,0.0,0.0,0.0,0.0,0.0,0.0,0.0,0.0,0.0,0.0,0.0,0.0,0.0,0.0,0.0,0.0,0.0,0.0,0.0,0.0,0.0,0.0,0.0,0.0,0.0,0.0,0.0,0.0,0.0,0.0,0.0,0.0,0.0,0.0,0.0,0.0,0.0,0.0,0.0,0.0,0.0,0.0,0.0,0.0,0.0,0.0,0.0,0.0,0.0,0.0,0.0,0.0,0.0,0.0,0.0,0.0,0.0,0.0,0.0,0.0,0.0,0.0,0.0,0.0,0.0,0.0,0.0,0.0,0.0,0.0,0.0,0.0,0.0,0.0,0.0,0.0,0.0,0.0,0.0,0.0,0.0,0.0,0.0,0.0,0.0,0.0,0.0,0.0,0.0,0.0,0.0,0.0,0.0,0.0,0.0,0.0,0.0,0.0,0.0,0.0,0.0,0.0,0.0,0.0,0.0,0.0,0.0,0.0,0.0,0.0,0.0,0.0,0.0,0.0,0.0,0.0,0.0,0.0,0.0,0.0,0.0,0.0,0.0,0.0,0.0,0.0,0.0,0.0,0.0,0.0,0.0,0.0,0.0,0.0,0.0,0.0,0.0,0.0,0.0,0.0,0.0,0.0,0.0,0.0,0.0,0.0,0.0,0.0,0.0,0.0,0.0,0.0,0.0,0.0,0.0,0.0,0.0,0.0,0.0,0.0,0.0,0.0,0.0,0.0,0.0,0.0,0.0,0.0,0.0,0.0,0.0,0.0,0.0,0.0,0.0,0.0,0.0,0.0,2.8063,2.8125,0.0,0.0,0.0,0.0,0.0,0.0,0.0,0.0,0.0,0.0,0.0,0.0,0.0,0.0,0.0,0.0,0.0,0.0,0.0,0.0,0.0,0.0,0.0,0.4858,0.489,0.4961,0.4964,0.5018,0.5116,0.0,0.0,0.0,0.0,0.0,0.3096,0.3034,0.3022,0.3092,0.4476,0.5597,0.6464,0.7017,0.7396,0.7628,0.0,0.0,0.0,0.0,0.0,0.0,0.0,0.0,0.0,0.0,0.0,0.0,0.0,0.0,0.0,0.0,0.0,0.0,0.0,0.0,0.0,0.0,0.0,0.0,0.0,0.0,0.0,0.0,0.0,0.0,0.0,0.0,0.0,0.0,0.0,0.0,0.0,0.0,0.0,0.0,0.0,0.0,0.0,0.0,0.0,0.0,0.0,0.0,0.0,0.0,0.0,0.0,0.0,0.0,0.0,0.0,0.0,0.0,0.0,0.0,0.0,0.0,0.0,0.0,0.0,0.0,0.0,0.0,0.0,0.0,2.9279,2.957,0.0,0.0,0.0,0.0,0.0,0.0,0.0,0.0,0.0,0.0,0.0,0.0,0.0,0.0,0.0,0.0,0.0,0.0,0.0,0.0,0.0,0.245,0.2485,0.2709,0.2946,0.319,0.3206,0.3374,0.3788,0.3219,0.0,0.0,0.2728,0.2551,0.2551,0.2563,0.2707,0.2992,0.4801,0.6428,0.7841,0.8214,0.8691,0.9175,0.799,0.0,0.0,0.0,0.0,0.0,0.0,0.0,0.0,0.0,0.0,0.0,0.0,0.0,0.0,0.0,0.0,0.0,0.0,0.0,0.0,0.0,0.0,0.0,0.0,0.0,0.0,0.0,0.0,0.0,0.0,0.0,0.0,0.0,0.0,0.0,0.0,0.0,0.0,0.0,0.0,0.0,0.0,0.0,0.0,0.0,0.0,0.0,0.0,0.0,0.0,0.0,0.0,0.0,0.0,0.0,0.0,0.0,0.0,0.0,0.0,0.0,0.0,0.0,2.5111,2.6002,2.5939,2.6325,2.7571,2.9491,2.9848,3.0658,3.163,3.02,0.0,0.0,0.0,0.0,0.0,0.0,0.0,0.0,0.0,0.0,0.0,0.0,0.0,0.0,0.0,0.0,0.0,0.0,0.0,-0.0123,0.0044,0.1102,0.2309,0.3602,0.3597,0.4089,0.5398,0.329,0.197,0.1999,0.0986,0.0399,0.0399,0.0406,0.1121,0.2578,0.547,0.7506,0.8737,0.8798,0.9408,1.0443,0.9987,0.9864,1.0063,0.0,0.0,0.0,0.0,0.0,0.0,0.0,0.0,0.0,0.0,0.0,0.0,0.0,0.0,0.0,0.0,0.0,0.0,0.0,0.0,0.0,0.0,0.0,0.0,0.0,0.0,0.0,0.0,0.0,0.0,0.0,0.0,0.0,0.0,0.0,0.0,0.0,0.0,0.0,0.0,0.0,1.4473,1.4879,0.0,0.0,0.0,0.0,0.0,0.0,0.0,0.0,0.0,0.0,0.0,0.0,0.0,2.1462,2.175,2.2539,2.2802,2.2511,2.3618,2.401,2.3797,2.5598,2.6781,2.7439,2.8651,0.0,3.2455,3.0371,0.0,0.0,0.0,0.0,0.0,0.0,0.0,0.0,0.0,0.0,0.0,0.0,0.0,0.0,0.0,0.0,0.0,0.0,0.0,0.0,0.0,-0.0732,0.0148,0.153,0.2365,0.3076,0.3738,0.267,0.2014,0.2014,0.0714,0.0,0.0,0.0912,0.2613,0.509,0.6539,0.7933,0.9191,0.9251,0.9524,1.0013,1.0639,1.1011,1.111,1.1082,0.0,0.0,0.0,0.0,0.0,0.0,0.0,0.0,0.0,0.0,0.0,0.0,0.0,0.0,0.0,0.0,0.0,0.0,0.0,0.0,0.0,0.0,0.0,0.0,0.0,0.0,0.0,0.0,0.0,0.0,0.0,0.0,0.0,0.0,0.0,0.0,0.0,0.0,0.0,1.2427,1.407,1.623,1.5872,1.6212,0.0,0.0,0.0,0.0,0.0,0.0,0.0,0.0,0.0,2.2117,2.2392,2.2686,2.3027,2.3407,2.3554,2.3434,2.3995,2.4182,2.4062,2.4963,2.5934,2.6861,2.6458,2.8589,3.2116,2.9815,2.9948,3.1561,0.0,0.0,0.0,0.0,3.166,3.1738,0.0,0.0,0.0,0.0,0.0,0.0,0.0,0.0,0.0,0.0,0.0,0.0,-0.2422,-0.2095,-0.1403,-0.0054,0.1405,0.2423,0.2775,0.2824,0.2641,0.2222,0.1532,0.0971,0.0563,0.2602,0.4819,0.718,0.7746,0.8522,0.9496,0.9612,0.9605,0.9555,1.0588,1.1383,1.1858,1.151,1.1245,1.0986,0.0,0.0,0.0,0.0,0.0,0.0,0.0,0.0,0.0,0.0,0.0,0.0,0.0,0.0,0.0,0.0,0.0,0.0,0.0,0.0,0.0,0.0,0.0,0.0,0.0,0.0,0.0,0.0,0.0,0.0,0.0,0.0,0.0,0.0,0.0,0.0,0.0,1.2932,1.4499,1.7206,1.6643,1.6981,0.0,0.0,0.0,0.0,0.0,0.0,2.2465,2.2712,2.2979,2.3228,2.35,2.3732,2.3995,2.4209,2.4275,2.4209,2.4466,2.4559,2.4492,2.4572,2.5185,2.6186,2.54,2.7231,3.0669,2.9208,2.9982,3.2052,3.1446,3.2055,3.3281,3.3281,3.3281,3.3418,0.0,0.0,0.0,0.0,0.0,0.0,0.0,0.0,0.0,0.0,0.0,-0.3626,-0.3696,-0.258,-0.1267,0.0085,0.1603,0.3038,0.4293,0.4518,0.3874,0.2282,0.3522,0.3601,0.2121,0.5226,0.7041,0.7398,0.8914,0.9711,0.9771,0.9778,0.9778,0.9795,0.9855,1.0502,1.1574,1.2366,1.2014,1.0818,0.9895,0.0,0.0,0.0,0.0,0.0,0.0,0.0,0.0,0.0,0.0,0.0,0.0,0.0,0.0,0.0,0.0,0.0,0.0,0.0,0.0,0.0,0.0,0.0,0.0,0.0,0.0,0.0,0.0,0.0,0.0,0.0,0.0,0.0,0.0,0.0,0.0,0.0,0.0,1.6053,1.8283,0.0,0.0,0.0,0.0,2.0871,2.2637,2.3696,2.371,2.3955,2.4115,2.4128,2.4386,2.4546,2.4559,2.4572,2.4439,2.4209,2.4466,2.4452,2.4235,2.4479,2.4623,2.483,2.6583,2.7475,2.7797,2.8739,3.1288,3.4537,3.4478,3.4524,3.4609,3.4609,3.4609,3.4609,0.0,0.0,0.0,-0.3628,-0.3549,-0.351,-0.3585,-0.3548,-0.3525,-0.36,-0.3673,-0.3414,-0.2609,-0.1236,0.0172,0.1569,0.3928,0.5529,0.602,0.5114,0.4306,0.3707,0.3266,0.3814,0.552,0.6862,0.8111,0.9256,0.9837,1.0066,0.994,0.994,0.9886,0.9792,0.9792,1.0033,1.048,1.1841,1.1822,1.0894,1.0818,1.0132,0.0,0.0,0.0,0.0,0.0,0.0,0.0,0.0,0.0,0.0,0.0,0.0,0.0,0.0,0.0,0.0,0.0,0.0,0.0,0.0,0.0,0.0,0.0,0.0,0.0,0.0,0.0,0.0,0.0,0.0,0.0,0.0,0.0,0.0,0.0,0.0,0.0,1.8867,1.9086,0.0,2.2119,2.1807,2.1909,2.2929,2.4037,2.4529,2.4342,2.4609,2.4676,2.4452,2.477,2.4823,2.4599,2.4599,2.4546,2.4452,2.4783,2.4863,2.4783,2.5064,2.5197,2.5273,2.7331,2.8894,3.0166,3.1885,3.3049,3.3712,3.3712,3.4463,3.5547,3.5547,3.5547,3.5586,0.0,0.0,0.0,-0.2406,-0.2385,-0.2385,-0.2393,-0.2375,-0.2392,-0.2388,-0.1976,-0.1341,-0.0459,0.1002,0.2326,0.3302,0.5643,0.7034,0.697,0.5963,0.5342,0.5254,0.4346,0.5255,0.8219,0.8453,0.9111,1.0315,1.0315,1.0229,1.0096,1.0096,1.0042,0.9978,0.9978,0.9978,1.004,1.1103,1.1175,1.0545,1.0708,1.0386,0.969,0.0,0.0,0.0,0.0,0.0,0.0,0.0,0.0,0.0,0.0,0.0,0.0,0.0,0.0,0.0,0.0,0.0,0.0,0.0,0.0,0.0,0.0,0.0,0.0,0.0,0.0,0.0,0.0,0.0,0.0,0.0,0.0,0.0,0.0,1.7613,1.9676,2.0746,2.088,2.1774,2.3858,2.3523,2.363,2.4722,2.5195,2.5291,2.509,2.5264,2.5237,2.4906,2.513,2.513,2.4893,2.4893,2.4893,2.4893,2.513,2.5224,2.5237,2.5424,2.5518,2.5619,2.7665,2.9604,3.1509,3.2943,3.4019,3.4752,3.4622,3.5335,3.6445,3.6445,3.6445,3.6484,0.0,0.0,0.0,0.0,0.0,0.0,0.0,0.0,0.0,0.0,0.1463,0.2511,0.2493,0.3987,0.5043,0.5178,0.6592,0.7377,0.7115,0.7097,0.7002,0.673,0.6997,0.8056,0.9966,1.0017,1.0123,1.0342,1.0342,1.0304,1.0335,1.0335,1.0329,1.0297,1.0297,1.0297,1.0297,1.0297,1.012,0.9785,0.9523,0.9437,0.9354,0.0,0.0,0.0,0.0,0.0,0.0,0.0,0.0,0.0,0.0,0.0,0.0,0.0,0.0,0.0,0.0,0.0,0.0,0.0,0.0,0.0,0.0,0.0,0.0,0.0,0.0,0.0,0.0,0.0,0.0,0.0,0.0,0.0,1.8086,2.0397,2.1931,2.1402,2.3803,2.5304,2.4706,2.5173,2.5651,2.5971,2.5998,2.5998,2.5984,2.5984,2.585,2.5518,2.5518,2.5531,2.5531,2.5531,2.5545,2.5545,2.5545,2.5558,2.5558,2.5558,2.5571,2.5673,2.7609,2.9555,3.1371,3.16,3.4054,3.7714,3.7358,3.7273,3.7344,3.7344,3.7344,3.7363,0.0,0.0,0.0,0.0,0.0,0.0,0.0,0.0,0.0,0.0,0.1535,0.2641,0.2655,0.5262,0.7022,0.7046,0.8432,0.8732,0.7394,0.7322,0.7342,0.7357,0.7838,0.8878,1.0469,1.0744,1.0914,1.0955,1.0955,1.0867,1.0732,1.0732,1.0671,1.0602,1.0602,1.0602,1.0602,1.0602,1.0487,1.029,1.0107,0.9964,0.9812,0.0,0.0,0.0,0.0,0.0,0.0,0.0,0.0,0.0,0.0,0.0,0.0,0.0,0.0,0.0,0.0,0.0,0.0,0.0,0.0,0.0,0.0,0.0,0.0,0.0,0.0,0.0,0.0,0.0,0.0,0.0,1.9702,2.13,2.0932,2.3005,2.4581,2.4684,2.5356,2.5852,2.5905,2.6052,2.6092,2.6011,2.5998,2.5904,2.5651,2.5638,2.5598,2.5518,2.5718,2.5877,2.5877,2.6039,2.6146,2.6146,2.636,2.6427,2.6466,2.668,2.6827,2.6907,2.8925,3.0079,3.073,3.2268,3.3597,3.4738,3.5535,3.6822,3.8223,3.8223,3.8418,3.8672,0.0794,0.0909,0.091,0.092,0.0925,0.0718,0.0106,0.0,0.0273,0.1022,0.2624,0.3986,0.4745,0.7241,0.8881,0.8934,0.9595,0.9596,0.8689,0.8538,0.8332,0.7986,0.8917,0.9898,1.09,1.1111,1.12,1.12,1.12,1.1152,1.1036,1.1036,1.0989,1.0907,1.0907,1.0907,1.0907,1.0907,1.0853,1.0798,1.0716,1.0446,1.0096,0.9947,0.9778,0.9632,0.9366,0.9617,0.997,0.93,0.0,0.0,0.0,0.0,0.0,0.0,0.0,0.0,0.0,0.0,0.0,0.0,0.0,0.0,0.0,0.0,0.0,0.0,0.0,0.0,0.0,0.0,0.0,0.0,2.1709,2.3005,2.3755,2.5035,2.5945,2.6158,2.6172,2.6238,2.6373,2.6386,2.6373,2.6319,2.6319,2.6293,2.6253,2.6253,2.6253,2.6253,2.6453,2.6546,2.6546,2.6707,2.68,2.68,2.6921,2.7001,2.7014,2.7308,2.7483,2.7537,2.8851,2.9917,3.0798,3.2218,3.3291,3.4173,0.0,0.0,0.0,0.0,3.9551,3.9785,0.2203,0.2459,0.245,0.2459,0.2457,0.2016,0.071,0.0521,0.1125,0.2745,0.437,0.6014,0.7652,0.9346,1.0378,1.0507,1.0258,1.0184,1.0403,1.0072,0.9607,0.8873,1.0141,1.0995,1.1295,1.1302,1.1302,1.1302,1.1302,1.1302,1.1302,1.1302,1.1302,1.1302,1.1302,1.1302,1.1302,1.1302,1.1288,1.1274,1.1274,1.0927,1.0365,1.0197,1.013,1.0065,0.9947,1.0722,1.1619,1.0162,0.0,0.0,0.0,0.0,0.0,0.0,0.0,0.0,0.0,0.0,0.0,0.0,0.0,0.0,0.0,0.0,0.0,0.0,0.0,0.0,0.0,0.0,0.0,0.0,2.3238,2.4249,2.6242,2.6493,2.648,2.644,2.644,2.6453,2.648,2.6493,2.66,2.6854,2.6867,2.6987,2.7296,2.7336,0.0,0.0,0.0,2.7456,2.7456,2.7496,2.751,2.751,2.751,2.751,2.7523,2.7736,2.7856,2.7869,2.8165,2.9313,3.1001,3.149,3.2978,3.5122,3.639,3.7033,3.7552,3.9875,4.0704,4.0762,0.4001,0.4048,0.4067,0.4053,0.406,0.3972,0.3684,0.3709,0.3968,0.4422,0.6102,0.7467,0.7903,0.9568,1.0643,1.067,1.0704,1.0806,1.1016,0.9967,0.9851,1.0934,1.1529,1.1866,1.1921,1.1928,1.1928,1.1928,1.1928,1.1928,1.1928,1.1928,1.1928,1.1928,1.1928,1.1928,1.1928,1.1928,1.1816,1.1665,1.1665,1.1416,1.1023,1.0995,1.0873,1.0718,1.0569,1.0628,1.0735,1.0427,1.0433,1.0559,1.0488,1.0399,0.0,0.0,0.0,0.0,0.0,0.0,0.0,0.0,0.0,0.0,0.0,0.0,0.0,0.0,0.0,0.0,0.0,0.0,0.0,2.3178,2.5062,2.6634,2.7054,2.7135,2.7055,2.6774,2.6734,2.6827,2.7108,2.7135,2.7162,2.7215,2.7175,2.7242,2.7309,2.7495,2.7615,2.7615,2.8096,2.835,2.835,2.8577,2.8655,2.8655,2.8655,0.0,2.8655,2.8708,2.8735,2.8735,2.8801,2.9074,2.9419,2.956,3.1963,3.5759,3.7754,3.9662,4.1319,4.1853,4.2011,4.203,0.67,0.6107,0.5599,0.5607,0.5609,0.5349,0.4612,0.4561,0.4965,0.6,0.6915,0.7852,0.888,0.9755,1.0272,1.0346,1.0799,1.1118,1.1302,1.0908,1.1053,1.1908,1.2064,1.2132,1.2213,1.2139,1.2173,1.2284,1.2173,1.2139,1.2213,1.2213,1.2213,1.222,1.2288,1.2284,1.2284,1.2284,1.2237,1.2125,1.2088,1.1925,1.1737,1.1477,1.1348,1.1239,1.1164,1.1118,1.1056,1.1056,1.1009,1.0975,1.1124,1.1118,1.107,0.0,0.0,0.0,0.0,0.0,0.0,0.0,0.0,0.0,0.0,0.0,0.0,0.0,0.0,2.0951,2.2425,0.0,2.5061,2.5286,2.6445,2.7362,2.7455,2.7657,2.7576,2.7094,2.7041,2.7215,2.7697,2.775,2.7871,2.8136,2.815,2.815,2.815,2.8283,2.8364,2.8364,2.8615,2.8775,2.8775,2.8921,2.9001,2.9001,2.9001,2.9001,2.9001,2.9148,2.9259,2.9272,2.9375,2.9566,2.9802,3.1156,3.4417,3.8673,3.9836,4.1136,4.2421,4.2676,4.2754,4.2773,0.8912,0.7931,0.7121,0.7121,0.7121,0.6727,0.5532,0.5377,0.5982,0.7576,0.7672,0.8195,0.9773,0.9893,0.9934,1.017,1.088,1.1404,1.1552,1.2023,1.2329,1.2413,1.2343,1.2336,1.242,1.2336,1.239,1.2589,1.2325,1.2309,1.2458,1.2386,1.2393,1.2427,1.2542,1.2589,1.2589,1.2589,1.2589,1.2583,1.2467,1.2406,1.2338,1.1972,1.1782,1.1708,1.1708,1.1708,1.1708,1.1708,1.1728,1.1748,1.1748,1.1732,1.1753,1.1753,1.1748,0.0,0.0,0.0,0.0,0.0,0.0,0.0,0.0,1.9143,2.0124,2.2177,2.308,2.4138,2.6175,2.6841,2.7161,2.7443,2.7576,2.7696,2.7923,2.8205,2.8179,2.771,2.7615,2.7844,2.8312,2.8366,2.8524,2.8961,2.9001,2.9001,2.9001,2.9055,2.9081,2.9081,2.9188,2.9255,2.9255,2.9308,2.9335,2.9335,2.9335,2.9335,2.9348,2.9633,2.974,2.9753,2.9927,3.0398,3.1248,3.3813,3.7336,4.1233,4.1811,4.2264,4.2734,4.3164,4.3281,4.3242,0.8912,0.8768,0.8657,0.8657,0.8657,0.8602,0.8436,0.8566,0.8793,0.9149,0.9275,0.9437,0.9798,0.992,1.0218,1.0732,1.1367,1.1877,1.2169,1.2649,1.2907,1.2928,1.2907,1.2907,1.2928,1.2907,1.2914,1.2948,1.2739,1.2732,1.2921,1.2745,1.2752,1.2928,1.2941,1.2948,1.2948,1.2948,1.2948,1.2948,1.2935,1.2807,1.2638,1.2584,1.2359,1.205,1.205,1.205,1.205,1.205,1.2101,1.2216,1.2216,1.2305,1.24,1.24,1.2216,1.205,1.205,1.3436,1.512,1.5966,1.7678,1.9325,0.0,2.1532,2.2999,2.3523,2.5092,2.6533,2.7108,2.7657,2.8045,2.8085,2.8497,2.8815,2.8841,2.8868,2.8868,2.8801,2.8801,2.8828,2.8895,2.8895,2.8921,2.8988,2.9001,2.9001,2.9001,2.9285,2.9432,2.9432,2.994,3.0253,3.0253,3.0474,3.0595,3.0595,3.0595,3.0595,3.0595,3.0635,3.0648,3.0635,3.0408,3.1523,3.3591,3.5685,3.8066,4.0639,4.2686,4.3524,4.3613,4.4082,4.3984,4.3633,0.8912,0.8912,0.8912,0.8912,0.8912,0.8912,0.8912,0.896,0.9083,0.9254,0.9232,0.9278,0.9537,0.9744,1.0096,1.0603,1.1354,1.1922,1.2271,1.2826,1.3125,1.3125,1.3043,1.3043,1.3125,1.3043,1.3084,1.3214,1.2888,1.2807,1.2996,1.28,1.2726,1.2834,1.2962,1.3003,1.3003,1.3003,1.3003,1.2996,1.2861,1.2786,1.2679,1.2591,1.2481,1.2318,1.2318,1.2318,0.0,1.2318,1.2359,1.2413,1.2413,1.24,1.2413,1.2583,1.2481,1.2393,1.2745,1.4553,1.6678,1.8198,2.0329,2.2442,2.38,2.4746,2.5488,2.5975,2.6878,2.7724,2.7989,2.839,2.8657,2.8657,2.8828,2.9055,2.9272,2.9299,2.9366,2.9526,2.97,2.9673,2.9325,2.9446,2.9619,2.9793,2.9967,3.006,3.006,3.0181,3.0247,3.0247,3.0488,3.0608,3.0608,3.0728,3.0795,3.0795,3.0795,3.0702,3.0541,3.0715,3.0702,3.0574,3.0467,3.1673,3.4007,3.6431,3.8811,4.1176,4.3549,4.4316,4.4101,4.4023,4.3867,4.3711,0.8912,0.8912,0.8912,0.8912,0.8912,0.8912,0.8912,0.8912,0.8946,0.9111,0.9001,0.9021,0.9347,0.9646,0.9988,1.0514,1.1266,1.1938,1.2325,1.2867,1.3193,1.3234,1.318,1.3173,1.3234,1.3173,1.3227,1.3403,1.2996,1.2874,1.3057,1.282,1.2713,1.28,1.2948,1.3003,1.3003,1.3003,1.3003,1.2989,1.284,1.2766,1.2679,1.261,1.2515,1.244,1.244,1.244,1.2433,1.2393,1.2433,1.2501,1.2501,1.2488,1.2522,1.2779,1.32,1.3688,1.4203,1.6616,1.9332,2.0993,2.3301,2.5516,2.7073,2.7387,2.7507,2.7976,2.8243,2.85,2.8684,2.8921,2.9121,2.9121,2.9188,2.9325,2.9459,2.9486,2.9526,2.9659,3.0007,3.0074,2.9646,2.994,3.0247,3.0507,3.0675,3.0795,3.0795,3.0795,3.0795,3.0795,3.0875,3.0915,3.0915,3.0915,3.0915,3.0915,3.0835,3.0675,3.0533,3.0702,3.0675,3.052,3.1095,3.2649,3.4985,3.7496,3.9939,4.2192,4.3953,4.4473,4.416,4.3828,4.3711,4.3711,0.8912,0.8912,0.8912,0.8912,0.8912,0.8912,0.8912,0.8912,0.8912,0.8919,0.8912,0.9021,0.9347,0.9646,1.0028,1.063,1.1239,1.187,1.2461,1.2833,1.3132,1.3383,1.339,1.339,1.3397,1.339,1.339,1.3403,1.3139,1.3064,1.32,1.2868,1.2807,1.2996,1.3003,1.3003,1.3003,1.3003,1.3003,1.3003,1.2996,1.2861,1.2693,1.2686,1.2542,1.2298,1.2298,1.2298,1.2277,1.2166,1.2264,1.2501,1.2501,1.2705,1.3009,1.3159,1.464,1.6362,1.6687,2.014,2.3774,2.4571,2.6624,2.8545,2.8868,2.8921,2.8935,2.8948,2.8961,2.8975,2.8988,2.9272,2.9472,2.9472,2.9713,2.9793,2.9526,2.9486,2.9379,2.9055,2.9535,2.9927,2.99,3.0421,3.0768,3.0782,3.0795,3.0795,3.0795,3.0795,3.0795,3.0795,3.1062,3.1209,3.1209,3.1209,3.1209,3.1162,3.0929,3.0795,3.0782,3.0795,3.0795,3.0893,3.2869,3.5014,3.7359,3.9419,4.1574,4.3667,4.3709,4.373,4.373,4.3711,4.3711,4.3711,0.8912,0.8912,0.8912,0.8912,0.8912,0.8912,0.8912,0.8912,0.8912,0.8912,0.9082,0.0,0.0,0.0,0.0,0.0,1.1293,1.1705,1.204,1.2623,1.3043,1.3146,1.3295,1.3403,1.3403,1.4781,1.5514,1.5514,1.6805,1.7471,1.7485,1.7087,1.6934,1.6919,1.5366,1.4656,1.4579,1.323,1.2657,1.2657,1.2657,1.2623,1.2569,1.2474,1.2311,1.2152,0.0,1.1972,1.2152,1.1959,1.2108,1.2359,1.2359,1.2433,1.2873,1.4562,1.6212,1.782,1.933,2.2525,2.5417,2.5472,2.7354,2.9165,2.9015,2.9001,2.9055,2.9299,2.9018,2.8775,2.8961,2.8965,2.8965,2.9165,2.9432,2.9659,2.9753,2.9766,2.9806,2.99,3.0261,3.0568,3.0768,3.0969,3.1076,3.1076,3.1263,3.1417,3.1417,3.1183,3.1076,3.1076,3.0982,3.0942,3.0942,3.0942,3.0942,3.0929,3.0648,3.0654,3.0782,3.0394,3.0314,3.067,3.2641,3.485,3.7125,3.9363,4.1639,4.3711,4.3711,4.3711,4.3711,4.3711,4.3711,4.3711,0.8912,0.8953,0.8973,0.8919,0.8953,0.0,0.0,0.0,0.0,0.0,0.0,0.0,0.0,0.0,0.0,0.0,0.0,1.1753,1.2787,1.3339,1.4003,1.494,1.5066,1.5167,1.5407,1.6667,1.7382,1.7445,1.8768,1.937,1.936,1.9034,1.8861,1.8774,1.7264,1.618,1.5425,1.4137,1.3151,1.2494,1.2447,1.2427,1.2413,1.2264,1.2115,0.0,1.1708,1.1742,1.1891,1.1753,1.1881,1.2254,1.3106,1.4014,1.5118,1.7068,1.8812,2.0507,2.2223,2.4893,2.7213,2.7135,2.8373,2.9593,2.9348,2.9308,2.9362,2.9593,2.9259,2.8978,2.9165,2.9045,2.8951,2.8988,2.9285,2.9513,2.9593,2.9562,2.9713,3.0052,3.0394,3.0715,3.0902,3.1102,3.1276,3.1383,3.1463,3.1517,3.1517,3.133,3.1183,3.1076,3.0889,3.0795,3.0795,3.0688,3.0581,3.0474,3.0287,3.0301,3.0474,3.0087,3.0501,3.1595,3.369,3.5923,3.8246,4.0554,4.2368,4.3711,4.3711,4.3711,4.3711,4.3711,4.3711,4.3711,0.9141,0.9251,0.9279,0.0,0.0,0.0,0.0,0.0,0.0,0.0,0.0,0.0,0.0,0.0,0.0,0.0,0.0,0.0,1.4601,1.4794,1.5892,1.8392,1.8215,1.8314,1.8925,1.8763,1.8831,1.9081,1.9072,1.9047,1.9047,1.8888,1.8861,1.8823,1.8625,1.7445,1.5557,1.5366,1.4198,1.2447,1.2311,1.2257,1.225,1.2132,1.1945,1.1766,1.1624,1.1635,1.1743,1.1756,1.1946,1.2581,1.4827,1.7271,1.9511,2.0507,2.235,2.4329,2.5235,2.7245,2.9121,2.9446,2.9713,2.9913,2.9913,2.9913,2.9913,2.9913,2.9673,2.9459,2.9459,2.9459,2.9379,2.9068,2.9312,2.9419,2.9108,2.9055,2.9148,2.9499,3.0065,3.0413,3.0426,3.0862,3.1303,3.1644,3.1356,3.1162,3.1162,3.1196,3.1049,3.0782,3.0755,3.0755,3.0755,3.052,3.0194,2.9913,2.9913,2.9913,2.9913,2.9913,3.1137,3.3336,3.575,3.8075,4.0337,4.2739,4.375,4.3769,4.3769,4.3769,4.3769,4.3769,4.3769,4.3769,0.0,0.0,0.0,0.0,0.0,0.0,0.0,0.0,0.0,0.0,0.0,0.0,0.0,0.0,0.0,0.0,0.0,0.0,1.5414,1.5971,1.6551,1.7231,1.7424,1.7689,1.8029,1.9345,2.0069,2.0125,2.1715,2.2541,2.2541,2.2217,2.2092,2.1973,1.8917,1.7269,1.6587,1.3784,1.2312,1.1843,1.1803,1.1857,1.1895,1.1789,1.1708,1.1617,1.1504,1.2282,1.3418,1.3739,1.5399,1.7464,1.8427,1.9564,2.0909,2.274,2.4399,2.6005,2.7626,2.9048,2.9993,2.9847,2.986,2.9913,2.9913,2.9913,2.9913,2.9913,2.9513,2.9108,2.9108,2.9108,2.9161,2.9352,2.9619,2.986,3.0007,2.9833,2.9806,3.0145,3.0319,3.0493,3.0662,3.0621,3.0702,3.0996,3.0942,3.0902,3.0902,3.0702,3.0541,3.052,3.0247,3.014,3.014,3.006,2.9993,2.9913,2.9913,2.9913,2.9913,2.9913,3.0227,3.1003,3.5055,3.7325,3.8545,4.2565,4.4414,4.4687,4.4687,4.4687,4.4687,4.4687,4.4687,4.4687,0.0,0.0,0.0,0.0,0.0,0.0,0.0,0.0,0.0,0.0,0.0,0.0,0.0,0.0,0.0,0.0,0.0,0.0,0.0,1.7138,1.7825,1.8857,1.8959,1.9173,1.9569,2.0492,2.1104,2.1338,2.248,2.2735,2.2179,2.1829,2.1311,2.0519,1.8224,1.6738,1.5815,1.3723,1.2365,0.0,0.0,1.1667,1.1692,1.1611,1.1584,1.1714,1.2464,1.4734,1.7541,1.815,1.9432,2.0923,2.1435,2.2592,2.4099,2.5682,2.677,2.7706,2.904,2.978,3.0127,2.9953,2.9913,2.9913,2.9913,2.9913,2.9913,2.9913,2.9553,2.9232,2.9232,2.9339,2.9432,2.9472,2.9726,2.998,3.014,2.9913,2.9887,3.036,3.04,3.0467,3.0581,3.0493,3.0413,3.0408,3.0528,3.0595,3.0595,3.0493,3.0346,3.0167,3.0007,2.9913,2.9913,2.9913,2.9913,2.9913,2.9913,2.9913,2.9913,3.0047,3.0686,3.1824,3.5624,3.7425,3.787,4.1573,4.3216,4.3423,4.3423,4.4085,4.4977,4.4977,4.4977,4.4977,0.0,0.0,0.0,0.0,0.0,0.0,0.0,0.0,0.0,1.4405,1.4302,1.4561,0.0,0.0,0.0,0.0,0.0,0.0,0.0,0.0,1.9299,2.1317,2.1136,2.1243,2.1836,2.1555,2.163,2.2091,2.1871,2.1082,1.9786,1.9492,1.8514,1.6976,1.6732,1.5736,1.4182,1.3966,1.2936,1.147,1.1475,1.1509,1.1594,0.0,1.1951,1.2259,1.4456,1.8072,2.197,2.3164,2.3554,2.3643,2.4219,2.5864,2.775,2.8444,2.8855,2.9228,2.978,2.9913,2.9913,2.9913,2.9913,2.99,2.9873,2.9887,2.99,2.986,2.9686,2.9539,2.9539,2.978,2.99,2.9686,2.9833,2.9993,3.002,2.9753,2.9726,3.0279,3.0346,3.0346,3.0346,3.0346,3.0207,2.9993,3.0266,3.0386,3.0346,3.0346,3.0181,2.9927,2.9953,2.998,2.998,3.002,3.0034,3.0034,3.0034,3.0034,3.0047,3.0301,3.1516,3.356,3.6218,3.7359,3.7541,3.9991,4.1052,4.1087,4.1087,4.2387,4.4257,4.4558,4.4705,4.4748,0.0,0.0,0.0,0.0,0.0,0.0,0.0,0.0,0.0,0.0,1.7248,1.7595,0.0,0.0,0.0,0.0,0.0,0.0,0.0,0.0,0.0,2.0424,2.0384,2.0517,2.0927,2.0615,2.0477,2.0584,2.053,1.9745,1.8284,1.8218,1.734,1.5741,1.4297,1.3456,1.3061,1.1725,1.0986,1.0711,1.0928,1.1138,1.1462,1.3107,0.0,0.0,1.837,2.0671,2.2193,2.4932,2.6305,2.6948,2.7331,2.8188,2.9085,2.8991,2.9295,2.978,2.9887,2.9913,2.9913,2.9913,2.9913,2.986,2.9619,2.974,2.9847,2.9606,2.9713,2.9847,2.9847,3.0087,3.0386,3.0541,3.0453,3.0413,3.0608,3.0181,2.9887,2.998,2.9993,2.9993,2.9993,2.9993,3.0074,3.0319,3.0373,3.0293,3.0007,2.9993,2.9967,2.9913,3.0154,3.0333,3.0333,3.0515,3.0635,3.0635,3.0635,3.0635,3.0648,3.0688,3.0945,3.1437,3.3794,3.5046,3.5577,3.79,3.9071,3.9429,3.9429,3.9655,4.0303,4.229,4.3018,4.3284,0.0,0.0,0.0,0.0,0.0,0.0,0.0,1.8183,1.8463,1.9076,1.889,1.8838,1.9105,1.9412,1.9586,0.0,0.0,0.0,0.0,0.0,0.0,1.9786,1.9786,1.9853,2.0017,1.9853,1.9853,1.9983,0.0,1.8988,1.7427,1.7427,1.6057,1.3576,1.3718,1.337,1.2679,1.2912,1.3048,1.3152,1.3661,1.39,1.4147,1.5302,0.0,0.0,1.9906,2.1813,2.3565,2.5541,2.6854,2.7749,2.8085,2.87,2.9219,2.9041,2.9415,2.9913,2.9913,2.9913,2.9913,2.9913,2.9913,2.9847,2.9553,2.9713,2.9833,2.9539,2.9713,2.9913,2.9913,3.0154,3.0453,3.0587,3.0493,3.0453,3.0541,3.0194,2.9913,2.9913,2.9913,2.998,3.0127,3.014,3.0274,3.0614,3.0627,3.0528,3.0381,3.0368,3.0368,3.0368,3.0515,3.0627,3.0627,3.0728,3.0795,3.0795,3.0795,3.0795,3.0795,3.0942,3.1022,3.1162,3.3666,3.418,3.3425,3.5776,3.6865,3.7067,3.7067,3.7849,3.9295,4.1708,4.2577,4.2952,0.0,0.0,0.0,0.0,0.0,0.0,1.8397,1.8544,1.8958,1.997,1.9746,1.9401,1.9103,1.9466,1.9613,0.0,0.0,0.0,0.0,0.0,0.0,0.0,0.0,1.9334,1.9401,0.0,0.0,1.9706,1.9508,0.0,0.0,0.0,0.0,0.0,1.3936,1.3951,1.2965,1.461,1.5357,0.0,0.0,1.6591,1.6699,0.0,0.0,0.0,0.0,2.2603,2.4596,2.5545,2.656,2.7388,2.7791,2.8404,2.8988,2.8921,2.9322,2.982,2.982,2.9873,2.9913,2.9913,2.9873,2.9753,2.9459,2.9566,2.9646,2.9352,2.9579,2.982,2.982,3.006,3.036,3.048,3.04,3.036,3.048,3.014,2.9913,2.9913,2.9913,3.0034,3.0373,3.04,3.056,3.0862,3.0942,3.0929,3.0795,3.0795,3.0795,3.0795,3.0849,3.0889,3.0889,3.0955,3.0982,3.0982,3.0982,3.0982,3.0996,3.1223,3.1316,3.1423,3.3571,3.345,3.1853,3.3732,3.4546,3.4546,3.4546,3.5695,3.7803,4.0763,4.1896,4.2389,0.0,0.0,0.0,0.0,0.0,0.0,1.8397,1.8718,1.9118,1.976,1.9786,1.9746,1.972,1.9562,1.9428,0.0,0.0,0.0,0.0,0.0,0.0,0.0,0.0,0.0,0.0,0.0,0.0,1.9441,1.9415,0.0,0.0,0.0,0.0,0.0,0.0,1.453,1.4451,1.5043,0.0,0.0,0.0,0.0,0.0,0.0,0.0,0.0,0.0,2.3674,2.4022,2.517,2.5798,2.6252,2.6774,2.7867,2.8948,2.8724,2.9058,2.9526,2.9526,2.9713,2.9913,2.9913,2.9713,2.9446,2.9108,2.9055,2.8988,2.8751,2.9138,2.9526,2.9526,2.9766,3.0127,3.0662,3.0301,3.014,3.0675,3.0274,2.9913,2.9913,2.9913,3.0034,3.0373,3.04,3.0595,3.1142,3.1436,3.1403,3.0822,3.0795,3.0795,3.0795,3.1049,3.1136,3.1136,3.145,3.1631,3.1631,3.1631,3.1631,3.1631,3.1623,3.1623,3.1684,3.1935,3.1901,3.1711,3.1948,3.2043,3.2043,3.2043,3.2171,3.296,3.762,3.9557,4.0531,0.0,0.0,0.0,0.0,0.0,0.0,1.8624,1.8823,1.917,1.993,1.9907,1.98,1.98,1.9575,1.9401,1.9401,0.0,0.0,0.0,0.0,0.0,0.0,0.0,0.0,0.0,0.0,1.9626,1.9626,1.98,0.0,0.0,0.0,0.0,0.0,0.0,1.6944,1.6142,1.7616,0.0,0.0,0.0,0.0,0.0,0.0,0.0,0.0,0.0,0.0,2.3607,2.4249,2.489,2.5569,2.6158,2.6947,2.7789,2.8203,2.8751,2.9259,2.9432,2.9566,2.97,2.9873,2.97,2.9406,2.9068,2.9001,2.8908,2.8671,2.9072,2.9486,2.9486,2.9726,3.0047,3.0507,3.0181,3.006,3.052,3.0327,3.0181,3.0181,3.0341,3.0555,3.0849,3.0875,3.1049,3.1463,3.1597,3.1617,3.133,3.1316,3.1316,3.1316,3.1436,3.149,3.149,3.161,3.1711,3.1711,3.1711,3.1711,3.1711,3.1711,3.1711,3.1711,3.1711,3.1711,3.1711,3.1711,3.1711,3.1711,3.1711,3.1711,3.234,3.7488,3.9435,4.0339,0.0,0.0,0.0,0.0,0.0,1.7862,1.8664,1.877,1.9076,1.9957,1.9853,1.9706,1.9786,1.9575,1.9401,1.9401,1.9401,0.0,0.0,0.0,0.0,0.0,0.0,0.0,0.0,0.0,1.98,1.98,2.0064,2.0104,0.0,0.0,0.0,0.0,0.0,0.0,0.0,0.0,0.0,0.0,0.0,0.0,0.0,0.0,0.0,0.0,0.0,0.0,0.0,0.0,0.0,2.4917,2.5543,2.6159,2.6867,2.7791,2.8444,2.8935,2.9272,2.9472,2.9659,2.986,2.9633,2.9299,2.9041,2.8855,2.8711,2.8511,2.8938,2.9352,2.9352,2.9659,3.0047,3.0421,3.0234,3.0154,3.0493,3.0533,3.0507,3.0413,3.0667,3.0902,3.1149,3.1303,3.145,3.1698,3.1711,3.1711,3.1711,3.1711,3.1711,3.1711,3.1711,3.1711,3.1711,3.1711,3.1711,3.1711,3.1711,3.1711,3.1711,3.1711,3.1711,3.1711,3.1711,3.1711,3.1711,3.1711,3.1711,3.1724,3.1805,3.2307,3.3539,3.8068,4.031,4.1741,0.0,0.0,0.0,0.0,0.0,0.0,1.8397,1.849,1.8811,1.9693,1.9575,1.9508,1.9773,1.9575,1.9401,1.9401,1.9401,0.0,0.0,0.0,0.0,0.0,0.0,0.0,0.0,0.0,1.98,1.98,2.0064,2.0197,2.0197,2.0197,2.0037,1.977,0.0,0.0,0.0,0.0,0.0,0.0,0.0,0.0,2.2893,0.0,0.0,0.0,0.0,0.0,0.0,0.0,0.0,0.0,0.0,2.5692,2.6573,2.7442,2.8136,2.8671,2.8921,2.9428,2.9913,2.9913,2.9428,2.9001,2.9001,2.8577,2.8192,2.8192,2.8631,2.9001,2.9001,2.9482,3.01,3.0688,3.0587,3.0507,3.0742,3.0795,3.0675,3.044,3.0667,3.0902,3.1149,3.149,3.1711,3.1711,3.1711,3.1711,3.1711,3.1711,3.1711,3.1711,3.1711,3.1711,3.1711,3.1711,3.1711,3.1711,3.1711,3.1711,3.1711,3.1711,3.1711,3.1711,3.1711,3.1711,3.1711,3.1711,3.1711,3.1751,3.1984,3.3678,3.6271,3.9091,4.1969,4.4918,0.0,0.0,0.0,0.0,0.0,0.0,1.8103,1.8156,1.8329,1.8838,1.8998,1.9105,1.9185,1.9305,1.9401,1.9401,1.9401,0.0,0.0,0.0,0.0,0.0,0.0,0.0,0.0,1.9653,1.9893,2.0064,2.0388,2.0641,2.0797,2.0628,2.0481,2.0418,1.9973,1.9853,0.0,0.0,0.0,0.0,0.0,2.2372,2.2893,0.0,0.0,0.0,0.0,0.0,0.0,0.0,0.0,0.0,0.0,0.0,0.0,2.6841,2.7522,2.8096,2.8604,2.8885,2.9072,2.9228,2.8988,2.8751,2.8751,2.843,2.8179,2.8179,2.8617,2.9001,2.9001,2.9482,3.0114,3.0702,3.0541,3.0507,3.0755,3.0795,3.0755,3.0662,3.1089,3.1423,3.1517,3.1657,3.1711,3.1711,3.1711,3.1711,3.1711,3.1711,3.1711,3.1711,3.1711,3.1711,3.1711,3.1711,3.1711,3.1711,3.1711,3.1711,3.1711,3.1711,3.1711,3.1711,3.1711,3.1711,3.1724,3.1877,3.1971,3.1998,3.234,3.4001,3.6604,3.9447,4.2257,4.5001,0.0,0.0,0.0,0.0,0.0,0.0,1.7809,1.7849,1.7956,1.8263,1.8584,1.8798,1.889,1.9185,1.9401,1.9401,1.9401,0.0,0.0,0.0,0.0,0.0,0.0,0.0,1.9388,1.976,2.0024,2.0197,2.0641,2.0935,2.1109,2.0922,2.0806,2.0686,2.0174,2.0,0.0,0.0,0.0,0.0,2.2111,2.2432,2.2893,0.0,0.0,0.0,0.0,0.0,0.0,0.0,0.0,0.0,0.0,0.0,0.0,0.0,2.7161,2.7669,2.8312,2.8604,2.8775,2.8948,2.8775,2.8604,2.8604,2.8406,2.8179,2.8179,2.8617,2.9001,2.9001,2.9606,3.0234,3.0715,3.0635,3.0581,3.0768,3.0795,3.0835,3.0942,3.1383,3.1711,3.1711,3.1711,3.1711,3.1711,3.1711,3.1711,3.1711,3.1711,3.1711,3.1711,3.1711,3.1711,3.1711,3.1711,3.1711,3.1711,3.1784,3.1837,3.1885,3.1992,3.2045,3.2045,3.2045,3.2045,0.0,3.2198,3.2265,3.2291,3.2648,3.4892,3.8275,4.0184,4.3133,4.6326,0.0,0.0,0.0,0.0,0.0,0.0,0.0,1.7279,1.7384,1.7619,1.8044,1.8418,1.8655,1.9002,1.9245,1.9332,0.0,0.0,0.0,0.0,0.0,0.0,0.0,0.0,1.9401,1.992,2.0184,2.0197,2.0802,2.1082,2.1109,2.1109,2.0962,2.0726,2.0374,2.005,1.9867,2.0441,2.1208,2.2004,2.2271,2.2579,0.0,0.0,0.0,0.0,0.0,0.0,0.0,0.0,0.0,0.0,0.0,0.0,0.0,0.0,0.0,0.0,0.0,2.8524,2.8935,2.8935,2.8778,2.8577,2.8577,2.8393,0.0,2.8179,2.8617,2.9001,2.9028,2.978,3.0507,3.0768,3.0808,3.0795,3.0822,3.0822,3.0929,3.1196,3.149,3.1724,3.1751,3.1724,3.1711,3.1711,3.1711,3.1711,3.1711,3.1711,3.1711,3.1711,3.1738,3.1738,3.1711,3.1738,3.1738,3.1724,3.1984,3.2118,3.2118,3.246,3.2594,3.2594,3.2594,3.2594,3.2594,3.2621,3.2621,3.2661,3.2942,3.6216,4.0772,4.0863,4.4163,4.8273,0.0,0.0,0.0,0.0,0.0,0.0,0.0,0.0,0.0,0.0,1.5631,1.6533,1.6606,1.6948,1.767,0.0,0.0,0.0,0.0,0.0,0.0,0.0,0.0,0.0,1.9401,1.972,1.9983,2.0197,2.0601,2.0895,2.1109,2.1109,2.1069,2.0989,2.0437,2.0157,2.0117,2.0521,2.1208,2.2024,2.2058,2.2425,0.0,0.0,0.0,0.0,2.3265,2.3474,0.0,0.0,0.0,0.0,0.0,0.0,0.0,0.0,2.6854,2.7336,2.7469,0.0,2.8393,2.8393,2.8353,2.8299,0.0,2.8232,2.8179,2.8179,2.8617,2.9068,2.9339,2.9913,3.0574,3.1036,3.0942,3.0862,3.1089,3.1129,3.1156,3.1176,3.149,3.1805,3.1984,3.1797,3.1711,3.1711,3.1711,3.1711,3.1711,3.1711,3.1711,3.1711,3.1891,3.1891,3.1724,3.1891,3.1891,3.1724,3.2246,3.2367,3.2118,3.246,3.2594,3.2594,3.2594,3.2594,3.2607,3.2835,3.2929,3.2906,3.32,3.6491,4.0832,3.8946,4.1476,4.5567,0.0,0.0,0.0,0.0,0.0,0.0,0.0,0.0,0.0,0.0,0.0,1.4894,1.4894,1.527,0.0,0.0,0.0,0.0,0.0,0.0,0.0,0.0,0.0,1.7191,1.7191,1.7559,1.7821,1.7952,1.9137,1.9758,1.9909,2.0716,2.1042,2.0882,2.0294,2.0077,2.0224,2.0548,2.1208,2.1991,2.2124,0.0,0.0,0.0,0.0,0.0,2.3599,2.3834,0.0,2.4128,2.4382,2.4679,0.0,0.0,0.0,0.0,2.6841,2.7309,2.7309,2.7737,2.8219,2.8366,2.8286,2.8219,2.8366,2.8286,2.8179,2.8179,2.8617,2.9041,2.9245,2.998,3.0662,3.0982,3.1009,3.0996,3.1022,3.1263,3.1383,3.1236,3.161,3.1877,3.1904,3.1805,3.1711,3.1711,3.1711,3.1711,3.1711,3.1845,3.1864,3.1864,3.2158,3.2206,3.1877,3.2158,3.2273,3.2126,3.2581,3.2714,3.2519,3.2812,3.2995,3.2995,3.2995,3.2995,3.3009,3.3106,3.3173,3.3187,3.3347,3.5882,3.9269,3.7806,3.9836,4.2863,0.0,0.0,0.0,0.0,0.0,0.0,0.0,0.0,0.0,0.0,0.0,0.0,0.0,0.0,0.0,0.0,0.0,0.0,0.0,0.0,0.0,0.0,1.4351,1.4619,1.462,1.5074,1.5453,1.5732,1.7601,1.864,1.8928,2.0132,2.0545,2.0204,2.0013,2.004,2.0224,2.0548,2.1208,2.2004,2.2258,0.0,0.0,0.0,0.0,0.0,0.0,0.0,0.0,2.4519,2.4626,2.4759,2.5344,0.0,0.0,0.0,0.0,0.0,2.7296,2.7777,2.8312,2.8484,2.8379,2.8259,2.847,2.8379,2.8205,2.8245,2.8684,2.9095,2.9175,3.0087,3.0822,3.0915,3.1129,3.1169,3.0835,3.1303,3.157,3.1316,3.173,3.1957,3.1805,3.1738,3.1711,3.1711,3.1711,3.1738,3.1778,3.1971,3.2118,3.2171,3.25,3.2541,3.2238,3.2541,3.2634,3.2594,3.2929,3.3026,3.2986,3.328,3.3414,3.3414,3.3414,3.3414,3.3414,3.3414,3.3414,3.3414,3.3414,3.5004,3.7233,3.6854,3.8344,4.0271,0.0,0.0,0.0,0.0,0.0,0.0,0.0,0.0,0.0,0.0,0.0,0.0,0.0,0.0,0.0,0.0,0.0,0.0,0.0,0.0,0.0,1.0785,1.3208,1.466,1.4771,1.5125,1.6096,1.7659,1.8232,1.9259,2.0684,1.9451,1.8601,1.8146,1.9809,2.0428,2.0224,2.0548,2.1208,2.1991,2.2031,0.0,0.0,0.0,0.0,0.0,0.0,0.0,0.0,2.4586,2.4796,2.5077,2.5411,0.0,0.0,0.0,0.0,0.0,2.7242,2.7924,2.8484,2.8312,2.8219,2.8205,2.8245,2.8219,2.8259,2.8484,2.9005,2.9566,3.0105,3.0501,3.0955,3.1497,3.1617,3.141,3.0875,3.1303,3.1698,3.161,3.1724,3.181,3.2011,3.181,3.1711,3.1711,3.1711,3.1784,3.2024,3.2078,3.2211,3.2514,3.2808,3.2893,3.2839,3.2893,3.2835,3.2607,3.3093,3.3213,3.2986,3.328,3.3414,3.3414,3.3414,3.3414,3.3414,3.3414,3.3414,3.3414,3.3414,3.5004,3.7036,3.482,3.5635,3.7855,0.0,0.0,0.0,0.0,0.0,0.0,0.0,0.0,0.0,0.0,0.0,0.0,0.0,0.0,0.0,0.0,0.0,0.0,0.0,0.0,1.0931,1.0206,1.2572,1.338,1.2219,1.3586,1.4766,1.5601,1.7868,1.9309,1.9963,1.9789,1.9031,1.7948,1.966,1.9998,1.9343,2.0467,2.1416,2.2218,0.0,0.0,0.0,0.0,0.0,0.0,0.0,0.0,0.0,0.0,2.4693,2.489,2.5184,0.0,0.0,0.0,0.0,0.0,2.7229,2.7844,2.8404,2.8577,2.8871,2.9098,2.9098,2.9098,2.9138,2.9285,2.9526,2.9847,3.0319,3.0595,3.0982,3.1617,3.1711,3.1617,3.135,3.1637,3.1851,3.1738,3.181,3.1891,3.1877,3.1744,3.1711,3.1711,3.181,3.1957,3.2091,3.2398,3.2639,3.2822,3.3066,3.3213,3.3213,3.3213,3.3146,3.3013,3.328,3.3347,3.3213,3.3347,3.3414,3.3414,3.3414,3.3414,3.3414,3.3414,3.3414,3.3414,3.3414,3.4136,3.5054,3.385,3.4136,3.5203,0.0,0.0,0.0,0.0,0.0,0.0,0.0,0.0,0.0,0.0,0.0,0.0,0.0,0.0,0.0,0.0,0.0,0.0,0.0,1.0472,1.0794,1.0955,1.2925,1.302,1.0864,1.3124,1.455,1.4993,1.8083,1.9525,1.9324,2.0477,2.0042,1.8396,1.9853,2.0019,1.9196,2.0701,2.1737,2.2432,0.0,0.0,0.0,0.0,0.0,0.0,0.0,0.0,0.0,0.0,0.0,0.0,0.0,0.0,0.0,2.581,2.6213,2.6694,2.7068,2.7684,2.8326,2.8885,2.9335,2.9753,2.9887,2.986,2.986,2.9993,3.0074,3.0194,3.0467,3.0702,3.1036,3.149,3.1671,3.1711,3.1711,3.1864,3.1917,3.1738,3.1864,3.1917,3.1738,3.1711,3.1751,3.177,3.1971,3.2158,3.2305,3.2732,3.3013,3.308,3.3293,3.3414,3.3414,3.3414,3.3414,3.3414,3.3414,3.3414,3.3414,3.3414,3.3414,3.3414,3.3414,3.3414,3.3414,3.3414,3.3414,3.3414,3.3414,3.3414,3.3414,3.3414,3.38,3.4236,0.0,0.0,0.0,0.0,0.0,0.0,0.0,0.0,0.0,0.0,0.0,0.0,0.0,0.0,0.0,0.0,0.0,0.0,1.0288,1.19,1.2875,1.2892,1.4996,1.5265,1.329,1.5533,1.7611,1.9366,1.9954,2.0222,2.0233,2.1373,2.0842,1.9004,2.0735,2.1291,2.0946,2.1618,2.2111,2.2445,2.2746,0.0,0.0,0.0,0.0,0.0,0.0,0.0,0.0,0.0,0.0,0.0,0.0,0.0,2.517,2.5464,2.5772,2.6185,2.6694,2.7482,2.8326,2.8885,2.9028,2.9202,2.9793,2.9713,2.9673,3.0266,3.0541,3.0728,3.0755,3.0996,3.1209,3.1249,3.149,3.1711,3.1711,3.1738,3.1738,3.1724,3.1738,3.1738,3.1724,3.1711,3.1784,3.2051,3.2091,3.2345,3.2893,3.2959,3.3106,3.3374,3.34,3.3414,3.3414,3.3414,3.3414,3.3414,3.3414,3.3414,3.3414,3.3414,3.3414,3.3414,3.3414,3.3414,3.3414,3.3414,3.3414,3.3414,3.3414,3.3414,3.3414,3.3414,3.4969,3.6657,0.0,0.0,0.0,0.0,0.0,0.0,0.0,0.0,0.0,0.0,0.0,0.0,0.0,0.0,0.0,0.0,0.0,0.0,1.1823,1.259,1.3628,1.5094,1.7148,1.8017,1.7426,1.8472,1.9496,2.0342,2.1555,2.2188,2.2141,2.1127,2.0238,1.9549,2.0199,2.0527,2.0688,2.2191,2.2993,2.3273,2.3415,2.2937,0.0,0.0,0.0,0.0,0.0,0.0,0.0,0.0,2.4599,2.4613,2.4733,2.493,2.5144,2.5424,2.5718,2.6158,2.6934,2.7883,2.8804,2.9205,2.986,3.0362,3.0448,3.0515,3.0635,3.0849,3.0982,3.1062,3.1062,3.1303,3.1503,3.1503,3.1644,3.1711,3.1711,3.1711,3.1711,3.1711,3.1711,3.1711,3.1711,3.1837,3.1984,3.2091,3.2438,3.2746,3.2973,3.3146,3.3293,3.3414,3.3414,3.3414,3.3414,3.3414,3.3414,3.3414,3.3414,3.3414,3.3414,3.3414,3.3414,3.3414,3.3414,3.3414,3.3414,3.3414,3.3414,3.3414,3.3414,3.3414,3.3414,3.3414,3.4037,3.472,0.0,0.0,0.0,0.0,0.0,0.0,0.0,0.0,0.0,0.0,0.0,0.0,0.0,0.0,0.0,0.0,0.0,0.0,1.3372,1.4107,1.5215,1.686,1.9052,2.0355,2.0613,2.1138,2.1494,2.1668,2.2401,2.2752,2.2704,2.0934,2.0064,2.0097,2.0667,2.1028,2.1354,2.2837,2.3581,2.3817,2.391,2.3215,0.0,0.0,0.0,0.0,0.0,0.0,0.0,0.0,2.4599,2.4599,2.4599,2.4783,2.4997,2.5291,2.5785,2.6466,2.7349,2.8283,2.9135,2.9753,3.0354,3.0835,3.0915,3.1076,3.1249,3.1343,3.1289,3.1243,3.1463,3.1517,3.1557,3.1698,3.1711,3.1711,3.1711,3.1711,3.1711,3.1711,3.1744,3.181,3.181,3.2078,3.2278,3.2372,3.2746,3.3013,3.3106,3.3307,3.3414,3.3414,3.3414,3.3414,3.3414,3.3414,3.3414,3.3414,3.3414,3.3414,3.3414,3.3414,3.3414,3.3414,3.3414,3.3414,3.3414,3.3414,3.3414,3.3414,3.3414,3.3414,3.3414,3.3414,3.3414,3.3414,0.0,0.0,0.0,0.0,0.0,0.0,0.0,0.0,0.0,0.0,0.0,0.0,0.0,0.0,0.0,0.0,0.0,0.0,1.472,1.6761,1.7978,1.8125,2.0624,2.2124,2.2371,2.33,2.3768,2.3781,2.2325,2.1601,2.159,2.0963,2.0694,2.0826,2.2531,2.3305,2.3319,2.3647,2.3817,2.3843,2.4088,2.4209,2.4235,0.0,0.0,0.0,0.0,0.0,0.0,0.0,2.4599,2.4599,2.4599,2.4613,2.4679,2.4997,2.5905,2.7014,2.7938,2.8577,2.9282,3.0488,3.0354,3.0167,3.0976,3.1223,3.1303,3.1644,3.1436,3.141,3.1984,3.1623,3.133,3.1671,3.1724,3.1711,3.1724,3.1711,3.1711,3.1724,3.1931,3.2104,3.2104,3.242,3.2714,3.2959,3.2986,3.3106,3.34,3.3414,3.3414,3.3414,3.3414,3.3414,3.3414,3.3414,3.3414,3.3414,3.3414,3.3414,3.3414,3.3414,3.3414,3.3414,3.3414,3.3414,3.3414,3.3414,3.3414,3.3414,3.3414,3.3414,3.3414,3.3414,3.3414,3.3414,0.0,0.0,0.0,0.0,0.0,0.0,0.0,0.0,0.0,0.0,0.0,0.0,0.0,0.0,0.0,0.0,0.0,0.0,1.6864,1.7332,1.8331,2.0136,2.1173,2.1943,2.2371,2.33,2.3307,2.2239,2.1829,2.1601,2.1552,1.9975,2.0646,2.3109,2.2397,2.2797,2.3968,2.4262,2.4346,2.4382,2.4439,2.4466,2.4479,0.0,0.0,0.0,0.0,0.0,0.0,0.0,0.0,0.0,2.4666,2.5159,2.5798,2.5478,2.6213,2.7188,2.7496,2.8564,2.9686,2.9833,3.0675,3.141,3.1263,3.1062,3.1009,3.1303,3.145,3.1597,3.177,3.165,3.1637,3.1931,3.1797,3.1791,3.1944,3.1797,3.1791,3.1944,3.2051,3.2185,3.2447,3.2728,3.2929,3.2973,3.316,3.332,3.3414,3.3414,3.3414,3.3414,3.3414,3.3414,3.3414,3.3414,3.3414,3.3414,3.3414,3.3414,3.3414,3.3414,3.3414,3.3414,3.3414,3.3414,3.3414,3.3414,3.3414,3.3414,3.3414,3.3414,3.3414,3.3414,3.3414,3.3414,0.0,0.0,0.0,0.0,0.0,0.0,0.0,0.0,0.0,0.0,1.0256,1.1059,0.0,0.0,0.0,0.0,0.0,0.0,1.8525,1.8578,1.9173,2.0673,2.1496,2.2285,2.3113,2.3661,2.3162,2.1601,2.1601,2.1601,2.1564,2.0354,2.0986,2.3184,2.2892,2.3361,2.4382,2.4519,2.4599,2.4599,2.4599,2.4599,2.4599,0.0,0.0,0.0,0.0,0.0,0.0,0.0,0.0,0.0,2.4999,2.5545,2.6252,2.6213,2.7041,2.807,2.8537,2.9539,3.0448,3.0515,3.1142,3.1664,3.1256,3.1183,3.1249,3.1664,3.1704,3.1751,3.1824,3.1744,3.173,3.1904,3.1831,3.1778,3.1904,3.1877,3.1904,3.2078,3.2305,3.2519,3.2755,3.2973,3.3146,3.3146,3.332,3.3414,3.3414,3.3414,3.3414,3.3414,3.3414,3.3414,3.3414,3.3414,3.3414,3.3414,3.3414,3.3414,3.3414,3.3414,3.3414,3.3414,3.3414,3.3414,3.3414,3.3414,3.3414,3.3414,3.3414,3.3414,3.3414,3.3414,3.3414,3.3414,0.0,0.0,0.9267,0.0,0.0,0.0,0.0,0.0,0.0,1.0004,1.0342,1.1278,0.0,0.0,0.0,1.8015,1.7887,1.823,1.9711,2.001,2.0184,2.0237,2.167,2.3006,2.4182,2.4209,2.3439,2.1863,2.1676,2.1601,2.1601,2.1601,2.1714,2.1937,2.3759,2.4599,2.4599,2.4599,2.4599,2.4599,2.4599,2.4599,2.4599,2.4599,0.0,0.0,0.0,0.0,0.0,0.0,0.0,0.0,2.5518,2.5785,2.6305,2.7041,2.811,2.9268,3.0354,3.0902,3.1316,3.1851,3.1623,3.1276,3.1303,3.149,3.1858,3.2367,3.2099,3.1784,3.2024,3.1851,3.1738,3.1791,3.1778,3.1778,3.1831,3.1998,3.2158,3.2185,3.2652,3.2986,3.3013,3.3253,3.3414,3.3414,3.3414,3.3414,3.3414,3.3414,3.3414,3.3414,3.3414,3.3414,3.3414,3.3414,3.3414,3.3414,3.3414,3.3414,3.3414,3.3414,3.3414,3.3414,3.3414,3.3414,3.3414,3.3414,3.3414,3.3414,3.3414,3.3414,3.3414,3.3414,3.3414,3.3414,0.0,0.0,0.9523,0.9557,0.0,0.0,0.0,0.0,1.0062,1.0215,1.1639,1.3261,1.4805,1.6181,0.0,1.9588,1.9447,1.943,1.977,1.9853,2.0094,2.0561,2.2024,2.322,2.4182,2.4209,2.4123,2.3944,2.236,2.1601,2.1601,2.1601,2.2434,2.3957,2.4414,2.4599,2.4599,2.4599,2.4599,2.4599,2.4599,2.4599,2.4599,2.4599,2.4599,0.0,0.0,0.0,0.0,0.0,0.0,0.0,2.5585,2.6346,2.7268,2.7001,2.8096,2.9392,2.9375,3.014,3.0915,3.1049,3.133,3.1637,3.1864,3.1784,3.1637,3.153,3.177,3.1957,3.1797,3.1764,3.1872,3.2326,3.2206,3.2171,3.2639,3.2607,3.2581,3.2759,3.2906,3.3066,3.3293,3.3374,3.3414,3.3414,3.3414,3.3414,3.3414,3.3414,3.3414,3.3414,3.3414,3.3414,3.3414,3.3414,3.3414,3.3414,3.3414,3.3414,3.3414,3.3414,3.3414,3.3414,3.3414,3.3414,3.3414,3.3414,3.3414,3.3414,3.3414,3.3414,3.3414,3.3414,3.3414,3.3414,0.0,0.0,0.0,0.0,0.0,0.0,0.0,0.0,1.1799,1.2368,1.279,1.3906,1.6254,1.7315,0.0,0.0,1.993,1.9853,1.997,1.997,2.0521,2.1703,2.2592,2.35,2.4359,2.4372,2.4452,2.4599,2.3537,2.3042,2.3042,2.3042,2.3611,2.4599,2.4599,2.4599,2.4599,2.4599,2.4599,2.4599,2.4599,2.4599,2.4599,2.4599,2.4599,2.4639,2.497,0.0,0.0,0.0,0.0,0.0,0.0,0.0,2.7482,2.7455,2.8417,2.9539,2.9806,3.0421,3.1062,3.1343,3.165,3.1917,3.2064,3.1984,3.1797,3.1503,3.1677,3.1851,3.1751,3.1784,3.1971,3.2326,3.2367,3.2474,3.2781,3.2808,3.2862,3.2959,3.3106,3.324,3.34,3.3414,3.3414,3.3414,3.3414,3.3414,3.3414,3.3414,3.3414,3.3414,3.3414,3.3414,3.3414,3.3414,3.3414,3.3414,3.3414,3.3414,3.3414,3.3414,3.3414,3.3414,3.3414,3.3414,3.3414,3.3414,3.3414,3.3414,3.3414,3.3414,3.3414,3.3414,3.3414,3.3414,0.0,0.0,0.0,0.0,0.0,0.0,0.0,0.0,0.0,1.4689,1.4066,1.4553,1.725,1.78,1.855,0.0,0.0,0.0,2.0104,2.0317,2.1176,2.2827,2.3207,2.3759,2.4586,2.4599,2.4599,2.4599,2.4599,2.4599,2.4599,2.4599,2.4599,2.4599,2.4599,2.4599,2.4599,2.4599,2.4599,2.4599,2.4599,2.4599,2.4599,2.4599,2.4599,2.4639,2.497,2.5264,2.5558,2.5891,0.0,0.0,0.0,0.0,2.7416,2.7951,2.8781,2.9659,3.0434,3.0969,3.1423,3.1904,3.2064,3.2091,3.2038,3.2024,3.1957,3.1764,3.1711,3.1711,3.1711,3.1864,3.2064,3.2158,3.2433,3.2634,3.2728,3.2955,3.3053,3.3053,3.3267,3.3414,3.3414,3.3414,3.3414,3.3414,3.3414,3.3414,3.3414,3.3414,3.3414,3.3414,3.3414,3.3414,3.3414,3.3414,3.3414,3.3414,3.3414,3.3414,3.3414,3.3414,3.3414,3.3414,3.3414,3.3414,3.3414,3.3414,3.3414,3.3414,3.3414,3.3414,3.3414,3.3414,3.3414,3.3414,0.0,0.0,0.0,0.0,0.0,0.0,0.0,0.0,0.0,0.0,1.6036,1.7032,1.722,1.8603,1.9509,1.9506,1.9481,1.9575,1.984,0.0,0.0,2.2853,2.3442,2.3995,2.4586,2.4599,2.4599,2.4599,2.4599,2.4599,2.4599,2.4599,2.4599,2.4599,2.4599,2.4599,2.4599,2.4599,2.4599,2.4599,2.4599,2.4599,2.4599,2.4599,2.4599,2.4639,2.497,2.5264,2.5558,2.5891,2.6185,0.0,0.0,0.0,2.7376,2.7655,2.8577,2.9566,2.9927,3.0808,3.1623,3.1704,3.1917,3.2038,3.1831,3.173,3.1764,3.1724,3.1711,3.1711,3.1711,3.1751,3.1938,3.2447,3.2567,3.2768,3.3227,3.3334,3.336,3.336,3.3387,3.3414,3.3414,3.3414,3.3414,3.3414,3.3414,3.3414,3.3414,3.3414,3.3414,3.3414,3.3414,3.3414,3.3414,3.3414,3.3414,3.3414,3.3414,3.3414,3.3414,3.3414,3.3414,3.3414,3.3414,3.3414,3.3414,3.3414,3.3414,3.3414,3.3414,3.3414,3.3414,3.3414,3.3414,3.3414,0.0,0.0,0.0,0.0,0.0,0.0,0.0,0.0,0.0,0.0,0.0,1.6549,1.8239,1.9135,1.9535,1.9401,1.9401,1.9655,2.0254,2.1274,2.2191,2.3086,2.3576,2.4035,2.4586,2.4599,2.4599,2.4599,2.4599,2.4599,2.4599,2.4599,2.4599,2.4599,2.4599,2.4599,2.4599,2.4599,2.4599,2.4599,2.4599,2.493,2.5344,2.501,2.5184,2.5611,2.5623,2.569,2.585,2.6145,2.6279,2.6386,2.6386,0.0,0.0,0.0,2.819,2.9165,2.9953,3.0782,3.1503,3.1824,3.1891,3.1864,3.1904,3.1831,3.1764,3.1877,3.1904,3.1864,3.1751,3.1797,3.2051,3.2527,3.2728,3.2982,3.336,3.3414,3.3414,3.3414,3.3414,3.3414,3.3414,3.3414,3.3414,3.3414,3.3414,3.3414,3.3414,3.3414,3.3414,3.3414,3.3414,3.3414,3.3414,3.3414,3.3414,3.3414,3.3414,3.3414,3.3414,3.3414,3.3414,3.3414,3.3414,3.3414,3.3414,3.3414,3.3414,3.3414,3.3414,3.3414,3.3414,3.3414,3.3414,3.3414,0.0,0.0,0.0,0.0,0.0,0.0,0.0,0.0,0.0,0.0,0.0,1.5545,1.7975,0.0,0.0,0.0,1.9288,1.9923,2.0659,2.1529,2.2325,2.3025,2.3527,2.4008,2.4479,2.4559,2.4599,2.4599,2.4599,2.4599,2.4599,2.4599,2.4599,2.4599,2.4599,2.4599,2.4599,2.4599,2.4599,2.4626,2.4919,2.5478,2.6091,2.5944,2.6305,2.6814,2.6372,2.6265,2.6332,2.6319,2.6333,2.6386,2.6386,2.6787,0.0,0.0,0.0,2.8938,2.9967,3.0675,3.1249,3.1851,3.1824,3.1791,3.2038,3.1877,3.1805,3.2038,3.2104,3.2064,3.1965,3.2064,3.2291,3.2554,3.2835,3.308,3.3374,3.3414,3.3414,3.3414,3.3414,3.3414,3.3414,3.3414,3.3414,3.3414,3.3414,3.3414,3.3414,3.3414,3.3414,3.3414,3.3414,3.3414,3.3414,3.3414,3.3414,3.3414,3.3414,3.3414,3.3414,3.3414,3.3414,3.3414,3.3414,3.3414,3.3414,3.3414,3.3414,3.3414,3.3414,3.3414,3.3414,3.3414,3.3414,3.3414,0.0,0.0,0.0,0.0,0.0,0.0,0.0,0.0,0.0,0.0,0.0,1.4842,1.5024,1.6625,1.7532,1.7156,1.8975,2.029,2.0686,2.1529,2.2124,2.2411,2.33,0.0,2.4222,2.4452,2.4599,2.4599,2.4599,2.4599,2.4599,2.4599,2.4599,2.4599,2.4599,2.4599,2.4599,2.4599,2.4599,2.4693,2.5852,2.6333,2.648,2.7617,2.8058,2.7978,2.7081,2.6961,2.7108,2.6292,2.6198,2.6386,2.6386,2.6787,2.7309,0.0,0.0,0.0,2.9766,3.0368,3.0955,3.1591,3.1724,3.1791,3.2038,3.1877,3.1805,3.2038,3.2104,3.2185,3.25,3.2567,3.2581,3.2594,3.2835,3.308,3.3374,3.3414,3.3414,3.3414,3.3414,3.3414,3.3414,3.3414,3.3414,3.3414,3.3414,3.3414,3.3414,3.3414,3.3414,3.3414,3.3414,3.3414,3.3414,3.3414,3.3414,3.3414,3.3414,3.3414,3.3414,3.3414,3.3414,3.3414,3.3414,3.3414,3.3414,3.3414,3.3414,3.3414,3.3414,3.3414,3.3414,3.3414,3.3414,3.3414,0.0,0.0,0.0,0.0,0.0,0.0,0.0,0.0,0.0,0.0,0.0,0.0,0.0,1.7377,1.8132,1.8962,1.9946,2.0753,2.1234,2.1743,2.2378,2.3247,2.3629,2.3995,2.4439,2.4546,2.4599,2.4599,2.4599,2.4599,2.4599,2.4599,2.4599,2.4599,2.4599,2.4599,2.4599,2.4599,2.4599,2.4706,2.5919,2.6613,2.7081,2.7884,2.8419,2.8657,2.815,0.0,0.0,2.6948,2.6653,0.0,0.0,2.668,2.7376,2.7764,2.8404,2.9081,2.9526,3.006,3.0654,3.1009,3.1396,3.165,3.1557,3.1757,3.1971,3.2078,3.2251,3.2474,3.2581,3.2594,3.2661,3.2848,3.2955,3.308,3.3374,3.3414,3.3414,3.3414,3.3414,3.3414,3.3414,3.3414,3.3414,3.3414,3.3414,3.3414,3.3414,3.3414,3.3414,3.3414,3.3414,3.3414,3.3414,3.3414,3.3414,3.3414,3.3414,3.3414,3.3414,3.3414,3.3414,3.3414,3.3414,3.3414,3.3414,3.3414,3.3414,3.3414,3.3414,3.3414,3.3414,3.3414,3.3414,3.3414,0.0,0.0,0.0,0.0,0.0,1.046,1.0365,1.0845,1.16,1.2808,0.0,0.0,0.0,0.0,1.9059,2.0641,2.094,2.1208,2.1703,2.2091,2.2666,2.3469,2.379,2.4102,2.4439,2.4546,2.4599,2.4599,2.4599,2.4599,2.4599,2.4599,2.4599,2.4599,2.4599,2.4599,2.4613,2.4706,2.4783,2.4917,2.6507,2.7188,2.7429,2.862,2.9032,2.8988,0.0,0.0,0.0,0.0,0.0,0.0,0.0,2.7068,2.755,2.8045,2.8564,2.9041,2.9285,2.9766,3.0327,3.0822,3.1089,3.1303,3.1597,3.1744,3.1891,3.2185,3.238,3.25,3.2701,3.2741,3.2808,3.2946,3.3066,3.3187,3.3387,3.3414,3.3414,3.3414,3.3414,3.3414,3.3414,3.3414,3.3414,3.3414,3.3414,3.3414,3.3414,3.3414,3.3414,3.3414,3.3414,3.3414,3.3414,3.3414,3.3414,3.3414,3.3414,3.3414,3.3414,3.3414,3.3414,3.3414,3.3414,3.3414,3.3414,3.3414,3.3414,3.3414,3.3414,3.3414,3.3414,3.3414,3.3414,3.3414,0.0,0.0,0.0,0.0,1.0773,1.0702,1.0702,1.2011,1.3167,1.3561,0.0,0.0,0.0,0.0,0.0,2.1872,2.1783,2.1743,2.2004,2.2599,2.292,2.2934,2.3741,2.4209,2.4209,2.4452,2.4599,2.4599,2.4599,2.4599,2.4599,2.4599,2.4599,2.4599,2.4599,2.4599,2.4639,2.4957,2.5128,2.5342,2.7642,2.807,2.7603,2.99,3.0074,0.0,2.9432,2.9325,0.0,0.0,0.0,0.0,0.0,2.7978,2.7762,2.8112,2.8577,2.9001,0.0,0.0,0.0,3.0922,3.0782,3.0788,3.2206,3.1824,3.1463,3.238,3.2326,3.2265,3.2853,3.2959,3.3009,3.3009,3.3213,3.3414,3.3414,3.3414,3.3414,3.3414,3.3414,3.3414,3.3414,3.3414,3.3414,3.3414,3.3414,3.3414,3.3414,3.3414,3.3414,3.3414,3.3414,3.3414,3.3414,3.3414,3.3414,3.3414,3.3414,3.3414,3.3414,3.3414,3.3414,3.3414,3.3414,3.3414,3.3414,3.3414,3.3414,3.3414,3.3414,3.3414,3.3414,3.3414,3.3414,3.3414,0.0,0.0,0.0,1.5127,1.508,1.511,1.5176,1.5653,1.6146,0.0,0.0,0.0,1.9265,2.0919,2.213,2.2619,2.2586,2.2666,2.2939,2.3113,2.3394,2.3821,2.4075,2.4302,2.4479,2.4559,2.4599,2.4599,2.4599,2.4599,2.4599,2.4599,2.4599,2.4599,2.4599,2.4719,2.4957,2.505,2.5369,2.5891,2.7348,2.807,0.0,0.0,0.0,0.0,0.0,3.0242,2.9628,0.0,2.9098,2.8366,0.0,2.7762,2.7802,2.8323,2.8751,2.9041,2.9299,0.0,0.0,0.0,0.0,0.0,3.0962,3.1102,3.1243,3.1543,3.169,3.1904,3.2278,3.2567,3.2714,3.2714,3.3093,3.3414,3.3414,3.3414,3.3414,3.3414,3.3414,3.3414,3.3414,3.3414,3.3414,3.3414,3.3414,3.3414,3.3414,3.3414,3.3414,3.3414,3.3414,3.3414,3.3414,3.3414,3.3414,3.3414,3.3414,3.3414,3.3414,3.3414,3.3414,3.3414,3.3414,3.3414,3.3414,3.3414,3.3414,3.3414,3.3414,3.3414,3.3414,3.3414,3.3414,3.3414,0.0,0.0,1.4543,1.4543,1.5284,1.5925,1.5994,1.7413,1.8586,0.0,0.0,0.0,2.1753,2.2696,2.3281,2.3281,2.3281,2.3348,2.35,2.3621,2.3848,2.4182,2.4315,2.4426,2.4599,2.4599,2.4599,2.4599,2.4599,2.4599,2.4599,2.4599,2.4599,2.4599,2.477,2.4983,2.5264,2.5436,2.5677,2.6131,2.7642,0.0,0.0,2.9953,3.0341,0.0,0.0,0.0,2.9615,3.0394,2.986,0.0,0.0,0.0,2.8018,2.847,2.8775,2.9068,2.9406,2.97,2.994,3.0074,0.0,0.0,3.0881,3.1076,3.1243,3.1543,3.173,3.1944,3.2238,3.2332,3.2487,3.2741,3.2955,3.3093,3.3213,3.3334,3.3414,3.3414,3.3414,3.3414,3.3414,3.3414,3.3414,3.3414,3.3414,3.3414,3.3414,3.3414,3.3414,3.3414,3.3414,3.3414,3.3414,3.3414,3.3414,3.3414,3.3414,3.3414,3.3414,3.3414,3.3414,3.3414,3.3414,3.3414,3.3414,3.3414,3.3414,3.3414,3.3414,3.3414,3.3414,3.3414,3.3414,3.3414,0.0,0.0,1.2101,1.2115,1.3883,1.5346,1.5382,1.846,2.0895,0.0,2.2547,2.3607,2.3848,2.391,2.391,2.391,2.391,2.391,2.391,2.4115,2.4249,2.4249,2.4466,2.4599,2.4599,2.4599,2.4599,2.4599,2.4599,2.4599,2.4599,2.4599,2.4599,2.4613,2.4943,2.5237,2.5531,2.5864,2.6078,2.6346,2.819,2.8537,0.0,0.0,3.0181,2.9428,3.0515,3.0221,2.9522,3.1062,3.0875,0.0,0.0,0.0,0.0,2.8591,2.8841,2.9148,2.9459,2.9726,2.998,3.0293,3.0114,0.0,3.1283,3.1289,3.1276,3.1797,3.1931,3.2051,3.2393,3.2158,3.2144,3.2692,3.2674,3.2648,3.2942,3.3146,3.332,3.332,3.332,3.3334,3.336,3.336,3.3374,3.3414,3.3414,3.3414,3.3414,3.3414,3.3414,3.3414,3.3414,3.3414,3.3414,3.3414,3.3414,3.3414,3.3414,3.3414,3.3414,3.3414,3.3414,3.3414,3.3414,3.3414,3.3414,3.3414,3.3414,3.3414,3.3414,3.3414,3.3414,3.3414,3.3414,3.3414,1.4032,1.5238,1.6504,1.6609,1.8456,2.0021,2.0336,2.23,2.3948,2.4472,2.469,2.4676,2.4452,2.4426,2.4426,2.4426,2.4426,2.4426,2.4426,2.4479,2.4519,2.4519,2.4572,2.4599,2.4599,2.4599,2.4599,2.4599,2.4599,2.4599,2.4599,2.4599,2.4599,2.4613,2.4943,2.5237,2.5531,2.5864,2.6546,2.7415,2.8098,0.0,2.9579,3.0461,3.0942,3.1183,3.1423,3.1356,3.1142,0.0,3.0808,3.0461,0.0,0.0,0.0,2.9028,2.9282,2.9753,2.982,2.9873,2.9927,0.0,0.0,0.0,3.0207,3.0394,3.0614,3.0721,3.0889,3.1142,3.1423,3.1249,3.1169,3.1517,3.1917,3.2291,3.2634,3.2728,3.2768,3.2768,3.2768,3.2848,3.304,3.3066,3.316,3.3387,3.3414,3.3414,3.3414,3.3414,3.3414,3.3414,3.3414,3.3414,3.3414,3.3414,3.3414,3.3414,3.3414,3.3414,3.3414,3.3414,3.3414,3.3414,3.3414,3.3414,3.3414,3.3414,3.3414,3.3414,3.3414,3.3414,3.3414,3.3414,3.3414,3.3414,1.3398,1.4211,1.5417,1.6654,1.8652,2.0589,2.1927,2.3808,2.513,2.5277,2.5037,2.4863,2.4863,2.4693,2.4599,2.4599,2.4599,2.4599,2.4599,2.4599,2.4599,2.4599,2.4599,2.4599,2.4599,2.4599,2.4599,2.4599,2.4599,2.4599,2.4599,2.4599,2.4906,2.5504,2.5358,2.5705,2.6373,2.6279,2.672,2.7549,2.8283,0.0,3.0221,3.0955,3.1457,3.1711,3.1711,3.157,3.1316,3.0434,3.0234,0.0,0.0,2.97,2.9673,0.0,2.9642,2.9913,0.0,0.0,0.0,2.9913,0.0,0.0,0.0,3.0368,3.0627,3.0627,3.0808,3.1049,3.1196,3.0982,3.0889,3.1183,3.1597,3.1837,3.1738,3.2353,3.2755,3.2607,3.2728,3.2808,3.2808,3.3026,3.3253,3.34,3.3414,3.3414,3.3414,3.3414,3.3414,3.3414,3.3414,3.3414,3.3414,3.3414,3.3414,3.3414,3.3414,3.3414,3.3414,3.3414,3.3414,3.3414,3.3414,3.3414,3.3414,3.3414,3.3414,3.3414,3.3414,3.3414,3.3414,3.3414,3.3414,3.3414,1.2783,1.316,1.4159,1.6115,1.8231,2.0335,2.2315,2.4328,2.5491,2.5197,2.5104,2.513,2.5317,2.5224,2.5106,2.5106,2.5159,2.5119,2.4946,2.4933,2.4933,2.4933,2.4719,2.4679,2.489,2.4746,2.4653,2.4599,2.4653,2.4653,2.4599,2.4653,2.5224,2.6132,2.5932,2.6319,2.7122,2.6774,2.7095,2.7817,0.0,2.9432,3.0172,3.1109,3.143,3.1343,3.1463,3.1343,3.0996,3.006,0.0,3.0181,3.0247,3.0145,0.0,0.0,0.0,0.0,0.0,0.0,0.0,0.0,0.0,3.0047,0.0,0.0,0.0,3.0635,3.0808,3.0922,3.0922,3.0742,3.0621,3.0849,3.1236,3.1363,3.0782,3.1824,0.0,3.2286,3.2607,3.2719,3.2527,3.2933,3.3267,3.332,3.328,3.3293,3.34,3.3414,3.3414,3.3414,3.3414,3.3414,3.3414,3.3414,3.3414,3.3414,3.3414,3.3414,3.3414,3.3414,3.3414,3.3414,3.3414,3.3414,3.3414,3.3414,3.3414,3.3414,3.3414,3.3414,3.3414,3.3414,3.3414,3.3414,1.5327,1.6541,1.8093,1.8699,2.063,2.2288,2.2936,2.4708,2.5837,2.5504,2.6067,2.6493,2.6266,2.672,2.7001,2.7001,2.7201,0.0,2.6239,2.6186,2.6186,2.6186,2.5159,2.4997,2.5824,2.5329,2.4903,2.4599,2.4903,2.489,2.4613,2.4903,2.5104,2.5277,2.656,2.6854,2.6533,2.7241,2.8203,2.9219,2.9055,2.8908,0.0,3.0119,3.0341,3.0181,3.0702,3.0875,3.0822,0.0,3.0835,3.0896,0.0,3.0635,3.1269,3.0207,0.0,0.0,0.0,0.0,0.0,0.0,3.0114,0.0,0.0,0.0,3.0373,3.0074,0.0,0.0,0.0,0.0,0.0,2.9673,0.0,0.0,3.0493,3.0996,3.1316,3.1022,3.1704,3.2185,3.2158,3.25,3.2795,3.3013,3.2835,3.2915,3.3387,3.3414,3.3414,3.3414,3.3414,3.3414,3.3414,3.3414,3.3414,3.3414,3.3414,3.3414,3.3414,3.3414,3.3414,3.3414,3.3414,3.3414,3.3414,3.3414,3.3414,3.3414,3.3414,3.3414,3.3414,3.3414,3.3414,3.3414,1.7397,1.7974,1.9091,2.0566,2.1758,2.2999,2.4551,2.5466,2.6011,2.6012,2.6039,2.5596,2.4404,2.4348,2.4584,0.0,0.0,2.5484,0.0,0.0,2.6239,2.5892,2.5251,2.5144,2.5692,2.5291,2.5104,2.5106,2.5264,2.5264,2.5144,2.5277,2.5785,2.6613,2.7108,2.7643,2.8177,2.8058,2.8286,0.0,0.0,0.0,0.0,3.0386,3.0942,3.0662,3.0581,3.0587,3.0587,0.0,3.0515,0.0,0.0,0.0,0.0,0.0,0.0,0.0,0.0,0.0,0.0,0.0,0.0,0.0,3.002,0.0,3.0074,0.0,0.0,0.0,0.0,0.0,0.0,0.0,3.0221,0.0,0.0,0.0,3.1249,0.0,0.0,0.0,3.2559,3.2621,3.2781,3.32,3.2959,3.2973,3.3387,3.3414,3.3414,3.3414,3.3414,3.3414,3.3414,3.3414,3.3414,3.3414,3.3414,3.3414,3.3414,3.3414,3.3414,3.3414,3.3414,3.3414,3.3414,3.3414,3.3414,3.3414,3.3414,3.3414,3.3414,3.3414,3.3414,3.3414,1.861,1.9478,2.0831,2.2645,2.3181,2.3942,2.5817,2.5113,2.4651,2.546,2.4819,2.373,2.239,2.229,0.0,0.0,2.3109,2.3746,0.0,0.0,2.5757,2.546,2.5292,0.0,2.6106,2.5598,2.5384,2.5518,2.5598,2.5638,2.5638,2.5638,2.6293,2.7455,2.7536,2.8192,2.9205,2.8767,2.8647,2.8781,2.87,2.8644,2.8831,3.0368,3.0969,3.0929,3.0421,3.0386,3.052,3.0426,3.0327,0.0,3.0929,0.0,0.0,0.0,0.0,0.0,3.0547,0.0,0.0,0.0,0.0,0.0,0.0,0.0,0.0,0.0,0.0,0.0,0.0,0.0,0.0,0.0,0.0,0.0,0.0,0.0,0.0,0.0,0.0,0.0,0.0,3.2447,3.2452,3.312,3.2826,3.2853,3.3387,3.3414,3.3414,3.3414,3.3414,3.3414,3.3414,3.3414,3.3414,3.3414,3.3414,3.3414,3.3414,3.3414,3.3414,3.3414,3.3414,3.3414,3.3414,3.3414,3.3414,3.3414,3.3414,3.3414,3.3414,3.3414,3.3414,3.3414,1.861,2.1751,2.4624,2.5283,2.539,2.5628,2.6293,2.2808,2.0911,2.3208,2.213,0.0,0.0,0.0,0.0,0.0,0.0,2.2698,2.1913,0.0,2.4789,0.0,0.0,2.6172,0.0,2.6546,2.5824,2.5518,2.5837,2.5984,2.5984,2.5984,2.6305,2.6894,2.7777,2.8353,2.8671,2.9205,2.9811,3.0306,2.998,3.0322,3.0922,0.0,2.9646,3.04,3.0047,0.0,0.0,3.0493,3.0728,0.0,0.0,0.0,0.0,0.0,0.0,0.0,0.0,0.0,0.0,3.014,0.0,0.0,0.0,0.0,3.0306,0.0,0.0,0.0,0.0,0.0,0.0,0.0,0.0,0.0,0.0,0.0,0.0,0.0,0.0,0.0,0.0,3.161,3.1637,0.0,3.2086,3.2211,3.3347,3.3414,3.3414,3.3414,3.3414,3.3414,3.3414,3.3414,3.3414,3.3414,3.3414,3.3414,3.3414,3.3414,3.3414,3.3414,3.3414,3.3414,3.3414,3.3414,3.3414,3.3414,3.3414,3.3414,3.3414,3.3414,3.3414,3.3414,1.8488,1.9905,2.0945,2.1033,2.2516,2.3324,2.2376,2.1063,0.0,0.0,0.0,0.0,0.0,1.8936,1.9374,0.0,0.0,2.0741,2.2224,2.3908,0.0,0.0,0.0,2.6881,0.0,0.0,2.6293,2.6373,2.648,2.6533,2.6533,2.6774,2.7028,2.7428,2.8136,2.8831,2.9486,2.9686,0.0,0.0,0.0,2.9633,3.0087,0.0,3.0381,3.0608,3.036,3.0207,0.0,3.0555,3.0782,3.1022,3.1503,3.153,3.145,3.1837,3.1543,3.1196,0.0,0.0,3.1637,3.0955,0.0,0.0,0.0,0.0,0.0,0.0,0.0,0.0,0.0,0.0,0.0,0.0,0.0,0.0,0.0,0.0,0.0,0.0,0.0,0.0,0.0,0.0,0.0,0.0,3.2594,0.0,3.3374,3.3414,3.3414,3.3414,3.3414,3.3414,3.3414,3.3414,3.3414,3.3414,3.3414,3.3414,3.3414,3.3414,3.3414,3.3414,3.3414,3.3414,3.3414,3.3414,3.3414,3.3414,3.3414,3.3414,3.3414,3.3414,3.3414,3.3414,1.6485,1.816,1.9312,1.9101,1.9949,2.0535,2.0208,0.0,0.0,0.0,1.8912,0.0,1.6638,0.0,1.7031,0.0,1.76,1.8599,2.1198,2.3087,0.0,2.563,2.6885,0.0,0.0,0.0,2.7108,2.7295,2.7081,2.7028,2.7134,2.7121,2.7375,2.7856,2.7936,2.8698,2.9913,2.9806,2.994,0.0,0.0,2.9593,0.0,0.0,3.0568,3.0474,0.0,3.0368,3.0434,3.0822,3.1022,3.1209,3.177,3.1757,3.1637,3.2118,3.1931,3.1677,3.2131,3.2265,0.0,3.153,3.153,0.0,3.0448,0.0,0.0,0.0,0.0,0.0,0.0,0.0,0.0,0.0,0.0,0.0,0.0,0.0,0.0,0.0,0.0,0.0,0.0,0.0,0.0,0.0,0.0,0.0,0.0,3.3213,3.32,3.34,3.3307,3.3307,3.3414,3.3414,3.3414,3.3414,3.3414,3.3414,3.3414,3.3414,3.3414,3.3414,3.3414,3.3414,3.3414,3.3414,3.3414,3.3414,3.3414,3.3414,3.3414,3.3414,3.3414,3.3414,1.305,1.667,1.9745,1.9634,1.8028,1.7479,1.9664,0.0,1.4893,0.0,1.583,1.4728,1.4735,1.512,1.5364,1.5228,1.5575,0.0,1.902,2.1271,0.0,0.0,2.8239,2.9308,2.994,0.0,0.0,0.0,2.7617,2.7415,2.7669,2.7134,2.7335,2.8152,2.7268,2.8016,2.99,2.9619,3.0007,3.0742,3.0167,3.0261,3.0702,3.048,3.0167,2.9953,3.0274,3.0728,3.1136,3.1162,3.1423,3.1724,3.1738,3.1904,3.2198,3.2527,3.2822,3.2933,3.2714,3.2634,3.25,3.1912,3.1764,0.0,0.0,0.0,3.1102,0.0,0.0,0.0,0.0,0.0,0.0,0.0,0.0,0.0,0.0,0.0,0.0,0.0,0.0,0.0,0.0,0.0,0.0,0.0,0.0,0.0,0.0,3.2915,3.2862,3.3387,3.316,3.3146,3.3414,3.3427,3.3427,3.3414,3.3414,3.3414,3.3414,3.3414,3.3414,3.3414,3.3414,3.3414,3.3414,3.3414,3.3414,3.3414,3.3414,3.3414,3.3414,3.3414,3.3414,3.3414,1.3295,1.443,1.6589,2.0271,1.7537,1.5031,0.0,0.0,0.0,0.0,1.5424,1.5282,1.535,1.5465,1.5608,1.5724,1.7575,0.0,0.0,0.0,0.0,2.7463,2.8884,2.9967,3.0555,2.9205,0.0,2.8179,2.7817,2.7509,2.7429,2.771,2.7965,2.8179,2.7951,2.8591,2.9913,2.9833,3.0194,3.0755,3.0394,3.0119,2.9833,0.0,2.998,2.998,3.0501,3.0635,3.0648,3.1076,3.1423,3.1751,3.1917,3.2345,3.2772,3.2888,3.3066,3.328,3.3213,3.3187,3.3053,3.2514,3.2367,3.2219,0.0,0.0,0.0,0.0,0.0,0.0,0.0,0.0,0.0,0.0,0.0,0.0,0.0,0.0,0.0,0.0,0.0,0.0,0.0,0.0,0.0,0.0,0.0,0.0,0.0,0.0,3.2862,3.3387,3.3574,3.3574,3.3414,3.3641,3.3641,3.3414,3.3414,3.3414,3.3414,3.3414,3.3414,3.3414,3.3414,3.3414,3.3414,3.3414,3.3414,3.3414,3.3414,3.3414,3.3414,3.3414,3.3414,3.3414,1.5125,1.6393,1.8608,2.2533,1.9255,0.0,1.6091,1.6235,0.0,1.5185,1.6256,0.0,1.5725,1.5757,1.63,1.7591,1.9053,0.0,2.3052,0.0,0.0,2.9235,3.0199,3.0835,3.1169,3.0114,0.0,2.8955,0.0,2.807,2.7697,2.7898,2.7991,2.7991,2.7991,2.847,2.9366,2.9753,3.0181,3.0581,3.0287,3.0092,0.0,3.0047,3.0114,3.0194,3.0768,3.0875,3.0808,3.1263,3.153,3.1764,3.2011,3.2412,3.2862,3.2995,3.3187,3.3414,3.3414,3.3414,3.3334,3.3013,3.2969,3.2822,3.2233,3.2078,3.1971,0.0,0.0,0.0,0.0,0.0,0.0,0.0,0.0,0.0,0.0,0.0,0.0,0.0,0.0,0.0,0.0,0.0,0.0,0.0,0.0,0.0,0.0,0.0,3.2679,3.3387,3.3334,3.34,3.3614,3.3534,3.3534,3.3614,3.348,3.3414,3.3414,3.3414,3.3414,3.3414,3.3414,3.3414,3.3414,3.3414,3.3414,3.3414,3.3414,3.3414,3.3414,3.3414,3.3414,3.3414,1.7793,2.0055,2.2467,0.0,0.0,0.0,0.0,1.8848,0.0,1.5967,0.0,1.8696,1.6894,1.6946,1.8038,2.0314,0.0,2.2819,2.7071,2.7949,2.9167,3.1142,3.1517,3.1698,3.1657,3.1076,0.0,0.0,0.0,2.8711,2.8125,2.7856,2.7762,2.7762,2.7762,2.8123,2.8778,2.9619,3.0127,3.0386,3.0074,3.01,3.0346,3.0386,3.0426,3.0533,3.1036,3.1176,3.1276,3.157,3.1738,3.177,3.2024,3.2332,3.2701,3.2955,3.3187,3.3414,3.3414,3.3414,3.3414,3.3414,3.3414,3.328,3.2822,3.2452,3.2185,3.1952,3.141,3.1236,0.0,0.0,0.0,0.0,0.0,0.0,0.0,0.0,0.0,0.0,0.0,0.0,0.0,0.0,0.0,0.0,0.0,0.0,0.0,0.0,0.0,3.3334,3.2995,3.3102,3.3761,3.332,3.332,3.3761,3.3521,3.3414,3.3414,3.3414,3.3414,3.3414,3.3414,3.3414,3.3414,3.3414,3.3414,3.3414,3.3414,3.3414,3.3414,3.3414,3.3414,3.3414,2.0315,2.0228,2.14,0.0,0.0,2.0455,2.4799,2.0129,1.6759,1.8526,1.9407,2.0512,2.2266,2.2517,2.2711,2.3199,2.519,0.0,0.0,0.0,0.0,3.1189,3.1517,3.1557,3.1303,3.0969,3.0394,0.0,0.0,2.8561,2.7776,2.8018,2.8112,2.8112,2.8112,2.858,2.9366,3.0052,3.036,3.04,3.0346,3.0167,3.002,3.0306,3.056,3.0755,3.1102,3.1176,3.1276,3.157,3.1824,3.2038,3.2091,3.2465,3.2969,3.3009,3.3187,3.3414,3.3414,3.3414,3.3414,3.3414,3.3414,3.3387,3.328,3.3213,3.3093,3.2812,3.2527,3.2179,3.181,0.0,0.0,0.0,0.0,0.0,0.0,0.0,0.0,0.0,0.0,0.0,0.0,0.0,0.0,0.0,0.0,0.0,0.0,0.0,0.0,0.0,3.344,0.0,0.0,0.0,3.3534,3.3133,3.332,3.3414,3.3414,3.3414,3.3414,3.3414,3.3414,3.3414,3.3414,3.3414,3.3414,3.3414,3.3414,3.3414,3.3414,3.3414,3.3414,3.3414,2.2066,2.3803,0.0,0.0,0.0,0.0,2.6711,2.3007,2.0311,2.1532,2.2894,2.3805,2.3795,2.3858,2.4463,2.5781,2.6921,2.8105,2.946,3.0763,3.1303,3.1009,3.1436,0.0,3.1236,3.1236,3.0742,2.9713,0.0,2.9112,2.7978,2.8286,2.8259,2.7965,2.8286,2.8711,2.9285,2.9873,3.0047,2.9958,3.0074,3.0047,2.9953,3.0293,3.0587,3.0835,3.1116,3.133,3.1503,3.1797,3.1984,3.2158,3.2465,3.2746,3.3013,3.316,3.3307,3.3414,3.3414,3.3414,3.3414,3.3414,3.3414,3.3414,3.3414,3.3293,3.3146,3.3013,3.2795,3.242,3.1831,3.1122,0.0,0.0,0.0,0.0,0.0,0.0,0.0,0.0,0.0,0.0,0.0,0.0,0.0,0.0,0.0,0.0,0.0,0.0,3.2144,0.0,0.0,0.0,0.0,0.0,3.3507,3.3668,3.3494,3.3414,3.3414,3.3414,3.3414,3.3414,3.3414,3.3414,3.3414,3.3414,3.3414,3.3414,3.3414,3.3414,3.3414,3.3414,3.3414,3.3414,2.3879,2.7072,2.9906,0.0,2.8697,2.7287,2.8031,2.6684,2.5319,2.4646,2.6214,2.6892,2.5534,2.5506,2.6409,2.8452,2.8306,2.9023,3.1082,3.1169,3.1036,3.0808,3.1289,3.1463,3.1236,3.1517,3.1156,0.0,0.0,2.9744,2.8473,2.8551,2.839,2.8003,2.8417,2.8845,2.9202,2.9659,2.9726,2.9593,2.982,2.9913,2.9953,3.0293,3.0547,3.0742,3.1102,3.1383,3.1623,3.1984,3.2144,3.2278,3.2795,3.2973,3.312,3.3347,3.3414,3.3414,3.3414,3.3414,3.3414,3.3414,3.3414,3.3414,3.3414,3.324,3.3066,3.3066,3.2888,3.25,3.1912,3.1383,0.0,0.0,0.0,0.0,0.0,0.0,0.0,0.0,0.0,0.0,0.0,0.0,0.0,0.0,0.0,0.0,3.177,0.0,0.0,0.0,0.0,3.332,3.4028,0.0,3.3427,3.4122,3.3641,3.3414,3.3414,3.3414,3.3414,3.3414,3.3414,3.3414,3.3414,3.3414,3.3414,3.3414,3.3414,3.3414,3.3414,3.3414,3.3414,3.3414,2.628,2.7121,2.8111,3.0412,0.0,2.8208,3.0494,3.0897,3.0102,2.7745,2.7601,2.8559,3.0695,3.0972,3.108,3.1331,3.1006,3.0942,3.1176,3.0982,3.0822,3.0795,3.1102,3.1203,3.1176,3.1517,3.1403,0.0,0.0,3.0065,2.9396,2.8845,2.8724,2.8868,2.8698,2.9058,0.0,2.9619,2.9659,2.9873,2.99,2.9913,2.9953,3.0293,3.0426,3.052,3.1022,3.1203,3.1356,3.1917,3.2278,3.2567,3.2621,3.2946,3.3374,3.34,3.3414,3.3414,3.3414,3.3414,3.3414,3.3414,3.3414,3.3414,3.3414,3.3387,3.3374,3.3374,3.3146,3.2759,3.2171,3.2011,3.1891,0.0,0.0,0.0,0.0,0.0,0.0,0.0,0.0,0.0,0.0,0.0,0.0,0.0,3.052,0.0,0.0,0.0,0.0,3.2661,3.2902,3.3013,3.3106,3.328,3.3414,3.3494,3.344,3.3414,3.3414,3.3414,3.3414,3.3414,3.3414,3.3414,3.3414,3.3414,3.3414,3.3414,3.3414,3.3414,3.3414,3.3414,3.3414,3.3414,2.2645,2.3936,2.5265,2.6466,2.5777,2.5989,2.876,2.7855,2.7045,2.7533,2.9084,3.0544,3.1569,3.1517,3.1476,3.1698,3.1076,3.0782,3.0955,3.0702,3.0448,3.0274,3.0715,3.0889,3.0715,3.1169,3.1116,0.0,0.0,0.0,2.9486,2.9419,2.9366,2.9312,2.9553,2.9659,2.9686,3.01,3.0127,2.9913,2.9913,3.002,3.0194,3.036,3.052,3.0675,3.1076,3.1343,3.1557,3.1957,3.2291,3.2621,3.2795,3.308,3.3414,3.3414,3.3414,3.3414,3.3414,3.3414,3.3414,3.3414,3.3414,3.3414,3.3414,3.3414,3.3414,3.3414,3.332,3.312,3.2706,3.2492,3.238,0.0,0.0,0.0,0.0,0.0,0.0,0.0,0.0,0.0,0.0,0.0,0.0,0.0,0.0,0.0,0.0,0.0,0.0,3.2251,0.0,3.324,3.3253,3.336,3.3507,3.3694,3.3507,3.3414,3.3414,3.3414,3.3414,3.3414,3.3414,3.3414,3.3414,3.3414,3.3414,3.3414,3.3414,3.3414,3.3414,3.3414,3.3414,3.3414,2.0831,2.225,2.3468,2.3787,2.3648,2.4173,2.6275,2.4891,2.4256,2.607,2.8056,2.9517,3.0252,3.0788,3.1223,3.1517,3.0868,3.02,2.9726,2.9357,2.8782,2.7917,2.829,0.0,2.9584,2.9912,3.035,3.0788,3.0782,0.0,2.9873,2.9806,2.9726,2.9619,2.9998,3.0065,2.99,3.0341,3.0354,3.0047,3.0047,3.0167,3.04,3.04,3.0533,3.0688,3.0902,3.1209,3.1583,3.1877,3.2291,3.2755,3.2969,3.3173,3.3414,3.3414,3.3414,3.3414,3.3414,3.3414,3.3414,3.3414,3.3414,3.3414,3.3414,3.3414,3.3414,3.3414,3.3414,3.3347,3.3146,3.2915,3.2701,3.2607,0.0,0.0,0.0,0.0,0.0,0.0,0.0,0.0,0.0,0.0,0.0,0.0,0.0,0.0,0.0,0.0,0.0,0.0,0.0,0.0,3.339,3.3427,3.3574,3.3881,3.3561,3.3414,3.3414,3.3414,3.3414,3.3414,3.3414,3.3414,3.3414,3.3414,3.3414,3.3414,3.3414,3.3414,3.3414,3.3414,3.3414,3.3414,2.2845,2.326,2.3331,2.3649,2.368,2.3728,2.3728,2.3555,2.3412,2.3459,2.3459,2.445,2.6911,2.9322,3.0915,3.1162,3.0702,2.9488,2.7308,2.6569,2.5285,0.0,0.0,2.4509,2.7558,2.757,2.8899,3.1698,0.0,0.0,3.0755,2.99,2.9633,2.99,2.9619,2.9967,3.0742,3.0167,3.01,3.04,3.04,3.04,3.04,3.04,3.0413,3.0413,3.0413,3.0742,3.1276,3.157,3.23,3.2973,3.2973,3.3173,3.3414,3.3414,3.3414,3.3414,3.3414,3.3414,3.3414,3.3414,3.3414,3.3414,3.3414,3.3414,3.3414,3.3414,3.3414,3.3414,3.3414,3.3173,3.2929,3.2648,0.0,0.0,0.0,0.0,0.0,0.0,0.0,0.0,0.0,0.0,0.0,0.0,0.0,0.0,0.0,0.0,0.0,3.2567,3.2875,0.0,3.339,3.3427,3.3574,3.3881,3.3561,3.3414,3.3414,3.3414,3.3414,3.3414,3.3414,3.3414,3.3414,3.3414,3.3414,3.3414,3.3414,3.3414,3.3414,3.3414,3.3414,3.3414,1.792,1.8056,1.8024,1.8183,1.8191,1.8761,2.0559,1.9171,1.8579,2.0359,2.0431,2.0629,2.1412,2.3877,2.5573,0.0,2.5347,2.48,0.0,2.3917,2.3367,2.2703,2.4277,2.4859,2.4123,2.766,2.9069,2.831,0.0,0.0,3.0533,3.0007,2.994,3.0266,3.0172,3.0279,3.0533,3.0301,3.0319,3.0386,3.014,3.0181,3.04,3.04,3.04,3.0453,3.0808,3.1076,3.1303,3.1797,3.2326,3.2728,3.2728,3.3013,3.3414,3.3414,3.3414,3.3414,3.3414,3.3414,3.3414,3.3414,3.3414,3.3414,3.3414,3.3414,3.3414,3.3414,3.3414,3.3414,3.3414,3.3334,3.3173,3.2942,3.2919,0.0,0.0,0.0,0.0,0.0,0.0,0.0,0.0,3.1717,0.0,0.0,0.0,0.0,0.0,0.0,0.0,0.0,3.2919,0.0,3.3133,3.332,3.3467,3.3561,3.3454,3.3414,3.3414,3.3414,3.3414,3.3414,3.3414,3.3414,3.3414,3.3414,3.3414,3.3414,3.3414,3.3414,3.3414,3.3414,3.3414,3.3414,1.5479,1.5465,1.5506,1.5506,1.5506,1.6076,1.7723,1.6452,1.5932,1.7554,1.7601,1.7491,1.7491,1.9027,0.0,2.3071,2.2814,2.2231,2.1656,2.1336,2.1129,2.1129,2.2647,2.3652,2.4069,2.7326,0.0,2.8214,2.971,3.0346,3.0194,3.0007,3.002,3.0194,3.0194,3.0306,3.04,3.0293,3.0306,3.0386,3.0154,3.0194,3.0413,3.0533,3.0574,3.0568,3.0929,3.1209,3.145,3.181,3.2326,3.2741,3.2634,3.2915,3.3253,3.3253,3.3253,3.328,3.3387,3.3414,3.3414,3.3414,3.3414,3.3414,3.3414,3.3414,3.3414,3.3414,3.3414,3.3414,3.3414,3.3414,3.336,3.3173,3.3146,3.2973,3.2505,0.0,0.0,0.0,0.0,0.0,0.0,3.2198,0.0,0.0,0.0,0.0,0.0,0.0,0.0,3.2412,3.3066,0.0,3.3146,3.332,3.3414,3.3414,3.3414,3.3414,3.3414,3.3414,3.3414,3.3414,3.3414,3.3414,3.3414,3.3414,3.3414,3.3414,3.3414,3.3414,3.3414,3.3414,3.3414,3.3414,1.5208,1.5296,1.5398,1.5398,1.5398,1.5398,1.5398,1.5276,1.5181,1.5181,1.5181,1.5181,1.5181,1.5181,1.714,2.2011,2.2169,2.1214,1.9389,1.9057,1.8964,1.9141,1.9326,2.1585,2.6306,2.6732,2.8164,3.0728,3.0507,3.0226,2.9913,2.9913,2.9913,2.9913,2.9913,3.0087,3.0386,3.0047,3.0087,3.04,3.0386,3.0373,3.04,3.0648,3.0755,3.0742,3.0795,3.1156,3.1657,3.1698,3.226,3.2888,3.2621,3.2714,3.2893,3.2959,3.2973,3.304,3.3334,3.3414,3.3414,3.3414,3.3414,3.3414,3.3414,3.3414,3.3414,3.3414,3.3414,3.3414,3.3414,3.3414,3.3414,3.3414,3.3414,3.3307,3.3013,0.0,0.0,0.0,0.0,0.0,0.0,3.1984,3.2345,0.0,0.0,0.0,0.0,0.0,3.2166,3.2986,3.3267,3.3414,3.3414,3.3414,3.3414,3.3414,3.3414,3.3414,3.3414,3.3414,3.3414,3.3414,3.3414,3.3414,3.3414,3.3414,3.3414,3.3414,3.3414,3.3414,3.3414,3.3414,3.3414,3.3414,1.5187,1.5215,1.5235,1.5235,1.5235,1.5235,1.5235,1.5208,1.5181,1.5181,1.5181,1.5181,1.5181,1.5181,1.5704,1.6945,1.6962,1.7507,1.8883,1.8943,1.9697,2.159,2.3473,2.4191,2.3511,2.7199,2.9448,3.0127,3.006,2.998,2.9913,2.9913,2.9913,2.9913,2.9913,3.0087,3.0386,3.0047,3.0087,3.0386,3.0114,3.002,3.0047,3.0354,3.0327,3.0207,3.0875,3.1076,3.1076,3.1517,3.1858,3.2019,3.1952,3.1979,3.2152,3.2786,3.2973,3.304,3.3334,3.3414,3.3414,3.3414,3.3414,3.3414,3.3414,3.3414,3.3414,3.3414,3.3414,3.3414,3.3414,3.3414,3.3414,3.3414,3.3414,3.3307,3.3013,3.304,3.2973,0.0,3.2581,3.2554,3.2701,3.2581,3.2447,0.0,0.0,0.0,3.2781,3.2541,3.2688,3.3293,3.3374,3.3414,3.3414,3.3414,3.3414,3.3414,3.3414,3.3414,3.3414,3.3414,3.3414,3.3414,3.3414,3.3414,3.3414,3.3414,3.3414,3.3414,3.3414,3.3414,3.3414,3.3414,3.3414,3.3414,1.5181,1.5181,1.5181,1.5181,1.5181,1.5181,1.5181,1.5181,1.5181,1.5181,1.5181,1.5643,1.6752,1.6892,1.7351,1.8461,1.7538,1.7445,1.8824,1.9928,2.1636,2.4067,2.5491,2.6093,2.5912,2.8526,2.9913,2.9913,2.9913,2.9913,2.9913,2.9913,2.9913,2.9913,2.9913,3.0007,3.014,2.998,3.0007,3.014,2.998,2.9993,3.014,3.0346,3.0421,3.0581,3.1002,3.1209,3.1236,3.1617,3.1805,3.1837,3.1764,3.1757,3.1957,3.2438,3.2572,3.2666,3.3093,3.3213,3.3213,3.3213,3.3213,3.3187,3.3053,3.3013,3.3053,3.3187,3.3213,3.3253,3.3387,3.3414,3.3414,3.3414,3.3414,3.336,3.32,3.3066,3.2973,3.2973,3.2768,3.2661,3.2808,3.2688,3.2581,3.2505,3.2385,0.0,3.2919,3.2862,3.2946,3.34,3.3414,3.3414,3.3414,3.3414,3.3414,3.3414,3.3414,3.3414,3.3414,3.3414,3.3414,3.3414,3.3414,3.3414,3.3414,3.3414,3.3414,3.3414,3.3414,3.3414,3.3414,3.3414,3.3414,3.3414,1.5181,1.5181,1.5181,1.5181,1.5181,1.5181,1.5181,1.5181,1.5181,1.5181,1.5181,1.6151,1.8639,1.8917,1.99,2.2376,2.101,2.0021,2.0021,2.1912,2.4158,2.6649,2.6785,2.7747,2.9869,2.9967,2.998,2.998,2.998,2.9967,2.9913,2.9913,2.994,2.998,2.994,2.994,2.998,2.994,2.9913,2.9913,2.9913,3.01,3.0413,3.0453,3.0728,3.1169,3.1263,3.1423,3.161,3.1698,3.1837,3.1998,3.1744,3.1837,3.2038,3.2038,3.2038,3.2171,3.2808,3.2969,3.2969,3.2969,3.2969,3.2902,3.2648,3.2594,3.2661,3.2915,3.2969,3.3,3.3293,3.3347,3.3334,3.3293,3.336,3.336,3.3227,3.308,3.2973,3.2973,3.2768,3.2607,3.2661,3.2661,3.2755,3.2959,3.2795,3.2888,3.3387,3.3133,3.3106,3.34,3.3414,3.3414,3.3414,3.3414,3.3414,3.3414,3.3414,3.3414,3.3414,3.3414,3.3414,3.3414,3.3414,3.3414,3.3414,3.3414,3.3414,3.3414,3.3414,3.3414,3.3414,3.3414,3.3414,3.3414,1.5181,1.5181,1.5181,1.5181,1.5181,1.5181,1.5181,1.5181,1.5181,1.5181,1.5181,1.6151,1.8639,1.8917,2.0,2.2679,2.4232,2.5082,2.5082,2.54,2.674,2.9227,2.9317,2.9496,2.9869,3.0167,3.0333,3.0333,3.0333,3.0167,2.9913,2.9913,3.0047,3.0319,3.0034,3.006,3.0319,3.002,2.9913,2.9913,2.9913,3.01,3.0426,3.0635,3.0782,3.0929,3.1423,3.1463,3.133,3.1583,3.1751,3.173,3.1724,3.1751,3.1744,3.1744,3.1744,3.1912,3.25,3.2661,3.2661,3.2661,3.2661,3.2648,3.2607,3.2594,3.2607,3.2648,3.2661,3.2755,3.2986,3.3053,3.3009,3.2768,3.3093,3.3146,3.2412,3.2692,3.2973,3.2973,3.2768,3.2688,3.2942,3.2955,3.2982,3.2973,3.2982,3.3053,3.3387,3.3133,3.3106,3.34,3.3414,3.3414,3.3414,3.3414,3.3414,3.3414,3.3414,3.3414,3.3414,3.3414,3.3414,3.3414,3.3414,3.3414,3.3414,3.3414,3.3414,3.3414,3.3414,3.3414,3.3414,3.3414,3.3414,3.3414,1.5181,1.5181,1.5181,1.5181,1.5181,1.5181,1.5181,1.5181,1.569,1.7032,1.7211,1.8639,2.2408,2.2979,2.4066,2.6509,2.79,2.8635,2.8496,2.8287,2.8719,2.9869,2.9913,2.9993,3.0154,3.0333,3.04,3.04,3.04,3.0207,2.9913,3.0074,3.0266,3.04,3.0266,3.0279,3.0386,3.0047,2.9913,2.9927,3.0087,3.0327,3.0608,3.0742,3.0996,3.1276,3.1396,3.145,3.149,3.1671,3.1711,3.1711,3.1711,3.1711,3.1711,3.1711,3.1784,3.1957,3.2286,3.2474,3.2554,3.2393,3.2353,3.2313,3.2152,3.2126,3.2166,3.2326,3.2353,3.2398,3.2741,3.2795,3.2755,3.2621,3.2822,3.2853,3.2612,3.2728,3.2848,3.2959,3.2768,3.2648,3.2781,3.2795,3.2862,3.2973,3.2973,3.3106,3.34,3.328,3.328,3.3414,3.3414,3.3414,3.3414,3.3414,3.3414,3.3414,3.3414,3.3414,3.3414,3.3414,3.3414,3.3414,3.3414,3.3414,3.3414,3.3414,3.3414,3.3414,3.3414,3.3414,3.3414,3.3414,3.3414,3.3414,1.5181,1.5181,1.5181,1.5181,1.5181,1.5181,1.5181,1.569,1.6752,1.8639,1.9462,2.1519,2.5856,2.6545,2.7662,2.9994,3.0515,3.0662,3.0614,3.0287,3.0127,3.0127,3.0127,3.0261,3.06,3.0614,3.0614,3.0614,3.0533,3.0314,3.002,3.0181,3.0373,3.0507,3.044,3.044,3.0493,3.014,3.002,3.0034,3.0319,3.0614,3.0889,3.0889,3.1209,3.1684,3.141,3.1476,3.1711,3.1711,3.1711,3.1711,3.1711,3.1711,3.1711,3.1711,3.1824,3.1998,3.1998,3.2171,3.234,3.2064,3.1998,3.1944,3.1764,3.1764,3.1837,3.2051,3.2158,3.2278,3.2554,3.2594,3.2554,3.2407,3.2567,3.2701,3.2728,3.2701,3.2781,3.3009,3.2835,3.2728,3.2795,3.2795,3.2888,3.3066,3.308,3.3173,3.34,3.3414,3.3414,3.3414,3.3414,3.3414,3.3414,3.3414,3.3414,3.3414,3.3414,3.3414,3.3414,3.3414,3.3414,3.3414,3.3414,3.3414,3.3414,3.3414,3.3414,3.3414,3.3414,3.3414,3.3414,3.3414,3.3414,3.3414,1.5181,1.5181,1.5181,1.5181,1.5181,1.5181,1.5181,1.7165,1.8685,1.8871,2.1114,2.3706,2.6352,2.6697,2.7882,3.0843,3.0675,3.0608,3.1129,3.0889,3.0728,3.0728,3.0728,3.0862,3.1156,3.1156,3.1156,3.1156,3.0889,3.0608,3.0373,3.0074,3.0234,3.0755,3.052,3.056,3.0742,3.0493,3.0373,3.0373,3.04,3.0702,3.1196,3.1196,3.1396,3.1711,3.1684,3.1698,3.1711,3.1711,3.1711,3.1711,3.1711,3.1711,3.1711,3.1711,3.1724,3.1751,3.1751,3.1764,3.1778,3.1751,3.1751,3.1738,3.1724,3.1877,3.2078,3.2104,3.2367,3.2567,3.2594,3.2594,3.242,3.1872,3.246,3.2714,3.1925,3.2452,3.3009,3.2973,3.2959,3.3053,3.332,3.3347,3.336,3.3374,3.3374,3.3387,3.3414,3.3414,3.3414,3.3414,3.3414,3.3414,3.3414,3.3414,3.3414,3.3414,3.3414,3.3414,3.3414,3.3414,3.3414,3.3414,3.3414,3.3414,3.3414,3.3414,3.3414,3.3414,3.3414,3.3414,3.3414,3.3414,3.3414,3.3414,1.5181,1.5181,1.5181,1.5181,1.6479,1.7569,1.7726,1.9683,2.1816,2.3712,2.4734,2.6306,2.8959,2.9415,2.9915,3.0863,3.1089,3.1183,3.1223,3.1289,3.1169,3.0808,3.0795,3.0929,3.1176,3.1176,3.1176,3.1176,3.1116,3.0915,3.0635,3.0702,3.0849,3.1049,3.0942,3.0955,3.1036,3.0755,3.0621,3.0648,3.0822,3.1022,3.1203,3.1423,3.157,3.1711,3.1711,3.1711,3.1711,3.1711,3.1711,3.1711,3.1711,3.1711,3.1711,3.1711,3.1711,3.1711,3.1711,3.1711,3.1711,3.1711,3.181,3.1931,3.1931,3.2171,3.242,3.242,3.2514,3.2594,3.2594,3.2594,3.2527,3.23,3.2541,3.2701,3.2554,3.2772,3.3053,3.3227,3.324,3.3293,3.34,3.3414,3.3414,3.3414,3.3414,3.3414,3.3414,3.3414,3.3414,3.3414,3.3414,3.3414,3.3414,3.3414,3.3414,3.3414,3.3414,3.3414,3.3414,3.3414,3.3414,3.3414,3.3414,3.3414,3.3414,3.3414,3.3414,3.3414,3.3414,3.3414,3.3414,3.3414,3.3414,3.3414,1.5181,1.5181,1.5462,1.6245,1.7857,1.9371,2.029,2.2437,2.469,2.6806,2.7667,2.8816,3.0717,3.1102,3.1183,3.1076,3.1356,3.149,3.137,3.1557,3.1537,3.1089,3.1062,3.1156,3.1356,3.137,3.137,3.137,3.1276,3.1129,3.0929,3.1036,3.1142,3.1176,3.1176,3.1176,3.1209,3.1009,3.0929,3.0942,3.1142,3.1276,3.1383,3.1597,3.1711,3.1711,3.1711,3.1711,3.1711,3.1711,3.1711,3.1711,3.1711,3.1711,3.1711,3.1711,3.1778,3.181,3.181,3.1925,3.1965,3.1824,3.1957,3.2131,3.2225,3.2514,3.2728,3.2728,3.2808,3.2835,3.2741,3.2728,3.2701,3.2607,3.2674,3.2795,3.2946,3.3053,3.3187,3.3387,3.3414,3.3414,3.3414,3.3414,3.3414,3.3414,3.3414,3.3414,3.3414,3.3414,3.3414,3.3414,3.3414,3.3414,3.3414,3.3414,3.3414,3.3414,3.3414,3.3414,3.3414,3.3414,3.3414,3.3414,3.3414,3.3414,3.3414,3.3414,3.3414,3.3414,3.3414,3.3414,3.3414,3.3414,3.3414,3.3414,1.5181,1.5228,1.6011,1.8453,1.9163,2.0176,2.2656,2.5375,2.7145,2.7145,2.9517,3.1176,3.1176,3.1176,3.1343,3.1684,3.1396,3.1356,3.1698,3.1711,3.1711,3.1711,3.1711,3.1711,3.1711,3.1711,3.1711,3.1711,3.137,3.1176,3.1223,3.0929,3.0955,3.1176,3.1176,3.1176,3.1176,3.1176,3.1176,3.1176,3.1176,3.141,3.1711,3.1711,3.1711,3.1711,3.1711,3.1711,3.1711,3.1711,3.1711,3.1711,3.1711,3.1711,3.1711,3.1724,3.1877,3.2104,3.2104,3.2367,3.2527,3.2185,3.2104,3.2185,3.2527,3.2822,3.2986,3.2986,3.3213,3.332,3.304,3.2986,3.2942,3.2648,3.2848,3.2986,3.2986,3.3227,3.3414,3.3414,3.3414,3.3414,3.3414,3.3414,3.3414,3.3414,3.3414,3.3414,3.3414,3.3414,3.3414,3.3414,3.3414,3.3414,3.3414,3.3414,3.3414,3.3414,3.3414,3.3414,3.3414,3.3414,3.3414,3.3414,3.3414,3.3414,3.3414,3.3414,3.3414,3.3414,3.3414,3.3414,3.3414,3.3414,3.3414,3.3414,1.5181,1.6612,1.8083,1.904,2.2131,2.4857,2.6007,2.8162,2.9847,3.0282,3.082,3.1303,3.1517,3.153,3.157,3.1711,3.1583,3.157,3.1711,3.1711,3.1711,3.1711,3.1711,3.1711,3.1711,3.1711,3.1711,3.1711,3.1583,3.153,3.153,3.145,3.145,3.153,3.153,3.153,3.153,3.153,3.153,3.153,3.153,3.1597,3.1711,3.1711,3.1711,3.1711,3.1711,3.1711,3.1711,3.1711,3.1711,3.1711,3.1711,3.1711,3.1751,3.1917,3.2038,3.2144,3.2407,3.2527,3.2567,3.2487,3.2572,3.2746,3.2875,3.3066,3.328,3.328,3.3347,3.3387,3.3293,3.328,3.3253,3.316,3.3227,3.328,3.328,3.336,3.3414,3.3414,3.3414,3.3414,3.3414,3.3414,3.3414,3.3414,3.3414,3.3414,3.3414,3.3414,3.3414,3.3414,3.3414,3.3414,3.3414,3.3414,3.3414,3.3414,3.3414,3.3414,3.3414,3.3414,3.3414,3.3414,3.3414,3.3414,3.3414,3.3414,3.3414,3.3414,3.3414,3.3414,3.3414,3.3414,3.3414,3.3414,1.5181,1.7211,1.9294,2.0562,2.4126,2.7329,2.8748,3.022,3.1263,3.1671,3.1517,3.1463,3.1698,3.1711,3.1711,3.1711,3.1711,3.1711,3.1711,3.1711,3.1711,3.1711,3.1711,3.1711,3.1711,3.1711,3.1711,3.1711,3.1711,3.1711,3.1711,3.1711,3.1711,3.1711,3.1711,3.1711,3.1711,3.1711,3.1711,3.1711,3.1711,3.1711,3.1711,3.1711,3.1711,3.1711,3.1711,3.1711,3.1711,3.1711,3.1711,3.1738,3.1797,3.1837,3.1904,3.2198,3.2358,3.2492,3.2714,3.2848,3.2942,3.2942,3.2982,3.3013,3.312,3.328,3.3414,3.3414,3.3414,3.3414,3.3414,3.3414,3.3414,3.3414,3.3414,3.3414,3.3414,3.3414,3.3414,3.3414,3.3414,3.3414,3.3414,3.3414,3.3414,3.3414,3.3414,3.3414,3.3414,3.3414,3.3414,3.3414,3.3414,3.3414,3.3414,3.3414,3.3414,3.3414,3.3414,3.3414,3.3414,3.3414,3.3414,3.3414,3.3414,3.3414,3.3414,3.3414,3.3414,3.3414,3.3414,3.3414,3.3414,3.3414,3.3414,3.3414,1.5181,1.7351,2.0046,2.26,2.5479,2.828,3.0835,3.149,3.1711,3.1711,3.1711,3.1711,3.1711,3.1711,3.1711,3.1711,3.1711,3.1711,3.1711,3.1711,3.1711,3.1711,3.1711,3.1711,3.1711,3.1711,3.1711,3.1711,3.1711,3.1711,3.1711,3.1711,3.1711,3.1711,3.1711,3.1711,3.1711,3.1711,3.1711,3.1711,3.1711,3.1711,3.1711,3.1711,3.1711,3.1711,3.1711,3.1711,3.1711,3.1711,3.1711,3.1764,3.2011,3.2104,3.2171,3.2541,3.2822,3.2986,3.3013,3.3213,3.3414,3.3414,3.3213,3.3093,3.3347,3.3414,3.3414,3.3414,3.3414,3.3414,3.3414,3.3414,3.3414,3.3414,3.3414,3.3414,3.3414,3.3414,3.3414,3.3414,3.3414,3.3414,3.3414,3.3414,3.3414,3.3414,3.3414,3.3414,3.3414,3.3414,3.3414,3.3414,3.3414,3.3414,3.3414,3.3414,3.3414,3.3414,3.3414,3.3414,3.3414,3.3414,3.3414,3.3414,3.3414,3.3414,3.3414,3.3414,3.3414,3.3414,3.3414,3.3414,3.3414,3.3414,3.3414,3.3414,1.5181,1.874,2.2076,2.3128,2.7004,3.0352,3.1443,3.1623,3.1711,3.1711,3.1711,3.1711,3.1711,3.1711,3.1711,3.1711,3.1711,3.1711,3.1711,3.1711,3.1711,3.1711,3.1711,3.1711,3.1711,3.1711,3.1711,3.1711,3.1711,3.1711,3.1711,3.1711,3.1711,3.1711,3.1711,3.1711,3.1711,3.1711,3.1711,3.1711,3.1711,3.1711,3.1711,3.1711,3.1711,3.1711,3.1711,3.1711,3.1711,3.1711,3.1711,3.1764,3.2011,3.2104,3.2211,3.2732,3.2933,3.3026,3.3253,3.336,3.3414,3.3414,3.336,3.3334,3.34,3.3414,3.3414,3.3414,3.3414,3.3414,3.3414,3.3414,3.3414,3.3414,3.3414,3.3414,3.3414,3.3414,3.3414,3.3414,3.3414,3.3414,3.3414,3.3414,3.3414,3.3414,3.3414,3.3414,3.3414,3.3414,3.3414,3.3414,3.3414,3.3414,3.3414,3.3414,3.3414,3.3414,3.3414,3.3414,3.3414,3.3414,3.3414,3.3414,3.3414,3.3414,3.3414,3.3414,3.3414,3.3414,3.3414,3.3414,3.3414,3.3414,3.3414,3.3414,1.5181,1.8255,2.1422,2.3115,2.6583,2.9713,3.1455,3.1711,3.1711,3.1711,3.1711,3.1711,3.1711,3.1711,3.1711,3.1711,3.1711,3.1711,3.1711,3.1711,3.1711,3.1711,3.1711,3.1711,3.1711,3.1711,3.1711,3.1711,3.1711,3.1711,3.1711,3.1711,3.1711,3.1711,3.1711,3.1711,3.1711,3.1711,3.1711,3.1711,3.1711,3.1711,3.1711,3.1711,3.1711,3.1711,3.1711,3.1711,3.1738,3.1824,3.1877,3.1957,3.2385,3.2519,3.2612,3.3053,3.3187,3.3213,3.3374,3.3414,3.3414,3.3414,3.3414,3.3414,3.3414,3.3414,3.3414,3.3414,3.3414,3.3414,3.3414,3.3414,3.3414,3.3414,3.3414,3.3414,3.3414,3.3414,3.3414,3.3414,3.3414,3.3414,3.3414,3.3414,3.3414,3.3414,3.3414,3.3414,3.3414,3.3414,3.3414,3.3414,3.3414,3.3414,3.3414,3.3414,3.3414,3.3414,3.3414,3.3414,3.3414,3.3414,3.3414,3.3414,3.3414,3.3414,3.3414,3.3414,3.3414,3.3414,3.3414,3.3414,3.3414,3.3414,3.3414,3.3414,1.5181,1.7303,1.987,2.2332,2.5257,2.8151,3.0648,3.1426,3.1711,3.1711,3.1711,3.1711,3.1711,3.1711,3.1711,3.1711,3.1711,3.1711,3.1711,3.1711,3.1711,3.1711,3.1711,3.1711,3.1711,3.1711,3.1711,3.1711,3.1711,3.1711,3.1711,3.1711,3.1711,3.1711,3.1711,3.1711,3.1711,3.1711,3.1711,3.1711,3.1711,3.1711,3.1711,3.1711,3.1711,3.1711,3.1711,3.1751,3.1784,3.2078,3.2185,3.2265,3.2812,3.2973,3.304,3.332,3.3414,3.3414,3.3414,3.3414,3.3414,3.3414,3.3414,3.3414,3.3414,3.3414,3.3414,3.3414,3.3414,3.3414,3.3414,3.3414,3.3414,3.3414,3.3414,3.3414,3.3414,3.3414,3.3414,3.3414,3.3414,3.3414,3.3414,3.3414,3.3414,3.3414,3.3414,3.3414,3.3414,3.3414,3.3414,3.3414,3.3414,3.3414,3.3414,3.3414,3.3414,3.3414,3.3414,3.3414,3.3414,3.3414,3.3414,3.3414,3.3414,3.3414,3.3414,3.3414,3.3414,3.3414,3.3414,3.3414,3.3414,3.3414,3.3414,3.3414,1.5181,1.7303,1.9303,1.9911,2.4071,2.7522,2.8224,3.0258,3.1711,3.1711,3.1711,3.1711,3.1711,3.1711,3.1711,3.1711,3.1711,3.1711,3.1711,3.1711,3.1711,3.1711,3.1711,3.1711,3.1711,3.1711,3.1711,3.1711,3.1711,3.1711,3.1711,3.1711,3.1711,3.1711,3.1711,3.1711,3.1711,3.1711,3.1711,3.1711,3.1711,3.1711,3.1711,3.1711,3.1711,3.1711,3.1711,3.1837,3.2091,3.2433,3.2541,3.2594,3.2929,3.2973,3.304,3.332,3.3414,3.3414,3.3414,3.3414,3.3414,3.3414,3.3414,3.3414,3.3414,3.3414,3.3414,3.3414,3.3414,3.3414,3.3414,3.3414,3.3414,3.3414,3.3414,3.3414,3.3414,3.3414,3.3414,3.3414,3.3414,3.3414,3.3414,3.3414,3.3414,3.3414,3.3414,3.3414,3.3414,3.3414,3.3414,3.3414,3.3414,3.3414,3.3414,3.3414,3.3414,3.3414,3.3414,3.3414,3.3414,3.3414,3.3414,3.3414,3.3414,3.3414,3.3414,3.3414,3.3414,3.3414,3.3414,3.3414,3.3414,3.3414,3.3414,3.3414,1.5181,1.6187,1.7567,1.9204,2.1494,2.4156,2.7301,2.8799,3.0067,3.1521,3.1711,3.1711,3.1711,3.1711,3.1711,3.1711,3.1711,3.1711,3.1711,3.1711,3.1711,3.1711,3.1711,3.1711,3.1711,3.1711,3.1711,3.1711,3.1711,3.1711,3.1711,3.1711,3.1711,3.1711,3.1711,3.1711,3.1711,3.1711,3.1711,3.1711,3.1711,3.1711,3.1711,3.1711,3.1711,3.1738,3.1851,3.1998,3.2171,3.2688,3.2835,3.2888,3.3133,3.3213,3.324,3.3374,3.3414,3.3414,3.3414,3.3414,3.3414,3.3414,3.3414,3.3414,3.3414,3.3414,3.3414,3.3414,3.3414,3.3414,3.3414,3.3414,3.3414,3.3414,3.3414,3.3414,3.3414,3.3414,3.3414,3.3414,3.3414,3.3414,3.3414,3.3414,3.3414,3.3414,3.3414,3.3414,3.3414,3.3414,3.3414,3.3414,3.3414,3.3414,3.3414,3.3414,3.3414,3.3414,3.3414,3.3414,3.3414,3.3414,3.3414,3.3414,3.3414,3.3414,3.3414,3.3414,3.3414,3.3414,3.3414,3.3414,3.3414,3.3414,3.3414,3.3414]},{"header":{"parameterUnit":"m.s-1","parameterCategory":1,"la1":30.6,"la2":28.766,"lo1":-90.7593,"lo2":-88.6598,"dx":0.0162,"dy":0.0183,"nx":116,"ny":114,"refTime":"2022-11-09T18:00:00:Z","depth":0,"parameterNumber":3,"parameterNumberName":"V-component_of_WINDS"},"data":[0.0,0.0,0.0,0.0,0.0,0.0,0.0,0.0,0.0,0.0,0.0,0.0,0.0,0.0,0.0,0.0,0.0,0.0,0.0,0.0,0.0,0.0,0.0,0.0,0.0,0.0,0.0,0.0,0.0,0.0,0.0,0.0,0.0,0.0,0.0,0.0,0.0,0.0,0.0,0.0,0.0,0.0,0.0,0.0,0.0,0.0,0.0,0.0,0.0,0.0,0.0,0.0,0.0,0.0,0.0,0.0,0.0,0.0,0.0,0.0,0.0,0.0,0.0,0.0,0.0,0.0,0.0,0.0,0.0,0.0,0.0,0.0,0.0,0.0,0.0,0.0,0.0,0.0,0.0,0.0,0.0,0.0,0.0,0.0,0.0,0.0,0.0,0.0,0.0,0.0,0.0,0.0,0.0,0.0,0.0,0.0,0.0,0.0,0.0,0.0,0.0,0.0,0.0,0.0,0.0,0.0,0.0,0.0,0.0,0.0,0.0,0.0,0.0,0.0,0.0,0.0,0.0,0.0,0.0,0.0,0.0,0.0,0.0,0.0,0.0,0.0,0.0,0.0,0.0,0.0,0.0,0.0,0.0,0.0,0.0,0.0,0.0,0.0,0.0,0.0,0.0,0.0,0.0,0.0,0.0,0.0,0.0,0.0,0.0,0.0,0.0,0.0,0.0,0.0,0.0,0.0,0.0,0.0,0.0,0.0,0.0,0.0,0.0,0.0,0.0,0.0,0.0,0.0,0.0,0.0,0.0,0.0,0.0,0.0,0.0,0.0,0.0,0.0,0.0,0.0,0.0,0.0,0.0,0.0,0.0,0.0,0.0,0.0,0.0,0.0,0.0,0.0,0.0,0.0,0.0,0.0,0.0,0.0,0.0,0.0,0.0,0.0,0.0,0.0,0.0,0.0,0.0,0.0,0.0,0.0,0.0,0.0,0.0,0.0,0.0,0.0,0.0,0.0,0.0,0.0,0.0,0.0,0.0,0.0,0.0,0.0,0.0,0.0,0.0,0.0,0.0,0.0,0.0,0.0,0.0,0.0,0.0,0.0,0.0,0.0,0.0,0.0,0.0,0.0,0.0,0.0,0.0,0.0,0.0,0.0,0.0,0.0,0.0,0.0,0.0,0.0,0.0,0.0,0.0,0.0,0.0,0.0,0.0,0.0,0.0,0.0,0.0,0.0,0.0,0.0,0.0,0.0,0.0,0.0,0.0,0.0,0.0,0.0,0.0,0.0,0.0,0.0,0.0,0.0,0.0,0.0,0.0,0.0,0.0,0.0,0.0,0.0,0.0,0.0,0.0,0.0,0.0,0.0,0.0,0.0,0.0,0.0,0.0,0.0,0.0,0.0,0.0,0.0,0.0,0.0,0.0,0.0,0.0,0.0,0.0,0.0,0.0,0.0,0.0,0.0,0.0,0.0,0.0,0.0,0.0,0.0,0.0,0.0,0.0,0.0,0.0,0.0,0.0,0.0,0.0,0.0,0.0,0.0,0.0,0.0,0.0,0.0,0.0,0.0,0.0,0.0,0.0,0.0,0.0,0.0,0.0,0.0,0.0,0.0,0.0,0.0,0.0,0.0,0.0,0.0,0.0,0.0,0.0,0.0,0.0,0.0,0.0,0.0,0.0,0.0,0.0,0.0,0.0,0.0,0.0,0.0,0.0,0.0,0.0,0.0,0.0,0.0,0.0,0.0,0.0,0.0,0.0,0.0,0.0,0.0,0.0,0.0,0.0,0.0,0.0,0.0,0.0,0.0,0.0,0.0,0.0,0.0,0.0,0.0,0.0,0.0,0.0,0.0,0.0,0.0,0.0,0.0,0.0,0.0,0.0,0.0,0.0,0.0,0.0,0.0,0.0,0.0,0.0,0.0,0.0,0.0,0.0,0.0,0.0,0.0,0.0,0.0,0.0,0.0,0.0,0.0,0.0,0.0,0.0,0.0,0.0,0.0,0.0,0.0,0.0,0.0,0.0,0.0,0.0,0.0,0.0,0.0,0.0,0.0,0.0,0.0,0.0,0.0,0.0,0.0,0.0,0.0,0.0,0.0,0.0,0.0,0.0,0.0,0.0,0.0,0.0,0.0,0.0,0.0,0.0,0.0,0.0,0.0,0.0,0.0,0.0,0.0,0.0,0.0,0.0,0.0,0.0,0.0,0.0,0.0,0.0,0.0,0.0,0.0,0.0,0.0,0.0,0.0,0.0,0.0,0.0,0.0,0.0,0.0,0.0,0.0,0.0,0.0,0.0,0.0,0.0,0.0,0.0,0.0,0.0,0.0,0.0,0.0,0.0,0.0,0.0,0.0,0.0,0.0,0.0,0.0,0.0,0.0,0.0,0.0,0.0,0.0,0.0,0.0,0.0,0.0,0.0,0.0,0.0,0.0,0.0,0.0,0.0,0.0,0.0,0.0,0.0,0.0,0.0,0.0,0.0,0.0,0.0,0.0,0.0,0.0,0.0,0.0,0.0,0.0,0.0,0.0,0.0,0.0,0.0,0.0,0.0,0.0,0.0,0.0,0.0,0.0,0.0,0.0,0.0,0.0,0.0,0.0,0.0,0.0,0.0,0.0,0.0,0.0,0.0,0.0,0.0,0.0,0.0,0.0,0.0,0.0,0.0,0.0,0.0,0.0,0.0,0.0,0.0,0.0,0.0,0.0,0.0,0.0,0.0,0.0,0.0,0.0,0.0,0.0,0.0,0.0,0.0,0.0,0.0,0.0,0.0,0.0,0.0,0.0,0.0,0.0,0.0,0.0,0.0,0.0,0.0,0.0,0.0,0.0,0.0,0.0,0.0,0.0,0.0,0.0,0.0,0.0,0.0,0.0,0.0,0.0,0.0,0.0,0.0,0.0,0.0,0.0,0.0,0.0,0.0,0.0,0.0,0.0,0.0,0.0,0.0,0.0,0.0,0.0,0.0,0.0,0.0,0.0,0.0,0.0,0.0,0.0,0.0,0.0,0.0,0.0,0.0,0.0,0.0,0.0,0.0,0.0,0.0,0.0,0.0,0.0,0.0,0.0,0.0,0.0,0.0,0.0,0.0,0.0,0.0,0.0,0.0,0.0,0.0,0.0,0.0,0.0,0.0,0.0,0.0,0.0,0.0,0.0,0.0,0.0,0.0,0.0,0.0,0.0,0.0,0.0,0.0,0.0,0.0,0.0,0.0,0.0,0.0,0.0,0.0,0.0,0.0,0.0,0.0,0.0,0.0,0.0,0.0,0.0,0.0,0.0,0.0,0.0,0.0,0.0,0.0,0.0,0.0,0.0,0.0,0.0,0.0,0.0,0.0,0.0,0.0,0.0,0.0,0.0,0.0,0.0,0.0,0.0,0.0,0.0,0.0,0.0,0.0,0.0,0.0,0.0,0.0,0.0,0.0,0.0,0.0,0.0,0.0,0.0,0.0,0.0,0.0,0.0,0.0,0.0,0.0,0.0,0.0,0.0,0.0,0.0,0.0,0.0,0.0,0.0,0.0,0.0,0.0,0.0,0.0,0.0,0.0,0.0,0.0,0.0,0.0,0.0,0.0,0.0,0.0,0.0,0.0,0.0,0.0,0.0,0.0,0.0,0.0,0.0,0.0,0.0,0.0,0.0,0.0,0.0,0.0,0.0,0.0,0.0,0.0,0.0,0.0,0.0,0.0,0.0,0.0,0.0,0.0,0.0,0.0,0.0,0.0,0.0,0.0,0.0,0.0,0.0,0.0,0.0,0.0,0.0,0.0,0.0,0.0,0.0,0.0,0.0,0.0,0.0,0.0,0.0,0.0,0.0,0.0,0.0,0.0,0.0,0.0,0.0,0.0,0.0,0.0,0.0,0.0,0.0,0.0,0.0,0.0,0.0,0.0,0.0,0.0,0.0,0.0,0.0,0.0,0.0,0.0,0.0,0.0,0.0,0.0,0.0,0.0,0.0,0.0,0.0,0.0,0.0,0.0,0.0,0.0,0.0,0.0,0.0,0.0,0.0,0.0,0.0,0.0,0.0,0.0,0.0,0.0,0.0,0.0,0.0,0.0,0.0,0.0,0.0,0.0,0.0,0.0,0.0,0.0,0.0,0.0,0.0,0.0,0.0,0.0,0.0,0.0,0.0,0.0,0.0,0.0,0.0,0.0,0.0,0.0,0.0,0.0,0.0,0.0,0.0,0.0,0.0,0.0,0.0,0.0,0.0,0.0,0.0,0.0,0.0,0.0,0.0,0.0,0.0,0.0,0.0,0.0,0.0,0.0,0.0,0.0,0.0,0.0,0.0,0.0,0.0,0.0,0.0,0.0,0.0,0.0,0.0,0.0,0.0,0.0,0.0,0.0,0.0,0.0,0.0,0.0,0.0,0.0,0.0,0.0,0.0,0.0,0.0,0.0,0.0,0.0,0.0,0.0,0.0,0.0,0.0,0.0,0.0,0.0,0.0,0.0,0.0,0.0,0.0,0.0,0.0,0.0,0.0,0.0,0.0,0.0,0.0,0.0,0.0,0.0,0.0,0.0,0.0,0.0,0.0,0.0,0.0,0.0,0.0,0.0,0.0,0.0,0.0,0.0,0.0,0.0,0.0,0.0,0.0,0.0,0.0,0.0,0.0,0.0,0.0,0.0,0.0,0.0,0.0,0.0,0.0,0.0,0.0,0.0,0.0,0.0,0.0,0.0,0.0,0.0,0.0,0.0,0.0,0.0,0.0,0.0,0.0,0.0,0.0,0.0,0.0,0.0,0.0,0.0,0.0,0.0,0.0,0.0,0.0,0.0,0.0,0.0,0.0,0.0,0.0,0.0,0.0,0.0,0.0,0.0,0.0,0.0,0.0,0.0,0.0,0.0,0.0,0.0,0.0,0.0,0.0,0.0,0.0,0.0,0.0,0.0,0.0,0.0,0.0,0.0,0.0,0.0,0.0,0.0,0.0,0.0,0.0,0.0,0.0,0.0,0.0,0.0,0.0,0.0,0.0,0.0,0.0,0.0,0.0,0.0,0.0,0.0,0.0,0.0,0.0,0.0,0.0,0.0,0.0,0.0,0.0,0.0,0.0,0.0,0.0,0.0,0.0,0.0,0.0,0.0,0.0,0.0,0.0,0.0,0.0,0.0,0.0,0.0,0.0,0.0,0.0,0.0,0.0,0.0,0.0,0.0,0.0,0.0,0.0,0.0,0.0,0.0,0.0,0.0,0.0,0.0,0.0,0.0,0.0,0.0,0.0,0.0,0.0,0.0,0.0,0.0,0.0,0.0,0.0,0.0,0.0,0.0,0.0,0.0,0.0,0.0,0.0,0.0,0.0,0.0,0.0,0.0,0.0,0.0,0.0,0.0,0.0,0.0,0.0,0.0,0.0,0.0,0.0,0.0,0.0,0.0,0.0,0.0,0.0,0.0,0.0,0.0,0.0,0.0,0.0,0.0,0.0,0.0,0.0,0.0,0.0,0.0,0.0,0.0,0.0,0.0,0.0,0.0,0.0,0.0,0.0,0.0,0.0,0.0,0.0,0.0,0.0,0.0,0.0,0.0,0.0,0.0,0.0,0.0,0.0,0.0,0.0,0.0,0.0,0.0,0.0,0.0,0.0,0.0,0.0,0.0,0.0,0.0,0.0,0.0,0.0,0.0,0.0,0.0,0.0,0.0,0.0,0.0,0.0,0.0,0.0,0.0,0.0,0.0,0.0,0.0,0.0,0.0,0.0,0.0,0.0,0.0,0.0,0.0,0.0,0.0,0.0,0.0,0.0,0.0,0.0,0.0,0.0,0.0,0.0,0.0,0.0,0.0,0.0,0.0,0.0,0.0,0.0,0.0,0.0,0.0,0.0,0.0,0.0,0.0,0.0,0.0,0.0,0.0,0.0,0.0,0.0,0.0,0.0,0.0,0.0,0.0,0.0,0.0,0.0,0.0,0.0,0.0,0.0,0.0,0.0,0.0,0.0,0.0,0.0,0.0,0.0,0.0,0.0,0.0,0.0,0.0,0.0,0.0,0.0,0.0,0.0,0.0,0.0,0.0,0.0,0.0,0.0,0.0,0.0,0.0,0.0,0.0,0.0,0.0,0.0,0.0,0.0,0.0,0.0,0.0,0.0,0.0,0.0,0.0,0.0,0.0,0.0,0.0,0.0,0.0,0.0,4.9918,4.8714,0.0,0.0,0.0,0.0,0.0,0.0,0.0,0.0,0.0,0.0,0.0,0.0,0.0,0.0,0.0,0.0,0.0,0.0,0.0,0.0,0.0,0.0,0.0,3.7854,3.844,3.9337,3.9021,3.8936,3.9356,0.0,0.0,0.0,0.0,0.0,3.8273,3.8278,3.8671,3.9567,3.9867,4.0632,4.1847,4.1243,4.0025,3.835,0.0,0.0,0.0,0.0,0.0,0.0,0.0,0.0,0.0,0.0,0.0,0.0,0.0,0.0,0.0,0.0,0.0,0.0,0.0,0.0,0.0,0.0,0.0,0.0,0.0,0.0,0.0,0.0,0.0,0.0,0.0,0.0,0.0,0.0,0.0,0.0,0.0,0.0,0.0,0.0,0.0,0.0,0.0,0.0,0.0,0.0,0.0,0.0,0.0,0.0,0.0,0.0,0.0,0.0,0.0,0.0,0.0,0.0,0.0,0.0,0.0,0.0,0.0,0.0,0.0,0.0,0.0,0.0,0.0,0.0,5.2416,5.1217,0.0,0.0,0.0,0.0,0.0,0.0,0.0,0.0,0.0,0.0,0.0,0.0,0.0,0.0,0.0,0.0,0.0,0.0,0.0,0.0,0.0,3.7381,3.8553,3.936,4.0244,4.1401,4.0733,4.0602,4.1468,4.0066,0.0,0.0,3.9633,3.9253,3.9253,4.0113,4.0965,4.1807,4.2975,4.3828,4.447,4.6586,4.5506,4.1818,4.0747,0.0,0.0,0.0,0.0,0.0,0.0,0.0,0.0,0.0,0.0,0.0,0.0,0.0,0.0,0.0,0.0,0.0,0.0,0.0,0.0,0.0,0.0,0.0,0.0,0.0,0.0,0.0,0.0,0.0,0.0,0.0,0.0,0.0,0.0,0.0,0.0,0.0,0.0,0.0,0.0,0.0,0.0,0.0,0.0,0.0,0.0,0.0,0.0,0.0,0.0,0.0,0.0,0.0,0.0,0.0,0.0,0.0,0.0,0.0,0.0,0.0,0.0,0.0,5.8978,5.9445,5.9302,5.9302,5.9294,5.9149,5.5622,5.4464,5.4854,5.2973,0.0,0.0,0.0,0.0,0.0,0.0,0.0,0.0,0.0,0.0,0.0,0.0,0.0,0.0,0.0,0.0,0.0,0.0,0.0,3.7617,3.9961,4.0415,4.1459,4.3641,4.3288,4.3205,4.3967,4.3313,4.2963,4.3079,4.3035,4.3006,4.3006,4.3826,4.4673,4.5396,4.8245,4.967,4.9707,5.0053,4.9703,4.8737,4.5639,4.3705,4.2737,0.0,0.0,0.0,0.0,0.0,0.0,0.0,0.0,0.0,0.0,0.0,0.0,0.0,0.0,0.0,0.0,0.0,0.0,0.0,0.0,0.0,0.0,0.0,0.0,0.0,0.0,0.0,0.0,0.0,0.0,0.0,0.0,0.0,0.0,0.0,0.0,0.0,0.0,0.0,0.0,0.0,5.2859,5.2868,0.0,0.0,0.0,0.0,0.0,0.0,0.0,0.0,0.0,0.0,0.0,0.0,0.0,5.8866,5.9758,6.13,6.1703,6.1019,6.3275,6.4004,6.3333,6.3259,6.3574,6.4058,6.2237,0.0,5.6498,5.6228,0.0,0.0,0.0,0.0,0.0,0.0,0.0,0.0,0.0,0.0,0.0,0.0,0.0,0.0,0.0,0.0,0.0,0.0,0.0,0.0,0.0,4.3275,4.5117,4.6733,4.6581,4.6539,4.6843,4.5703,4.4994,4.4994,4.5111,4.5156,4.5156,4.6436,4.7858,4.9465,5.1855,5.2687,5.2125,5.2631,5.2502,5.1815,5.0054,4.7931,4.562,4.4862,0.0,0.0,0.0,0.0,0.0,0.0,0.0,0.0,0.0,0.0,0.0,0.0,0.0,0.0,0.0,0.0,0.0,0.0,0.0,0.0,0.0,0.0,0.0,0.0,0.0,0.0,0.0,0.0,0.0,0.0,0.0,0.0,0.0,0.0,0.0,0.0,0.0,0.0,0.0,5.506,5.5147,5.5569,5.49,5.4189,0.0,0.0,0.0,0.0,0.0,0.0,0.0,0.0,0.0,6.0664,6.152,6.2328,6.316,6.431,6.4714,6.4383,6.5925,6.6439,6.6109,6.6108,6.5733,6.5149,6.4976,6.2824,5.9459,5.9555,5.9095,5.8204,0.0,0.0,0.0,0.0,5.4837,5.4972,0.0,0.0,0.0,0.0,0.0,0.0,0.0,0.0,0.0,0.0,0.0,0.0,4.3487,4.6242,4.8534,4.9687,4.9511,4.9315,4.9336,4.7885,4.6957,4.6783,4.6811,4.6865,4.6911,4.8641,5.063,5.2756,5.4254,5.4573,5.3857,5.4511,5.4472,5.3846,5.3533,5.1611,4.8573,4.8175,4.6391,4.3759,0.0,0.0,0.0,0.0,0.0,0.0,0.0,0.0,0.0,0.0,0.0,0.0,0.0,0.0,0.0,0.0,0.0,0.0,0.0,0.0,0.0,0.0,0.0,0.0,0.0,0.0,0.0,0.0,0.0,0.0,0.0,0.0,0.0,0.0,0.0,0.0,0.0,5.7589,5.7618,5.7969,5.7686,5.7099,0.0,0.0,0.0,0.0,0.0,0.0,6.1618,6.2401,6.3135,6.371,6.4567,6.5314,6.5925,6.6512,6.6696,6.6512,6.7333,6.759,6.7407,6.7627,6.7026,6.5843,6.6276,6.5037,6.2706,6.2194,6.1303,6.0202,5.9064,5.8202,5.7645,5.7645,5.7645,5.7881,0.0,0.0,0.0,0.0,0.0,0.0,0.0,0.0,0.0,0.0,0.0,4.6068,4.6964,4.8721,5.0492,5.2109,5.1537,5.1042,5.0991,5.007,4.9223,4.8618,4.8466,4.846,4.8586,5.0786,5.2814,5.4579,5.5302,5.5604,5.5593,5.5631,5.5631,5.5549,5.5538,5.4346,5.2209,5.0299,4.9098,4.8175,4.5099,0.0,0.0,0.0,0.0,0.0,0.0,0.0,0.0,0.0,0.0,0.0,0.0,0.0,0.0,0.0,0.0,0.0,0.0,0.0,0.0,0.0,0.0,0.0,0.0,0.0,0.0,0.0,0.0,0.0,0.0,0.0,0.0,0.0,0.0,0.0,0.0,0.0,0.0,5.9392,6.0868,0.0,0.0,0.0,0.0,6.4233,6.4709,6.4995,6.5031,6.5815,6.6256,6.6292,6.7113,6.7554,6.759,6.7627,6.726,6.6512,6.7333,6.7297,6.6586,6.737,6.765,6.7533,6.6736,6.6332,6.5985,6.3614,6.1656,6.0122,6.002,5.9949,5.9945,5.9945,5.9945,5.9945,0.0,0.0,0.0,4.309,4.243,4.2237,4.2858,4.2704,4.2706,4.3327,4.5398,4.6985,4.7311,5.0336,5.2578,5.3258,5.2862,5.2601,5.2586,5.1347,5.0481,5.0254,5.0245,5.0951,5.2523,5.4413,5.5938,5.7027,5.7247,5.7088,5.6555,5.6555,5.6247,5.5708,5.5708,5.5308,5.4549,5.355,5.2113,5.0438,4.9176,4.7286,0.0,0.0,0.0,0.0,0.0,0.0,0.0,0.0,0.0,0.0,0.0,0.0,0.0,0.0,0.0,0.0,0.0,0.0,0.0,0.0,0.0,0.0,0.0,0.0,0.0,0.0,0.0,0.0,0.0,0.0,0.0,0.0,0.0,0.0,0.0,0.0,0.0,6.2813,6.4175,0.0,6.3897,6.5529,6.6442,6.589,6.6948,6.7393,6.688,6.7614,6.7797,6.7297,6.8054,6.8201,6.77,6.77,6.7554,6.7297,6.8091,6.8311,6.8091,6.8862,6.9229,6.9201,6.8288,6.7557,6.687,6.5373,6.3826,6.2415,6.2415,6.2093,6.1569,6.1569,6.1569,6.1637,0.0,0.0,0.0,4.4075,4.3685,4.3685,4.4271,4.439,4.4702,4.5562,4.7654,4.9161,4.9529,5.249,5.4638,5.4979,5.4552,5.4115,5.3848,5.2593,5.1638,5.1058,5.1614,5.3061,5.5409,5.6559,5.7525,5.8313,5.8313,5.8011,5.744,5.744,5.7132,5.6588,5.6588,5.6588,5.6577,5.6298,5.4929,5.2865,5.2194,5.0625,4.8574,0.0,0.0,0.0,0.0,0.0,0.0,0.0,0.0,0.0,0.0,0.0,0.0,0.0,0.0,0.0,0.0,0.0,0.0,0.0,0.0,0.0,0.0,0.0,0.0,0.0,0.0,0.0,0.0,0.0,0.0,0.0,0.0,0.0,0.0,6.419,6.5507,6.5176,6.6731,6.739,6.6224,6.7834,6.8748,6.8155,6.9105,6.9486,6.8935,6.9412,6.9339,6.8545,6.9045,6.9045,6.8508,6.8508,6.8508,6.8508,6.9045,6.9302,6.9339,6.9853,7.011,7.0031,6.9122,6.8187,6.7284,6.6986,6.5875,6.4339,6.4099,6.3664,6.3125,6.3125,6.3125,6.3193,0.0,0.0,4.6094,4.5234,4.4414,4.4414,4.6094,4.6367,4.7305,4.9844,5.1581,5.287,5.3731,5.5286,5.6572,5.7384,5.6491,5.5567,5.4735,5.391,5.274,5.1121,5.2702,5.4723,5.7066,5.7176,5.7594,5.8467,5.8467,5.8434,5.8429,5.8429,5.839,5.8396,5.8396,5.8396,5.8396,5.8396,5.7396,5.567,5.401,5.3351,5.3049,0.0,0.0,0.0,0.0,0.0,0.0,0.0,0.0,0.0,0.0,0.0,0.0,0.0,0.0,0.0,0.0,0.0,0.0,0.0,0.0,0.0,0.0,0.0,0.0,0.0,0.0,0.0,0.0,0.0,0.0,0.0,0.0,0.0,6.4667,6.6717,6.7873,6.6361,6.8522,6.9522,6.7994,6.9279,7.0477,7.1233,7.1307,7.1307,7.127,7.127,7.0903,7.011,7.011,7.0146,7.0146,7.0146,7.0183,7.0183,7.0183,7.022,7.022,7.022,7.0257,7.0178,6.9313,6.8378,6.7564,6.8448,6.7655,6.582,6.5033,6.4722,6.4681,6.4681,6.4681,6.4715,4.7617,4.793,4.7891,4.7031,4.7226,4.7422,4.7266,4.7773,4.8672,5.0039,5.2087,5.3763,5.4662,5.6592,5.7975,5.8168,5.7273,5.6122,5.4777,5.4471,5.4389,5.4506,5.7357,5.9181,5.9754,6.0935,6.1698,6.1929,6.1929,6.1627,6.1056,6.1056,6.071,6.0127,6.0127,6.0127,6.0127,6.0127,5.9473,5.8357,5.7319,5.6511,5.5824,0.0,0.0,0.0,0.0,0.0,0.0,0.0,0.0,0.0,0.0,0.0,0.0,0.0,0.0,0.0,0.0,0.0,0.0,0.0,0.0,0.0,0.0,0.0,0.0,0.0,0.0,0.0,0.0,0.0,0.0,0.0,6.8147,6.8728,6.7411,6.863,6.9657,6.9828,7.0501,7.1027,7.1174,7.1578,7.1688,7.1344,7.1307,7.105,7.0477,7.044,7.033,7.011,7.066,7.0977,7.0977,7.1541,7.1835,7.1835,7.2422,7.273,7.2716,7.3303,7.3582,7.3553,7.2615,7.206,7.1742,7.1321,7.0835,7.0151,6.8081,6.6859,6.6203,6.6203,6.6542,6.6981,4.8548,4.9015,4.9093,4.8194,4.8468,4.8784,4.8711,4.9101,5.0116,5.2021,5.3412,5.4855,5.6363,5.7672,5.8549,5.8896,5.7723,5.6773,5.6247,5.5875,5.638,5.7968,5.9887,6.1197,6.182,6.2814,6.3314,6.3314,6.3314,6.3045,6.2589,6.2589,6.232,6.1858,6.1858,6.1858,6.1858,6.1858,6.155,6.1044,6.0583,5.9242,5.744,5.6593,5.5631,5.4626,5.3285,5.2366,5.1743,5.159,0.0,0.0,0.0,0.0,0.0,0.0,0.0,0.0,0.0,0.0,0.0,0.0,0.0,0.0,0.0,0.0,0.0,0.0,0.0,0.0,0.0,0.0,0.0,0.0,7.0319,7.0933,7.0232,7.0698,7.1284,7.1747,7.1784,7.1967,7.2459,7.2496,7.2459,7.2312,7.2312,7.2239,7.2129,7.2129,7.2129,7.2129,7.2555,7.2812,7.2812,7.3252,7.3509,7.3509,7.3964,7.4184,7.4221,7.5028,7.538,7.5402,7.516,7.4869,7.4468,7.4206,7.3902,7.3283,0.0,0.0,0.0,0.0,6.8504,6.891,4.9834,5.0057,4.9862,4.8962,4.8923,4.9256,5.0034,5.031,5.155,5.4658,5.5139,5.6045,5.8368,5.8595,5.8858,5.9588,5.8363,5.794,5.8813,5.8237,5.8988,6.1433,6.1632,6.2358,6.3852,6.3891,6.3891,6.3891,6.3891,6.3891,6.3891,6.3891,6.3891,6.3891,6.3891,6.3891,6.3891,6.3891,6.3814,6.3737,6.3737,6.1775,5.8781,5.8017,5.7632,5.7445,5.6593,5.5974,5.5556,5.5165,0.0,0.0,0.0,0.0,0.0,0.0,0.0,0.0,0.0,0.0,0.0,0.0,0.0,0.0,0.0,0.0,0.0,0.0,0.0,0.0,0.0,0.0,0.0,0.0,7.2459,7.3403,7.2839,7.2789,7.2753,7.2642,7.2642,7.2679,7.2753,7.2789,7.3083,7.378,7.3817,7.4147,7.4867,7.4977,0.0,0.0,0.0,7.5307,7.5307,7.5417,7.5454,7.5454,7.5454,7.5454,7.5491,7.6203,7.6533,7.657,7.7252,7.7117,7.6369,7.6972,7.6643,7.5427,7.2295,7.1044,7.0904,7.0658,7.059,7.0691,4.98,5.0384,5.0618,4.9757,5.0187,5.0469,4.9942,5.1037,5.2624,5.4665,5.5997,5.7446,5.928,5.9984,6.0358,6.0512,6.0902,6.1479,6.2275,6.2926,6.3775,6.4906,6.623,6.7083,6.7391,6.743,6.743,6.743,6.743,6.743,6.743,6.743,6.743,6.743,6.743,6.743,6.743,6.743,6.7013,6.6365,6.6365,6.4743,6.2314,6.216,6.1666,6.0979,6.0133,5.9329,5.8635,5.8571,5.8054,5.7674,5.8917,5.8973,0.0,0.0,0.0,0.0,0.0,0.0,0.0,0.0,0.0,0.0,0.0,0.0,0.0,0.0,0.0,0.0,0.0,0.0,0.0,7.2683,7.3831,7.4566,7.4456,7.4426,7.4206,7.356,7.345,7.3707,7.4353,7.4426,7.45,7.4647,7.4661,7.472,7.4903,7.5542,7.5873,7.5873,7.7194,7.7892,7.7892,7.8516,7.8862,7.8862,7.8862,0.0,7.8862,7.9008,7.9082,7.9082,7.9265,7.9207,7.908,7.9194,7.8128,7.625,7.4801,7.3718,7.2938,7.2858,7.2857,7.2891,5.0258,5.0649,5.0865,5.0431,5.0706,5.0891,5.0493,5.1164,5.2461,5.4514,5.5075,5.6094,5.8114,5.8291,5.844,5.8863,6.1243,6.3051,6.3891,6.5623,6.6945,6.775,6.8199,6.8584,6.9045,6.8622,6.8814,6.9667,6.8814,6.8622,6.9045,6.9045,6.9045,6.9084,6.9468,6.9667,6.9667,6.9667,6.9398,6.8981,6.8552,6.7628,6.6353,6.5089,6.4359,6.3942,6.3518,6.3051,6.2704,6.2704,6.2435,6.2243,6.3089,6.3051,6.2781,0.0,0.0,0.0,0.0,0.0,0.0,0.0,0.0,0.0,0.0,0.0,0.0,0.0,0.0,6.9203,7.0586,0.0,7.3171,7.3961,7.455,7.505,7.5432,7.5858,7.5637,7.4441,7.4294,7.4771,7.5968,7.6114,7.6445,7.7304,7.7341,7.7341,7.7341,7.7708,7.7928,7.7928,7.8751,7.9192,7.9192,7.9596,7.9816,7.9816,7.9816,7.9816,7.9816,8.022,8.0388,8.0424,8.0844,8.1232,8.1603,8.143,8.0107,7.8098,7.7555,7.5763,7.3567,7.3916,7.4052,7.4086,5.0707,5.0791,5.0871,5.0871,5.0871,5.0885,5.1029,5.1163,5.2001,5.4121,5.3949,5.4425,5.6505,5.6285,5.6516,5.7863,6.1704,6.4468,6.5513,6.7968,6.9699,7.0398,6.9776,6.9738,7.0437,6.9738,7.0045,7.1398,6.9898,6.9584,7.043,7.0244,7.0283,7.0475,7.1129,7.1398,7.1398,7.1398,7.1398,7.136,7.0706,7.036,6.9975,6.7898,6.6821,6.6397,6.6397,6.6397,6.6397,6.6397,6.6513,6.6628,6.6628,6.675,6.6865,6.6865,6.6628,0.0,0.0,0.0,0.0,0.0,0.0,0.0,0.0,6.859,6.9325,7.0336,7.1032,7.1751,7.278,7.3744,7.4625,7.527,7.5637,7.6093,7.6717,7.7362,7.7289,7.6004,7.5873,7.6371,7.7656,7.7803,7.8369,7.9706,7.9816,7.9816,7.9816,7.9963,8.0036,8.0036,8.033,8.0514,8.0514,8.0661,8.0734,8.0734,8.0734,8.0734,8.0771,8.1415,8.1709,8.1746,8.2223,8.2674,8.3025,8.2394,8.0988,7.9207,7.8947,7.6839,7.4018,7.4762,7.4965,7.4897,5.0707,5.0693,5.0712,5.0712,5.0712,5.0721,5.0749,5.1361,5.2194,5.3243,5.3974,5.4739,5.5747,5.6439,5.8132,6.1254,6.4673,6.7359,6.9013,7.1507,7.2969,7.3084,7.2969,7.2969,7.3084,7.2969,7.3007,7.3199,7.2245,7.2206,7.3046,7.2283,7.2322,7.3084,7.3161,7.3199,7.3199,7.3199,7.3199,7.3199,7.3122,7.2629,7.1905,7.1598,7.009,6.8122,6.8122,6.8122,6.8122,6.8122,6.8629,6.9283,6.9283,6.9783,7.0321,7.0321,6.9283,6.8122,6.8122,6.7743,6.8027,7.092,7.1399,7.1497,0.0,7.2984,7.2944,7.3762,7.3656,7.3647,7.4478,7.5858,7.6922,7.7032,7.8295,7.9302,7.9376,7.9449,7.9449,7.9265,7.9265,7.9339,7.9522,7.9522,7.9596,7.9779,7.9816,7.9816,7.9816,8.0461,8.0865,8.0865,8.226,8.2977,8.2977,8.3728,8.4058,8.4058,8.4058,8.4058,8.4058,8.4168,8.4205,8.4168,8.3544,8.2795,8.1852,8.0149,7.8699,7.7446,7.6515,7.5862,7.554,7.6352,7.6183,7.5574,5.0707,5.0707,5.0707,5.0707,5.0707,5.0707,5.0707,5.0976,5.151,5.2313,5.2356,5.2784,5.4087,5.5439,5.744,6.0325,6.4596,6.7827,6.959,7.2507,7.4199,7.4199,7.3738,7.3738,7.4199,7.3738,7.3969,7.4938,7.3091,7.2629,7.3469,7.2591,7.2406,7.2783,7.3276,7.3507,7.3507,7.3507,7.3507,7.3469,7.2937,7.2514,7.2136,7.1636,7.0783,6.986,6.986,6.986,0.0,6.986,7.009,7.0398,7.0398,7.0321,7.0398,7.136,7.0783,7.0283,7.2283,7.2339,7.224,7.3845,7.3774,7.3404,7.3796,7.369,7.3892,7.517,7.564,7.6041,7.69,7.8002,7.8736,7.8736,7.9339,7.9963,8.0424,8.0498,8.0681,8.1122,8.1599,8.1525,8.0571,8.0901,8.1379,8.1856,8.2333,8.259,8.259,8.292,8.3104,8.3104,8.3765,8.4095,8.4095,8.4425,8.4609,8.4609,8.4609,8.4352,8.3911,8.4389,8.4352,8.3858,8.3564,8.278,8.1722,8.0756,7.9684,7.8575,7.7465,7.6758,7.6386,7.6251,7.598,7.5709,5.0707,5.0707,5.0707,5.0707,5.0707,5.0707,5.0707,5.0707,5.0899,5.1505,5.1048,5.1323,5.301,5.4703,5.6824,5.9627,6.4095,6.7705,6.9898,7.2738,7.4584,7.5053,7.4507,7.4469,7.5053,7.4469,7.4776,7.6015,7.3707,7.3014,7.3815,7.2706,7.2329,7.2591,7.3199,7.3507,7.3507,7.3507,7.3507,7.343,7.2822,7.2399,7.2136,7.1514,7.0975,7.0552,7.0552,7.0552,7.0514,7.0283,7.0514,7.0898,7.0898,7.0821,7.1014,7.2476,7.2321,7.231,7.5035,7.5338,7.509,7.6022,7.5918,7.5574,7.5404,7.5374,7.5704,7.6864,7.7598,7.817,7.8809,7.9596,8.0147,8.0147,8.033,8.0571,8.0938,8.1012,8.1122,8.1489,8.2443,8.2627,8.1452,8.226,8.3104,8.3675,8.4278,8.4609,8.4609,8.4609,8.4609,8.4609,8.4829,8.4939,8.4939,8.4939,8.4939,8.4939,8.4719,8.4278,8.3748,8.4352,8.4278,8.3711,8.3166,8.2358,8.1308,8.0526,7.9561,7.8523,7.7686,7.7029,7.6487,7.5912,7.5709,7.5709,5.0707,5.0707,5.0707,5.0707,5.0707,5.0707,5.0707,5.0707,5.0707,5.0745,5.0707,5.1323,5.301,5.4703,5.7055,6.0479,6.3942,6.7321,7.0667,7.2545,7.4238,7.5899,7.5938,7.5938,7.5976,7.5938,7.5938,7.6015,7.4276,7.3853,7.4623,7.2976,7.2629,7.3469,7.3507,7.3507,7.3507,7.3507,7.3507,7.3507,7.3469,7.2937,7.2213,7.2175,7.1129,6.9744,6.9744,6.9744,6.9629,6.8776,6.9552,7.0898,7.0898,7.2052,7.3546,7.4392,7.4234,7.3994,7.4882,7.4837,7.5116,7.7486,7.8292,7.8694,7.9449,7.9596,7.9633,7.9669,7.9706,7.9743,7.9779,8.0424,8.0975,8.0975,8.1636,8.1856,8.1122,8.1012,8.0718,7.9963,8.1285,8.2223,8.215,8.3581,8.4535,8.4572,8.4609,8.4609,8.4609,8.4609,8.4609,8.4609,8.5343,8.5747,8.5747,8.5747,8.5747,8.5764,8.4976,8.4609,8.4572,8.4609,8.4609,8.4448,8.2649,8.1253,8.0116,7.8205,7.677,7.5825,7.5801,7.5743,7.5743,7.5709,7.5709,7.5709,5.0707,5.0707,5.0707,5.0707,5.0707,5.0707,5.0707,5.0707,5.0707,5.0707,5.1669,0.0,0.0,0.0,0.0,0.0,6.4249,6.6596,6.8282,7.1591,7.3738,7.4315,7.5399,7.6015,7.6015,7.56,7.5413,7.5413,7.3894,7.3298,7.3536,7.1864,7.1217,7.1502,7.1332,7.1242,7.1258,7.16,7.1783,7.1783,7.1783,7.1591,7.1283,7.0744,6.9821,6.8699,0.0,6.7898,6.8699,6.7821,6.8667,7.009,7.009,7.0514,7.1189,7.2178,7.4666,7.7188,7.771,7.8553,7.9554,8.0479,8.0437,8.0131,7.9853,7.9816,7.9963,8.0498,7.9727,7.9192,7.9706,7.958,7.958,8.0131,8.0865,8.1489,8.1746,8.1782,8.1893,8.215,8.3141,8.3985,8.4535,8.5086,8.538,8.538,8.5894,8.617,8.617,8.5673,8.538,8.538,8.5123,8.5013,8.5013,8.5013,8.5013,8.4976,8.4205,8.4078,8.4572,8.3508,8.3287,8.3698,8.1815,8.0388,7.9277,7.7883,7.669,7.5709,7.5709,7.5709,7.5709,7.5709,7.5709,7.5709,5.0707,5.0938,5.1053,5.0745,5.0938,0.0,0.0,0.0,0.0,0.0,0.0,0.0,0.0,0.0,0.0,0.0,0.0,6.5199,6.6755,6.9433,7.1413,7.242,7.3232,7.3929,7.4478,7.3845,7.364,7.3906,7.2735,7.2132,7.2094,7.0726,7.0084,7.0067,6.9891,6.991,7.012,7.0471,7.0741,7.086,7.0591,7.0475,7.0398,6.9552,6.8706,0.0,6.6397,6.659,6.7436,6.6865,6.7596,6.8839,6.9239,6.9858,7.0746,7.231,7.5101,7.7892,7.8963,8.0169,8.1185,8.1541,8.1532,8.1305,8.0771,8.0661,8.0807,8.1305,8.0388,7.9617,8.0131,7.98,7.9543,7.9779,8.0461,8.1085,8.1305,8.1358,8.1636,8.2427,8.3508,8.4389,8.4903,8.5453,8.593,8.6224,8.6444,8.6591,8.6591,8.6077,8.5673,8.538,8.4866,8.4609,8.4609,8.4315,8.4022,8.3728,8.3214,8.3251,8.3728,8.2663,8.2262,8.2308,8.0712,7.94,7.8307,7.7182,7.6335,7.5709,7.5709,7.5709,7.5709,7.5709,7.5709,7.5709,5.0706,5.1321,5.1634,0.0,0.0,0.0,0.0,0.0,0.0,0.0,0.0,0.0,0.0,0.0,0.0,0.0,0.0,0.0,6.5862,6.6219,6.749,7.0169,6.9649,7.0027,7.1563,7.0798,7.074,7.1522,7.0715,7.0317,7.0317,6.943,6.9032,6.9042,6.9056,6.9323,6.9811,6.9853,7.018,7.0591,6.9821,6.9513,6.9475,6.8584,6.7744,6.6942,6.6134,6.5776,6.5756,6.5833,6.6474,6.747,6.8651,7.0413,7.2498,7.4737,7.5756,7.658,7.8833,7.969,8.0147,8.0901,8.1636,8.2186,8.2186,8.2186,8.2186,8.2186,8.1525,8.0938,8.0938,8.0938,8.0718,8.0,8.0534,8.0828,8.011,7.9963,8.022,8.1048,8.2463,8.3418,8.3454,8.4792,8.6004,8.6794,8.6151,8.5764,8.5764,8.571,8.5306,8.4572,8.4499,8.4499,8.4499,8.3711,8.2957,8.2186,8.2186,8.2186,8.2186,8.2186,8.1647,8.0605,7.9478,7.8391,7.7383,7.6218,7.5777,7.5811,7.5811,7.5811,7.5811,7.5811,7.5811,7.5811,0.0,0.0,0.0,0.0,0.0,0.0,0.0,0.0,0.0,0.0,0.0,0.0,0.0,0.0,0.0,0.0,0.0,0.0,6.1254,6.3612,6.5318,6.6031,6.707,6.8091,6.9092,6.7883,6.7347,6.7534,6.6957,6.6642,6.6642,6.5804,6.5433,6.5432,6.5568,6.5738,6.5914,6.6636,6.7043,6.7167,6.6936,6.7244,6.7673,6.6859,6.6397,6.6096,6.5243,6.4306,6.364,6.481,6.7203,6.9882,7.1411,7.3495,7.5396,7.5558,7.7827,8.0185,7.9807,8.1045,8.2406,8.2003,8.2039,8.2186,8.2186,8.2186,8.2186,8.2186,8.1085,8.011,8.011,8.011,8.0257,8.0645,8.1379,8.2039,8.2443,8.1966,8.1893,8.2684,8.3161,8.3638,8.4242,8.4132,8.4352,8.5159,8.5013,8.4903,8.4903,8.4352,8.3911,8.3711,8.3104,8.281,8.281,8.259,8.2406,8.2186,8.2186,8.2186,8.2186,8.2186,8.2071,8.1698,7.9787,7.914,7.9248,7.7386,7.6927,7.7401,7.7401,7.7401,7.7401,7.7401,7.7401,7.7401,0.0,0.0,0.0,0.0,0.0,0.0,0.0,0.0,0.0,0.0,0.0,0.0,0.0,0.0,0.0,0.0,0.0,0.0,0.0,6.0389,6.1655,6.2164,6.2745,6.3578,6.4764,6.3658,6.3417,6.4121,6.3481,6.3431,6.3959,6.3171,6.2894,6.3033,6.3166,6.3576,6.4174,6.4733,6.5324,0.0,0.0,6.6167,6.6519,6.6058,6.5904,6.5801,6.5067,6.4951,6.5464,6.7444,6.9482,7.1493,7.3094,7.4624,7.5997,7.6755,7.8861,8.0894,8.0882,8.1819,8.2774,8.2296,8.2186,8.2186,8.2186,8.2186,8.2186,8.2186,8.1195,8.0314,8.0314,8.0608,8.0865,8.0975,8.1672,8.237,8.281,8.2186,8.2113,8.3271,8.3381,8.3564,8.4022,8.3638,8.3418,8.3544,8.3875,8.4058,8.4058,8.3638,8.3234,8.2884,8.2443,8.2186,8.2186,8.2186,8.2186,8.2186,8.2186,8.2186,8.2186,8.2553,8.2485,8.1968,8.0603,8.0258,8.0524,7.8808,7.8366,7.8742,7.8742,7.8418,7.8,7.8,7.8,7.8,0.0,0.0,0.0,0.0,0.0,0.0,0.0,0.0,0.0,5.0444,5.1245,5.2065,0.0,0.0,0.0,0.0,0.0,0.0,0.0,0.0,5.7677,5.8669,5.807,5.8364,5.9893,5.9123,5.9428,6.0798,6.0089,6.037,6.1464,6.0779,6.0676,6.1083,6.111,6.1818,6.2994,6.3162,6.3939,6.5051,6.5288,6.548,6.5545,0.0,6.5679,6.5742,6.5374,6.6575,6.8763,7.1292,7.2356,7.2902,7.4399,7.5249,7.6114,7.8148,7.9412,8.044,8.1819,8.2186,8.2186,8.2186,8.2186,8.215,8.2076,8.2113,8.215,8.2039,8.1562,8.1158,8.1158,8.1819,8.215,8.1562,8.1966,8.2406,8.248,8.1746,8.1672,8.3051,8.3234,8.3234,8.3234,8.3234,8.2994,8.2406,8.3014,8.3344,8.3234,8.3234,8.292,8.2223,8.2296,8.237,8.237,8.248,8.2517,8.2517,8.2517,8.2517,8.2553,8.3251,8.3049,8.216,8.1707,8.1622,8.1667,8.054,8.0136,8.0205,8.0205,7.9614,7.8725,7.8555,7.8516,7.8492,0.0,0.0,0.0,0.0,0.0,0.0,0.0,0.0,0.0,0.0,4.9916,5.083,0.0,0.0,0.0,0.0,0.0,0.0,0.0,0.0,0.0,5.6209,5.6099,5.6466,5.7398,5.6638,5.6356,5.665,5.6503,5.6741,5.7228,5.7126,5.7276,5.7736,5.8151,5.8431,5.8761,5.9799,6.0376,6.0742,6.2172,6.3166,6.3783,6.4063,0.0,0.0,6.5683,6.696,6.8814,7.1521,7.3771,7.5573,7.6515,7.8241,7.991,7.9653,8.0624,8.1819,8.2113,8.2186,8.2186,8.2186,8.2186,8.2039,8.1379,8.1709,8.2003,8.1342,8.1636,8.2003,8.2003,8.2663,8.3344,8.3911,8.3528,8.3418,8.4095,8.292,8.2113,8.237,8.2406,8.2406,8.2406,8.2406,8.2627,8.3161,8.3308,8.3087,8.2443,8.2406,8.2333,8.2186,8.2847,8.3197,8.3197,8.3838,8.4168,8.4168,8.4168,8.4168,8.4205,8.4315,8.4305,8.4081,8.3119,8.3066,8.3562,8.2448,8.2376,8.2897,8.2897,8.279,8.2519,8.1563,8.1226,8.1084,0.0,0.0,0.0,0.0,0.0,0.0,0.0,4.9958,5.0812,5.2501,5.1987,5.1756,5.2491,5.3335,5.3812,0.0,0.0,0.0,0.0,0.0,0.0,5.4363,5.4363,5.4546,5.4902,5.4546,5.4546,5.4997,0.0,5.4564,5.4959,5.4959,5.509,5.5351,5.5799,5.6366,5.7045,5.7794,5.8404,5.9021,6.1149,6.2216,6.2681,6.3736,0.0,0.0,6.5111,6.6515,6.8439,7.1015,7.378,7.624,7.7032,7.872,8.0277,7.9926,8.0954,8.2186,8.2186,8.2186,8.2186,8.2186,8.2186,8.2003,8.1195,8.1636,8.1966,8.1158,8.1636,8.2186,8.2186,8.2847,8.3528,8.3895,8.3638,8.3528,8.3911,8.2957,8.2186,8.2186,8.2186,8.237,8.2774,8.281,8.3177,8.3968,8.4005,8.3875,8.3471,8.3434,8.3434,8.3434,8.3838,8.4005,8.4005,8.4425,8.4609,8.4609,8.4609,8.4609,8.4609,8.5013,8.5233,8.5182,8.4518,8.4733,8.5537,8.4411,8.4154,8.4492,8.4492,8.4145,8.3436,8.23,8.1898,8.1746,0.0,0.0,0.0,0.0,0.0,0.0,5.0545,5.0949,5.2087,5.4961,5.4252,5.3214,5.2574,5.3482,5.3885,0.0,0.0,0.0,0.0,0.0,0.0,0.0,0.0,5.3031,5.3214,0.0,0.0,5.4142,5.3508,0.0,0.0,0.0,0.0,0.0,5.4375,5.5057,5.6019,5.6622,5.7314,0.0,0.0,6.1917,6.205,0.0,0.0,0.0,0.0,6.5878,6.7577,7.0183,7.2848,7.5249,7.6225,7.8038,7.9779,7.9596,8.0697,8.1929,8.1929,8.2076,8.2186,8.2186,8.2076,8.1746,8.0938,8.1232,8.1452,8.0645,8.1269,8.1929,8.1929,8.259,8.3271,8.3601,8.3381,8.3271,8.3601,8.281,8.2186,8.2186,8.2186,8.2517,8.3308,8.3381,8.3821,8.4792,8.5013,8.4976,8.4609,8.4609,8.4609,8.4609,8.4756,8.4866,8.4866,8.5049,8.5123,8.5123,8.5123,8.5123,8.5159,8.5783,8.604,8.6043,8.5773,8.6156,8.6925,8.6046,8.5638,8.5638,8.5638,8.5123,8.4165,8.2773,8.2336,8.2303,0.0,0.0,0.0,0.0,0.0,0.0,5.0545,5.1426,5.2527,5.4289,5.4363,5.4252,5.4179,5.3654,5.3287,0.0,0.0,0.0,0.0,0.0,0.0,0.0,0.0,0.0,0.0,0.0,0.0,5.3324,5.3251,0.0,0.0,0.0,0.0,0.0,0.0,5.4583,5.4766,5.6266,0.0,0.0,0.0,0.0,0.0,0.0,0.0,0.0,0.0,6.5377,6.5999,6.9155,7.0881,7.2004,7.356,7.6695,7.9669,7.8919,7.9837,8.1122,8.1122,8.1636,8.2186,8.2186,8.1636,8.0901,8.011,7.9963,7.9779,7.8993,8.0057,8.1122,8.1122,8.1782,8.2774,8.4242,8.3251,8.281,8.4278,8.3177,8.2186,8.2186,8.2186,8.2517,8.3308,8.3381,8.4058,8.5563,8.6371,8.6133,8.4682,8.4609,8.4609,8.4609,8.5306,8.569,8.569,8.6407,8.6757,8.6757,8.6757,8.6757,8.6757,8.6885,8.6885,8.6904,8.6854,8.6908,8.6978,8.6891,8.6856,8.6856,8.6856,8.6767,8.6428,8.4248,8.3874,8.4146,0.0,0.0,0.0,0.0,0.0,0.0,5.1169,5.1803,5.2758,5.4851,5.4693,5.4399,5.4399,5.3691,5.3214,5.3214,0.0,0.0,0.0,0.0,0.0,0.0,0.0,0.0,0.0,0.0,5.3922,5.3922,5.4399,0.0,0.0,0.0,0.0,0.0,0.0,5.3842,5.4169,5.5555,0.0,0.0,0.0,0.0,0.0,0.0,0.0,0.0,0.0,0.0,6.4861,6.6623,6.8385,7.0132,7.1747,7.4037,7.635,7.7488,7.8993,8.0388,8.0865,8.1232,8.1599,8.2076,8.1599,8.0791,8.0,7.9816,7.9559,7.8772,7.9874,8.1012,8.1012,8.1672,8.2553,8.3675,8.292,8.259,8.3711,8.3324,8.292,8.292,8.3361,8.3948,8.4756,8.4829,8.5306,8.6444,8.6811,8.6721,8.6077,8.604,8.604,8.604,8.6371,8.6518,8.6518,8.6848,8.6978,8.6978,8.6978,8.6978,8.6978,8.6978,8.6978,8.6978,8.6978,8.6978,8.6978,8.6978,8.6978,8.6978,8.6978,8.6978,8.6787,8.4947,8.4449,8.4454,0.0,0.0,0.0,0.0,0.0,4.9077,5.1279,5.1657,5.2501,5.4924,5.4546,5.4142,5.4363,5.3691,5.3214,5.3214,5.3214,0.0,0.0,0.0,0.0,0.0,0.0,0.0,0.0,0.0,5.4399,5.4399,5.5218,5.5328,0.0,0.0,0.0,0.0,0.0,0.0,0.0,0.0,0.0,0.0,0.0,0.0,0.0,0.0,0.0,0.0,0.0,0.0,0.0,0.0,0.0,6.8458,7.0059,7.1872,7.3817,7.6225,7.8148,7.9633,8.0424,8.0975,8.1489,8.2039,8.1415,8.0498,7.9926,7.9412,7.8883,7.8332,7.9507,8.0645,8.0645,8.1489,8.2553,8.3581,8.3067,8.2847,8.3638,8.3748,8.3675,8.3418,8.4115,8.4903,8.5727,8.6004,8.6407,8.6941,8.6978,8.6978,8.6978,8.6978,8.6978,8.6978,8.6978,8.6978,8.6978,8.6978,8.6978,8.6978,8.6978,8.6978,8.6978,8.6978,8.6978,8.6978,8.6978,8.6978,8.6978,8.6978,8.6978,8.7014,8.7234,8.7133,8.6666,8.5502,8.4987,8.4642,0.0,0.0,0.0,0.0,0.0,0.0,5.0545,5.0802,5.1683,5.4106,5.3691,5.3508,5.4326,5.3691,5.3214,5.3214,5.3214,0.0,0.0,0.0,0.0,0.0,0.0,0.0,0.0,0.0,5.4399,5.4399,5.5218,5.5585,5.5585,5.5585,5.5144,5.441,0.0,0.0,0.0,0.0,0.0,0.0,0.0,0.0,6.2793,0.0,0.0,0.0,0.0,0.0,0.0,0.0,0.0,0.0,0.0,7.0587,7.301,7.5395,7.7304,7.8772,7.9596,8.0991,8.2186,8.2186,8.0991,7.9816,7.9816,7.8516,7.7326,7.7326,7.8662,7.9816,7.9816,8.1138,8.27,8.4315,8.3895,8.3675,8.4462,8.4609,8.4278,8.3491,8.4115,8.4903,8.5727,8.6518,8.6978,8.6978,8.6978,8.6978,8.6978,8.6978,8.6978,8.6978,8.6978,8.6978,8.6978,8.6978,8.6978,8.6978,8.6978,8.6978,8.6978,8.6978,8.6978,8.6978,8.6978,8.6978,8.6978,8.6978,8.6978,8.7088,8.7876,8.745,8.6364,8.6027,8.5575,8.5037,0.0,0.0,0.0,0.0,0.0,0.0,4.9821,4.9968,5.0445,5.1756,5.2197,5.2491,5.2711,5.3041,5.3214,5.3214,5.3214,0.0,0.0,0.0,0.0,0.0,0.0,0.0,0.0,5.3995,5.4656,5.5218,5.6014,5.6712,5.7237,5.6675,5.6271,5.6003,5.4876,5.4546,0.0,0.0,0.0,0.0,0.0,6.1361,6.2793,0.0,0.0,0.0,0.0,0.0,0.0,0.0,0.0,0.0,0.0,0.0,0.0,7.3744,7.5616,7.7194,7.8589,7.936,7.9874,8.044,7.9779,7.8993,7.8993,7.8112,7.7289,7.7289,7.8626,7.9816,7.9816,8.1138,8.2737,8.4352,8.3911,8.3675,8.4499,8.4609,8.4499,8.4242,8.5416,8.6334,8.6591,8.6831,8.6978,8.6978,8.6978,8.6978,8.6978,8.6978,8.6978,8.6978,8.6978,8.6978,8.6978,8.6978,8.6978,8.6978,8.6978,8.6978,8.6978,8.6978,8.6978,8.6978,8.6978,8.6978,8.7014,8.7582,8.7839,8.7912,8.8702,8.8288,8.7157,8.6809,8.6043,8.5082,0.0,0.0,0.0,0.0,0.0,0.0,4.9013,4.9123,4.9417,5.0261,5.1059,5.1646,5.1987,5.2711,5.3214,5.3214,5.3214,0.0,0.0,0.0,0.0,0.0,0.0,0.0,5.3177,5.4289,5.5108,5.5585,5.6712,5.7519,5.7997,5.7483,5.7068,5.6737,5.5427,5.495,0.0,0.0,0.0,0.0,6.075,6.163,6.2793,0.0,0.0,0.0,0.0,0.0,0.0,0.0,0.0,0.0,0.0,0.0,0.0,0.0,7.4625,7.6019,7.7656,7.8589,7.9192,7.9669,7.9192,7.8589,7.8589,7.7913,7.7289,7.7289,7.8626,7.9816,7.9816,8.1342,8.3067,8.4389,8.4168,8.4022,8.4535,8.4609,8.4719,8.5013,8.6224,8.6978,8.6978,8.6978,8.6978,8.6978,8.6978,8.6978,8.6978,8.6978,8.6978,8.6978,8.6978,8.6978,8.6978,8.6978,8.6978,8.6978,8.7325,8.7472,8.7455,8.7748,8.7895,8.7895,8.7895,8.7895,0.0,8.8463,8.8647,8.872,8.9546,8.8864,8.7375,8.7417,8.6393,8.4991,0.0,0.0,0.0,0.0,0.0,0.0,0.0,4.8374,4.8668,4.9497,5.0257,5.1036,5.1781,5.2653,5.3146,5.3115,0.0,0.0,0.0,0.0,0.0,0.0,0.0,0.0,5.3214,5.473,5.5548,5.5585,5.7152,5.7923,5.7997,5.7997,5.7593,5.6847,5.5978,5.5181,5.4583,5.6161,5.8168,6.0456,6.119,6.2034,0.0,0.0,0.0,0.0,0.0,0.0,0.0,0.0,0.0,0.0,0.0,0.0,0.0,0.0,0.0,0.0,0.0,7.8369,7.9633,7.9633,7.9066,7.8516,7.8516,7.7876,0.0,7.7289,7.8626,7.9816,7.989,8.1819,8.3675,8.4535,8.4646,8.4609,8.4682,8.4682,8.4976,8.571,8.6518,8.7014,8.7088,8.7014,8.6978,8.6978,8.6978,8.6978,8.6978,8.6978,8.6978,8.6978,8.7051,8.7051,8.6978,8.7051,8.7051,8.7014,8.7876,8.8243,8.8243,8.9033,8.94,8.94,8.94,8.94,8.94,8.9473,8.9473,8.9583,9.0354,8.9218,8.7187,8.8007,8.6793,8.489,0.0,0.0,0.0,0.0,0.0,0.0,0.0,0.0,0.0,0.0,4.9955,5.0322,5.0545,5.1872,5.262,0.0,0.0,0.0,0.0,0.0,0.0,0.0,0.0,0.0,5.3214,5.4179,5.4997,5.5585,5.6602,5.7409,5.7997,5.7997,5.7886,5.7666,5.6246,5.5475,5.5365,5.6381,5.8168,6.0407,6.0603,6.1508,0.0,0.0,0.0,0.0,6.4029,6.4494,0.0,0.0,0.0,0.0,0.0,0.0,0.0,0.0,7.378,7.4977,7.5344,0.0,7.7876,7.7876,7.7766,7.7619,0.0,7.7436,7.7289,7.7289,7.8626,8.0,8.0608,8.2186,8.3858,8.527,8.5013,8.4792,8.5416,8.5527,8.56,8.58,8.6518,8.7234,8.7876,8.7362,8.6978,8.6978,8.6978,8.6978,8.6978,8.6978,8.6978,8.6978,8.7619,8.7619,8.7014,8.7619,8.7619,8.7014,8.8445,8.8776,8.8243,8.9033,8.94,8.94,8.94,8.94,8.9436,9.006,9.0317,9.0408,9.1216,9.0034,8.8065,8.917,8.8065,8.6152,0.0,0.0,0.0,0.0,0.0,0.0,0.0,0.0,0.0,0.0,0.0,5.0384,5.0384,5.1861,0.0,0.0,0.0,0.0,0.0,0.0,0.0,0.0,0.0,5.3805,5.3805,5.4958,5.5777,5.6186,5.7196,5.7893,5.8337,5.8097,5.7813,5.7373,5.5757,5.5254,5.5658,5.6455,5.8168,6.0419,6.0786,0.0,0.0,0.0,0.0,0.0,6.4947,6.5485,0.0,6.6292,6.699,6.7921,0.0,0.0,0.0,0.0,7.3619,7.4903,7.4903,7.6078,7.7399,7.7803,7.7582,7.7399,7.7803,7.7582,7.7289,7.7289,7.8626,7.9926,8.0351,8.237,8.4242,8.5123,8.5196,8.5159,8.5233,8.5894,8.6224,8.582,8.6848,8.7582,8.7655,8.7234,8.6978,8.6978,8.6978,8.6978,8.6978,8.7344,8.7545,8.7545,8.8353,8.8335,8.7582,8.8353,8.8519,8.8115,8.9363,8.973,8.9344,9.0152,9.0501,9.0501,9.0501,9.0501,9.0537,9.0959,9.1143,9.1179,9.162,9.0657,8.9114,8.9745,8.8819,8.7398,0.0,0.0,0.0,0.0,0.0,0.0,0.0,0.0,0.0,0.0,0.0,0.0,0.0,0.0,0.0,0.0,0.0,0.0,0.0,0.0,0.0,0.0,5.4631,5.456,5.4681,5.6136,5.6924,5.6969,5.8136,5.8673,5.858,5.826,5.7618,5.6662,5.5361,5.506,5.5658,5.6455,5.8168,6.0456,6.1153,0.0,0.0,0.0,0.0,0.0,0.0,0.0,0.0,6.748,6.7774,6.8141,6.9633,0.0,0.0,0.0,0.0,0.0,7.4867,7.6188,7.7656,7.8259,7.7839,7.7509,7.8222,7.7839,7.7362,7.7472,7.8809,8.0073,8.0293,8.2663,8.4682,8.4939,8.5527,8.5637,8.4719,8.6004,8.6738,8.604,8.7178,8.7802,8.7234,8.7051,8.6978,8.6978,8.6978,8.7051,8.7161,8.7839,8.8243,8.839,8.9143,8.9253,8.8573,8.9253,8.951,8.94,9.0317,9.0739,9.0629,9.1436,9.1803,9.1803,9.1803,9.1803,9.1803,9.1803,9.1803,9.1803,9.1803,9.1041,9.0026,9.0224,8.9516,8.8623,0.0,0.0,0.0,0.0,0.0,0.0,0.0,0.0,0.0,0.0,0.0,0.0,0.0,0.0,0.0,0.0,0.0,0.0,0.0,0.0,0.0,5.6638,5.528,5.4832,5.5489,5.6446,5.707,5.7424,5.8269,5.8513,5.8108,5.845,5.7783,5.637,5.6428,5.6124,5.5658,5.6455,5.8168,6.0419,6.0529,0.0,0.0,0.0,0.0,0.0,0.0,0.0,0.0,6.7664,6.8128,6.8898,6.9816,0.0,0.0,0.0,0.0,0.0,7.472,7.6592,7.8259,7.7656,7.7399,7.7362,7.7472,7.7399,7.7509,7.8259,7.969,8.1232,8.2574,8.3801,8.5049,8.639,8.6721,8.6297,8.4829,8.6004,8.6941,8.6848,8.7014,8.7399,8.7949,8.7399,8.6978,8.6978,8.6978,8.7325,8.7986,8.8133,8.85,8.9179,8.9987,9.0372,9.0225,9.0372,9.006,8.9436,9.0922,9.1253,9.0629,9.1436,9.1803,9.1803,9.1803,9.1803,9.1803,9.1803,9.1803,9.1803,9.1803,9.1041,9.0107,9.1154,9.0754,8.9724,0.0,0.0,0.0,0.0,0.0,0.0,0.0,0.0,0.0,0.0,0.0,0.0,0.0,0.0,0.0,0.0,0.0,0.0,0.0,0.0,5.7406,5.7698,5.7149,5.6684,5.6426,5.784,5.8678,5.8866,5.9606,5.9648,5.902,5.8089,5.7396,5.6925,5.6398,5.6569,5.7291,5.7398,5.8841,6.1043,0.0,0.0,0.0,0.0,0.0,0.0,0.0,0.0,0.0,0.0,6.7958,6.8385,6.9192,0.0,0.0,0.0,0.0,0.0,7.4683,7.6371,7.8038,7.8516,7.9323,7.9947,7.9947,7.9947,8.0057,8.0461,8.1122,8.2003,8.3161,8.4058,8.5123,8.6721,8.6978,8.6721,8.5987,8.6921,8.7509,8.7051,8.7399,8.7619,8.7582,8.7215,8.6978,8.6978,8.7399,8.7802,8.8169,8.9014,8.9674,9.0024,9.0849,9.1253,9.1253,9.1253,9.1069,9.0702,9.1436,9.162,9.1253,9.162,9.1803,9.1803,9.1803,9.1803,9.1803,9.1803,9.1803,9.1803,9.1803,9.1454,9.1022,9.1602,9.1454,9.0965,0.0,0.0,0.0,0.0,0.0,0.0,0.0,0.0,0.0,0.0,0.0,0.0,0.0,0.0,0.0,0.0,0.0,0.0,0.0,5.7372,5.771,5.8395,5.8911,5.873,5.7737,5.9507,6.0461,6.0554,6.1294,6.1342,6.071,5.8637,5.7795,5.8012,5.6951,5.7224,5.8534,5.8558,5.9722,6.163,0.0,0.0,0.0,0.0,0.0,0.0,0.0,0.0,0.0,0.0,0.0,0.0,0.0,0.0,0.0,7.0793,7.2018,7.334,7.4368,7.5931,7.7693,7.936,8.0734,8.1746,8.2113,8.2039,8.2039,8.2406,8.2627,8.2957,8.3564,8.4352,8.527,8.6518,8.6867,8.6978,8.6978,8.7545,8.7692,8.7051,8.7545,8.7692,8.7051,8.6978,8.7088,8.7288,8.7839,8.8353,8.8757,8.9931,9.0702,9.0886,9.1473,9.1803,9.1803,9.1803,9.1803,9.1803,9.1803,9.1803,9.1803,9.1803,9.1803,9.1803,9.1803,9.1803,9.1803,9.1803,9.1803,9.1803,9.1803,9.1803,9.1803,9.1803,9.162,9.1416,0.0,0.0,0.0,0.0,0.0,0.0,0.0,0.0,0.0,0.0,0.0,0.0,0.0,0.0,0.0,0.0,0.0,0.0,5.8159,5.8489,5.8682,5.8758,5.9869,6.0244,5.9791,6.1023,6.1797,6.213,6.2928,6.3293,6.3208,6.1096,5.9998,5.9705,5.9167,5.8595,5.8139,5.9599,6.075,6.1667,6.2389,0.0,0.0,0.0,0.0,0.0,0.0,0.0,0.0,0.0,0.0,0.0,0.0,0.0,6.9155,6.9963,7.0807,7.1821,7.334,7.5506,7.7693,7.936,7.989,8.0367,8.1856,8.1636,8.1525,8.3014,8.3911,8.4425,8.4499,8.5159,8.5747,8.5857,8.6518,8.6978,8.6978,8.7051,8.7051,8.7014,8.7051,8.7051,8.7014,8.6978,8.7325,8.8059,8.8169,8.8867,9.0372,9.0555,9.0959,9.1693,9.1767,9.1803,9.1803,9.1803,9.1803,9.1803,9.1803,9.1803,9.1803,9.1803,9.1803,9.1803,9.1803,9.1803,9.1803,9.1803,9.1803,9.1803,9.1803,9.1803,9.1803,9.1803,9.1097,9.0304,0.0,0.0,0.0,0.0,0.0,0.0,0.0,0.0,0.0,0.0,0.0,0.0,0.0,0.0,0.0,0.0,0.0,0.0,5.7787,5.7985,5.8592,5.9844,6.0548,6.1069,6.1403,6.2361,6.3153,6.3788,6.3842,6.3873,6.3848,6.2914,6.2057,6.1417,6.1823,6.1797,6.1496,6.234,6.3172,6.3943,6.4224,6.5225,0.0,0.0,0.0,0.0,0.0,0.0,0.0,0.0,6.77,6.7737,6.8068,6.8495,6.9082,6.9853,7.066,7.1747,7.3876,7.6607,7.914,8.0241,8.2039,8.3561,8.3654,8.3838,8.4168,8.4756,8.5123,8.5343,8.5343,8.6004,8.6554,8.6554,8.6794,8.6978,8.6978,8.6978,8.6978,8.6978,8.6978,8.6978,8.6978,8.7472,8.7876,8.8169,8.9124,8.9968,9.0592,9.1069,9.1473,9.1803,9.1803,9.1803,9.1803,9.1803,9.1803,9.1803,9.1803,9.1803,9.1803,9.1803,9.1803,9.1803,9.1803,9.1803,9.1803,9.1803,9.1803,9.1803,9.1803,9.1803,9.1803,9.1803,9.1491,9.1192,0.0,0.0,0.0,0.0,0.0,0.0,0.0,0.0,0.0,0.0,0.0,0.0,0.0,0.0,0.0,0.0,0.0,0.0,5.6927,5.7111,5.7918,5.9533,6.0427,6.1278,6.2056,6.3405,6.4357,6.4876,6.5287,6.5496,6.5472,6.4788,6.4122,6.3497,6.3724,6.3771,6.3704,6.4266,6.4787,6.5325,6.5582,6.6245,0.0,0.0,0.0,0.0,0.0,0.0,0.0,0.0,6.77,6.77,6.77,6.8091,6.8678,6.9486,7.0844,7.2591,7.5014,7.7708,8.0183,8.1746,8.3398,8.4719,8.4939,8.538,8.5857,8.6114,8.5967,8.5984,8.6444,8.6591,8.6701,8.6941,8.6978,8.6978,8.6978,8.6978,8.6978,8.6978,8.7215,8.7399,8.7399,8.8133,8.8683,8.894,8.9968,9.0702,9.0959,9.151,9.1803,9.1803,9.1803,9.1803,9.1803,9.1803,9.1803,9.1803,9.1803,9.1803,9.1803,9.1803,9.1803,9.1803,9.1803,9.1803,9.1803,9.1803,9.1803,9.1803,9.1803,9.1803,9.1803,9.1803,9.1803,9.1803,0.0,0.0,0.0,0.0,0.0,0.0,0.0,0.0,0.0,0.0,0.0,0.0,0.0,0.0,0.0,0.0,0.0,0.0,5.5665,5.6023,5.6588,5.7484,5.9371,6.0786,6.1569,6.4016,6.5301,6.5338,6.7456,6.8511,6.8474,6.6869,6.6135,6.6052,6.4746,6.4139,6.4176,6.4971,6.5325,6.5398,6.6182,6.6512,6.6586,0.0,0.0,0.0,0.0,0.0,0.0,0.0,6.77,6.77,6.77,6.7737,6.7921,6.8678,7.1174,7.4221,7.6628,7.8516,8.0587,8.3765,8.3398,8.2884,8.525,8.5783,8.6004,8.6794,8.6371,8.6297,8.7876,8.6885,8.6077,8.6867,8.7014,8.6978,8.7014,8.6978,8.6978,8.7014,8.7729,8.8206,8.8206,8.8923,8.973,9.0555,9.0629,9.0959,9.1767,9.1803,9.1803,9.1803,9.1803,9.1803,9.1803,9.1803,9.1803,9.1803,9.1803,9.1803,9.1803,9.1803,9.1803,9.1803,9.1803,9.1803,9.1803,9.1803,9.1803,9.1803,9.1803,9.1803,9.1803,9.1803,9.1803,9.1803,0.0,0.0,0.0,0.0,0.0,0.0,0.0,0.0,0.0,0.0,0.0,0.0,0.0,0.0,0.0,0.0,0.0,0.0,5.6033,5.5603,5.6105,5.7763,5.897,6.0187,6.1569,6.4016,6.6047,6.7567,6.8193,6.8511,6.8486,6.8393,6.7662,6.6406,6.6938,6.6679,6.5852,6.6659,6.7003,6.699,6.726,6.7333,6.737,0.0,0.0,0.0,0.0,0.0,0.0,0.0,0.0,0.0,6.7884,6.9242,7.0881,7.0,7.2018,7.4698,7.5417,7.8479,8.1562,8.1966,8.4278,8.6297,8.5894,8.5343,8.5196,8.6004,8.6407,8.6811,8.7288,8.6958,8.6921,8.7729,8.7362,8.7198,8.7766,8.7362,8.7198,8.7766,8.8059,8.8426,8.8996,8.9767,9.0317,9.0592,9.1106,9.1546,9.1803,9.1803,9.1803,9.1803,9.1803,9.1803,9.1803,9.1803,9.1803,9.1803,9.1803,9.1803,9.1803,9.1803,9.1803,9.1803,9.1803,9.1803,9.1803,9.1803,9.1803,9.1803,9.1803,9.1803,9.1803,9.1803,9.1803,9.1803,0.0,0.0,0.0,0.0,0.0,0.0,0.0,0.0,0.0,0.0,5.8165,5.8773,0.0,0.0,0.0,0.0,0.0,0.0,5.5465,5.5323,5.5781,5.6991,5.9061,6.1227,6.3503,6.5007,6.6677,6.8511,6.8511,6.8511,6.8523,6.8851,6.8375,6.7331,6.7926,6.7725,6.699,6.748,6.77,6.77,6.77,6.77,6.77,0.0,0.0,0.0,0.0,0.0,0.0,0.0,0.0,0.0,6.8802,7.0183,7.2004,7.2018,7.4294,7.7121,7.8405,8.1158,8.3654,8.3838,8.5563,8.6995,8.6021,8.5673,8.5857,8.6995,8.7105,8.7088,8.7435,8.7215,8.7178,8.7655,8.7308,8.7161,8.7655,8.7582,8.7655,8.8133,8.8757,8.9344,8.984,9.0592,9.1069,9.1069,9.1546,9.1803,9.1803,9.1803,9.1803,9.1803,9.1803,9.1803,9.1803,9.1803,9.1803,9.1803,9.1803,9.1803,9.1803,9.1803,9.1803,9.1803,9.1803,9.1803,9.1803,9.1803,9.1803,9.1803,9.1803,9.1803,9.1803,9.1803,9.1803,9.1803,0.0,0.0,5.239,0.0,0.0,0.0,0.0,0.0,0.0,5.7099,5.7912,5.8533,0.0,0.0,0.0,5.7354,5.5879,5.4781,5.4432,5.5071,5.5548,5.5695,5.9538,6.3209,6.6439,6.6512,6.7119,6.8428,6.8487,6.8511,6.8511,6.8511,6.8476,6.8404,6.7917,6.77,6.77,6.77,6.77,6.77,6.77,6.77,6.77,6.77,0.0,0.0,0.0,0.0,0.0,0.0,0.0,0.0,7.011,7.0844,7.2151,7.4169,7.7231,8.055,8.3398,8.4903,8.604,8.7509,8.6885,8.593,8.6004,8.6518,8.7381,8.8776,8.8042,8.7325,8.7986,8.7509,8.7051,8.7198,8.7161,8.7161,8.7308,8.7912,8.8353,8.8426,8.9711,9.0629,9.0702,9.1363,9.1803,9.1803,9.1803,9.1803,9.1803,9.1803,9.1803,9.1803,9.1803,9.1803,9.1803,9.1803,9.1803,9.1803,9.1803,9.1803,9.1803,9.1803,9.1803,9.1803,9.1803,9.1803,9.1803,9.1803,9.1803,9.1803,9.1803,9.1803,9.1803,9.1803,9.1803,9.1803,0.0,0.0,5.401,5.4203,0.0,0.0,0.0,0.0,5.7247,5.7934,5.9019,5.9357,5.8427,5.7858,0.0,5.6092,5.5107,5.4491,5.441,5.4546,5.5207,5.6492,6.0407,6.3796,6.6439,6.6512,6.6959,6.7852,6.8308,6.8511,6.8511,6.8511,6.8284,6.7889,6.7767,6.77,6.77,6.77,6.77,6.77,6.77,6.77,6.77,6.77,6.77,0.0,0.0,0.0,0.0,0.0,0.0,0.0,7.0293,7.2386,7.4918,7.4184,7.7194,8.0755,8.0844,8.281,8.4939,8.5306,8.6077,8.6921,8.7545,8.7325,8.6921,8.6628,8.7288,8.7802,8.7362,8.7124,8.7418,8.8666,8.8335,8.839,8.9674,8.9436,8.9363,9.0005,9.0408,9.0849,9.1473,9.1693,9.1803,9.1803,9.1803,9.1803,9.1803,9.1803,9.1803,9.1803,9.1803,9.1803,9.1803,9.1803,9.1803,9.1803,9.1803,9.1803,9.1803,9.1803,9.1803,9.1803,9.1803,9.1803,9.1803,9.1803,9.1803,9.1803,9.1803,9.1803,9.1803,9.1803,9.1803,9.1803,0.0,0.0,0.0,0.0,0.0,0.0,0.0,0.0,5.7672,5.7114,5.8141,5.8486,5.7391,5.708,0.0,0.0,5.4851,5.4546,5.4961,5.4961,5.6381,5.9526,6.2071,6.4567,6.704,6.7076,6.7297,6.77,6.7994,6.8123,6.8123,6.8123,6.7969,6.77,6.77,6.77,6.77,6.77,6.77,6.77,6.77,6.77,6.77,6.77,6.77,6.7811,6.8605,0.0,0.0,0.0,0.0,0.0,0.0,0.0,7.5506,7.5432,7.8075,8.1158,8.1893,8.3581,8.5343,8.6114,8.6958,8.7692,8.8096,8.7876,8.7362,8.6554,8.7031,8.7509,8.7088,8.7325,8.7839,8.8666,8.8776,8.9069,8.9913,8.9987,9.0134,9.0555,9.0959,9.1326,9.1767,9.1803,9.1803,9.1803,9.1803,9.1803,9.1803,9.1803,9.1803,9.1803,9.1803,9.1803,9.1803,9.1803,9.1803,9.1803,9.1803,9.1803,9.1803,9.1803,9.1803,9.1803,9.1803,9.1803,9.1803,9.1803,9.1803,9.1803,9.1803,9.1803,9.1803,9.1803,9.1803,9.1803,0.0,0.0,0.0,0.0,0.0,0.0,0.0,0.0,0.0,5.5915,5.6679,5.704,5.6201,5.6029,5.5744,0.0,0.0,0.0,5.5328,5.5915,5.818,6.2609,6.3759,6.5388,6.7664,6.77,6.77,6.77,6.77,6.77,6.77,6.77,6.77,6.77,6.77,6.77,6.77,6.77,6.77,6.77,6.77,6.77,6.77,6.77,6.77,6.7811,6.8605,6.9412,7.022,7.1013,0.0,0.0,0.0,0.0,7.5197,7.6665,7.894,8.1489,8.3618,8.5086,8.6334,8.7655,8.8096,8.8169,8.8023,8.7986,8.7802,8.7124,8.6978,8.6978,8.6978,8.7545,8.8096,8.8353,8.8959,8.951,8.9767,9.0391,9.0812,9.0812,9.14,9.1803,9.1803,9.1803,9.1803,9.1803,9.1803,9.1803,9.1803,9.1803,9.1803,9.1803,9.1803,9.1803,9.1803,9.1803,9.1803,9.1803,9.1803,9.1803,9.1803,9.1803,9.1803,9.1803,9.1803,9.1803,9.1803,9.1803,9.1803,9.1803,9.1803,9.1803,9.1803,9.1803,9.1803,9.1803,0.0,0.0,0.0,0.0,0.0,0.0,0.0,0.0,0.0,0.0,5.6154,5.6145,5.5352,5.4902,5.4338,5.3592,5.3434,5.3691,5.4509,0.0,0.0,6.2683,6.4297,6.5925,6.7664,6.77,6.77,6.77,6.77,6.77,6.77,6.77,6.77,6.77,6.77,6.77,6.77,6.77,6.77,6.77,6.77,6.77,6.77,6.77,6.77,6.7811,6.8605,6.9412,7.022,7.1013,7.1821,0.0,0.0,0.0,7.5087,7.5983,7.8516,8.1232,8.2223,8.4646,8.6885,8.7105,8.7692,8.8023,8.7308,8.7178,8.7124,8.7014,8.6978,8.6978,8.6978,8.7088,8.7601,8.8996,8.9326,8.9877,9.1289,9.1583,9.1657,9.1657,9.173,9.1803,9.1803,9.1803,9.1803,9.1803,9.1803,9.1803,9.1803,9.1803,9.1803,9.1803,9.1803,9.1803,9.1803,9.1803,9.1803,9.1803,9.1803,9.1803,9.1803,9.1803,9.1803,9.1803,9.1803,9.1803,9.1803,9.1803,9.1803,9.1803,9.1803,9.1803,9.1803,9.1803,9.1803,9.1803,0.0,0.0,0.0,0.0,0.0,0.0,0.0,0.0,0.0,0.0,0.0,5.4985,5.4118,5.385,5.3581,5.3214,5.3214,5.3911,5.5647,5.8352,6.097,6.3429,6.4664,6.6035,6.7664,6.77,6.77,6.77,6.77,6.77,6.77,6.77,6.77,6.77,6.77,6.77,6.77,6.77,6.77,6.77,6.77,6.8495,6.9633,6.8715,6.9192,7.0367,7.0279,7.0463,7.0903,7.1711,7.2202,7.2496,7.2496,0.0,0.0,0.0,7.7451,8.0131,8.2296,8.4572,8.6554,8.7435,8.7619,8.7545,8.7655,8.7308,8.7124,8.7582,8.7655,8.7545,8.7088,8.7362,8.8059,8.9216,8.9767,9.0464,9.1657,9.1803,9.1803,9.1803,9.1803,9.1803,9.1803,9.1803,9.1803,9.1803,9.1803,9.1803,9.1803,9.1803,9.1803,9.1803,9.1803,9.1803,9.1803,9.1803,9.1803,9.1803,9.1803,9.1803,9.1803,9.1803,9.1803,9.1803,9.1803,9.1803,9.1803,9.1803,9.1803,9.1803,9.1803,9.1803,9.1803,9.1803,9.1803,9.1803,0.0,0.0,0.0,0.0,0.0,0.0,0.0,0.0,0.0,0.0,0.0,5.4547,5.3918,0.0,0.0,0.0,5.3629,5.4645,5.6664,5.9049,6.1337,6.3368,6.464,6.5962,6.737,6.759,6.77,6.77,6.77,6.77,6.77,6.77,6.77,6.77,6.77,6.77,6.77,6.77,6.77,6.7774,6.8582,7.0,7.1564,7.116,7.2151,7.3546,7.2334,7.2041,7.2224,7.2188,7.2349,7.2496,7.2496,7.3597,0.0,0.0,0.0,7.9507,8.2333,8.4278,8.5857,8.7509,8.7435,8.7198,8.8023,8.7582,8.7234,8.8023,8.8206,8.8096,8.7675,8.8096,8.872,8.929,9.006,9.0886,9.1693,9.1803,9.1803,9.1803,9.1803,9.1803,9.1803,9.1803,9.1803,9.1803,9.1803,9.1803,9.1803,9.1803,9.1803,9.1803,9.1803,9.1803,9.1803,9.1803,9.1803,9.1803,9.1803,9.1803,9.1803,9.1803,9.1803,9.1803,9.1803,9.1803,9.1803,9.1803,9.1803,9.1803,9.1803,9.1803,9.1803,9.1803,9.1803,9.1803,0.0,0.0,0.0,0.0,0.0,0.0,0.0,0.0,0.0,0.0,0.0,5.5632,5.5583,5.59,5.55,5.3898,5.4816,5.5842,5.6737,5.9049,6.0786,6.1679,6.4016,0.0,6.6549,6.7297,6.77,6.77,6.77,6.77,6.77,6.77,6.77,6.77,6.77,6.77,6.77,6.77,6.77,6.7958,7.1027,7.2349,7.2753,7.5747,7.6959,7.6738,7.4404,7.4074,7.4353,7.2114,7.1857,7.2496,7.2496,7.3597,7.4903,0.0,0.0,0.0,8.1782,8.3434,8.5049,8.6647,8.7014,8.7198,8.8023,8.7582,8.7234,8.8023,8.8206,8.8426,8.9143,8.9326,8.9363,8.94,9.006,9.0886,9.1693,9.1803,9.1803,9.1803,9.1803,9.1803,9.1803,9.1803,9.1803,9.1803,9.1803,9.1803,9.1803,9.1803,9.1803,9.1803,9.1803,9.1803,9.1803,9.1803,9.1803,9.1803,9.1803,9.1803,9.1803,9.1803,9.1803,9.1803,9.1803,9.1803,9.1803,9.1803,9.1803,9.1803,9.1803,9.1803,9.1803,9.1803,9.1803,9.1803,0.0,0.0,0.0,0.0,0.0,0.0,0.0,0.0,0.0,0.0,0.0,0.0,0.0,5.7061,5.6538,5.5069,5.5841,5.6921,5.8242,5.9636,6.1484,6.387,6.4811,6.5925,6.726,6.7554,6.77,6.77,6.77,6.77,6.77,6.77,6.77,6.77,6.77,6.77,6.77,6.77,6.77,6.7994,7.1211,7.312,7.428,7.6481,7.7949,7.8736,7.7341,0.0,0.0,7.3913,7.3105,0.0,0.0,7.3179,7.5087,7.6151,7.8038,8.0036,8.1122,8.259,8.4078,8.5196,8.6261,8.6958,8.6701,8.7252,8.7839,8.8133,8.861,8.9069,8.9363,8.94,8.9583,9.0097,9.0391,9.0886,9.1693,9.1803,9.1803,9.1803,9.1803,9.1803,9.1803,9.1803,9.1803,9.1803,9.1803,9.1803,9.1803,9.1803,9.1803,9.1803,9.1803,9.1803,9.1803,9.1803,9.1803,9.1803,9.1803,9.1803,9.1803,9.1803,9.1803,9.1803,9.1803,9.1803,9.1803,9.1803,9.1803,9.1803,9.1803,9.1803,9.1803,9.1803,9.1803,9.1803,0.0,0.0,0.0,0.0,0.0,5.9319,5.8781,5.8336,5.8151,5.8377,0.0,0.0,0.0,0.0,5.8332,5.7294,5.7435,5.8168,5.9526,6.0591,6.2169,6.4371,6.5251,6.6219,6.726,6.7554,6.77,6.77,6.77,6.77,6.77,6.77,6.77,6.77,6.77,6.77,6.7737,6.7994,6.8091,6.8458,7.2826,7.4698,7.5234,7.85,7.9764,7.9779,0.0,0.0,0.0,0.0,0.0,0.0,0.0,7.4243,7.5564,7.6922,7.8479,7.9926,8.0461,8.1782,8.3324,8.4682,8.5416,8.6004,8.6811,8.7215,8.7619,8.8426,8.8812,8.9143,8.9693,8.9803,8.9987,9.0519,9.0849,9.1179,9.173,9.1803,9.1803,9.1803,9.1803,9.1803,9.1803,9.1803,9.1803,9.1803,9.1803,9.1803,9.1803,9.1803,9.1803,9.1803,9.1803,9.1803,9.1803,9.1803,9.1803,9.1803,9.1803,9.1803,9.1803,9.1803,9.1803,9.1803,9.1803,9.1803,9.1803,9.1803,9.1803,9.1803,9.1803,9.1803,9.1803,9.1803,9.1803,9.1803,0.0,0.0,0.0,0.0,6.0136,5.9554,5.9554,5.8546,5.8337,5.993,0.0,0.0,0.0,0.0,0.0,6.0504,5.9747,5.9636,6.0456,6.1985,6.2866,6.2903,6.5228,6.6512,6.6512,6.7297,6.77,6.77,6.77,6.77,6.77,6.77,6.77,6.77,6.77,6.77,6.7811,6.8568,6.8921,6.9509,7.5946,7.7121,7.5711,8.215,8.2627,0.0,8.0865,8.0571,0.0,0.0,0.0,0.0,0.0,7.6738,7.6276,7.7105,7.8516,7.9816,0.0,0.0,0.0,8.5103,8.4572,8.4445,8.8335,8.7435,8.6444,8.8812,8.8666,8.8647,9.0262,9.0555,9.0537,9.0537,9.1253,9.1803,9.1803,9.1803,9.1803,9.1803,9.1803,9.1803,9.1803,9.1803,9.1803,9.1803,9.1803,9.1803,9.1803,9.1803,9.1803,9.1803,9.1803,9.1803,9.1803,9.1803,9.1803,9.1803,9.1803,9.1803,9.1803,9.1803,9.1803,9.1803,9.1803,9.1803,9.1803,9.1803,9.1803,9.1803,9.1803,9.1803,9.1803,9.1803,9.1803,9.1803,0.0,0.0,0.0,6.1527,6.1337,6.1169,6.1153,6.1355,6.1873,0.0,0.0,0.0,6.3632,6.2861,6.2278,6.2144,6.1949,6.2169,6.3025,6.3503,6.4273,6.5448,6.6145,6.6769,6.737,6.759,6.77,6.77,6.77,6.77,6.77,6.77,6.77,6.77,6.77,6.8031,6.8568,6.8825,6.9582,7.1013,7.5139,7.7121,0.0,0.0,0.0,0.0,0.0,8.323,8.1542,0.0,7.9947,7.7803,0.0,7.6276,7.6387,7.7818,7.8993,7.9926,8.0498,0.0,0.0,0.0,0.0,0.0,8.4922,8.5453,8.5984,8.6664,8.7068,8.7655,8.8683,8.9326,8.973,8.973,9.0922,9.1803,9.1803,9.1803,9.1803,9.1803,9.1803,9.1803,9.1803,9.1803,9.1803,9.1803,9.1803,9.1803,9.1803,9.1803,9.1803,9.1803,9.1803,9.1803,9.1803,9.1803,9.1803,9.1803,9.1803,9.1803,9.1803,9.1803,9.1803,9.1803,9.1803,9.1803,9.1803,9.1803,9.1803,9.1803,9.1803,9.1803,9.1803,9.1803,9.1803,9.1803,0.0,0.0,6.2991,6.2991,6.3057,6.314,6.3122,6.3191,6.3508,0.0,0.0,0.0,6.5012,6.4316,6.3857,6.3857,6.3857,6.404,6.4567,6.4897,6.5521,6.6439,6.6806,6.7223,6.77,6.77,6.77,6.77,6.77,6.77,6.77,6.77,6.77,6.77,6.8054,6.8641,6.9412,6.9765,7.0426,7.1674,7.5946,0.0,0.0,8.2296,8.3361,0.0,0.0,0.0,8.1505,8.3508,8.2039,0.0,0.0,0.0,7.6848,7.8222,7.9192,8.0,8.0791,8.1599,8.226,8.2627,0.0,0.0,8.4702,8.538,8.5984,8.6664,8.7178,8.7766,8.8573,8.883,8.9106,8.9803,9.0391,9.0922,9.1253,9.1583,9.1803,9.1803,9.1803,9.1803,9.1803,9.1803,9.1803,9.1803,9.1803,9.1803,9.1803,9.1803,9.1803,9.1803,9.1803,9.1803,9.1803,9.1803,9.1803,9.1803,9.1803,9.1803,9.1803,9.1803,9.1803,9.1803,9.1803,9.1803,9.1803,9.1803,9.1803,9.1803,9.1803,9.1803,9.1803,9.1803,9.1803,9.1803,0.0,0.0,6.4897,6.4974,6.5138,6.5331,6.5483,6.4642,6.4308,0.0,6.4906,6.4861,6.5521,6.5582,6.5582,6.5582,6.5582,6.5582,6.5582,6.6256,6.6623,6.6623,6.7333,6.77,6.77,6.77,6.77,6.77,6.77,6.77,6.77,6.77,6.77,6.7737,6.8531,6.9339,7.0146,7.094,7.1527,7.2261,7.7451,7.8405,0.0,0.0,8.292,8.0991,8.3838,8.303,8.1248,8.5343,8.4829,0.0,0.0,0.0,0.0,7.8552,7.9376,8.022,8.0938,8.1672,8.237,8.3087,8.2737,0.0,8.5803,8.5967,8.593,8.7362,8.7729,8.8059,8.8849,8.8353,8.8316,8.9821,8.962,8.9546,9.0354,9.1069,9.1546,9.1546,9.1546,9.1583,9.1657,9.1657,9.1693,9.1803,9.1803,9.1803,9.1803,9.1803,9.1803,9.1803,9.1803,9.1803,9.1803,9.1803,9.1803,9.1803,9.1803,9.1803,9.1803,9.1803,9.1803,9.1803,9.1803,9.1803,9.1803,9.1803,9.1803,9.1803,9.1803,9.1803,9.1803,9.1803,9.1803,9.1803,6.4627,6.5677,6.6659,6.7398,6.7118,6.732,6.8653,6.7752,6.7395,6.8867,6.8415,6.7797,6.7297,6.7223,6.7223,6.7223,6.7223,6.7223,6.7223,6.737,6.748,6.748,6.7627,6.77,6.77,6.77,6.77,6.77,6.77,6.77,6.77,6.77,6.77,6.7737,6.8531,6.9339,7.0146,7.094,7.2812,7.5322,7.7069,0.0,8.1269,8.3691,8.5013,8.5673,8.6334,8.6151,8.5563,0.0,8.4646,8.3691,0.0,0.0,0.0,7.989,8.0587,8.1746,8.1929,8.2076,8.2223,0.0,0.0,0.0,8.2994,8.3508,8.3968,8.4262,8.4866,8.5563,8.6334,8.5857,8.5637,8.6591,8.7692,8.872,8.951,8.9767,8.9877,8.9877,8.9877,9.0097,9.0776,9.0849,9.1106,9.173,9.1803,9.1803,9.1803,9.1803,9.1803,9.1803,9.1803,9.1803,9.1803,9.1803,9.1803,9.1803,9.1803,9.1803,9.1803,9.1803,9.1803,9.1803,9.1803,9.1803,9.1803,9.1803,9.1803,9.1803,9.1803,9.1803,9.1803,9.1803,9.1803,9.1803,6.6595,6.7584,6.8481,6.9035,6.9008,6.923,7.021,6.9512,6.9045,6.9449,6.8788,6.8311,6.8311,6.7958,6.77,6.77,6.77,6.77,6.77,6.77,6.77,6.77,6.77,6.77,6.77,6.77,6.77,6.77,6.77,6.77,6.77,6.77,6.8545,7.0073,6.9669,7.0624,7.2459,7.2078,7.3289,7.5689,7.7708,0.0,8.303,8.5049,8.628,8.6978,8.6978,8.6738,8.604,8.3618,8.3067,0.0,0.0,8.1599,8.1525,0.0,8.1578,8.2186,0.0,0.0,0.0,8.2186,0.0,0.0,0.0,8.3434,8.4005,8.4005,8.4646,8.5306,8.571,8.5123,8.4866,8.5673,8.6811,8.7472,8.7051,8.8739,8.984,8.9436,8.9767,8.9987,8.9987,9.0739,9.1363,9.1767,9.1803,9.1803,9.1803,9.1803,9.1803,9.1803,9.1803,9.1803,9.1803,9.1803,9.1803,9.1803,9.1803,9.1803,9.1803,9.1803,9.1803,9.1803,9.1803,9.1803,9.1803,9.1803,9.1803,9.1803,9.1803,9.1803,9.1803,9.1803,9.1803,9.1803,6.8346,6.911,6.9789,7.0326,7.0493,7.0769,7.1317,7.0779,7.0036,6.9229,6.8972,6.9045,6.9559,6.9302,6.9096,6.9096,6.9242,6.9132,6.8655,6.8618,6.8618,6.8618,6.8031,6.7921,6.8385,6.8104,6.7847,6.77,6.7847,6.7847,6.77,6.7847,6.9302,7.1798,7.1248,7.2312,7.439,7.356,7.4316,7.6298,0.0,8.0865,8.2757,8.5326,8.6207,8.6114,8.6444,8.6114,8.5159,8.259,0.0,8.292,8.3104,8.2684,0.0,0.0,0.0,0.0,0.0,0.0,0.0,0.0,0.0,8.2553,0.0,0.0,0.0,8.4168,8.4646,8.5103,8.5103,8.4462,8.4132,8.4756,8.582,8.6023,8.4572,8.7435,0.0,8.8556,8.9436,8.9895,8.9216,9.0482,9.14,9.1546,9.1436,9.1473,9.1767,9.1803,9.1803,9.1803,9.1803,9.1803,9.1803,9.1803,9.1803,9.1803,9.1803,9.1803,9.1803,9.1803,9.1803,9.1803,9.1803,9.1803,9.1803,9.1803,9.1803,9.1803,9.1803,9.1803,9.1803,9.1803,9.1803,9.1803,6.8782,6.9062,6.9803,7.134,7.1212,7.1366,7.2882,7.2012,7.0866,7.0073,7.1739,7.2789,7.2165,7.3289,7.4059,7.4059,7.4735,0.0,7.2092,7.1945,7.1945,7.1945,6.9242,6.8678,7.083,6.9472,6.8421,6.77,6.8421,6.8385,6.7737,6.8421,6.8972,6.9449,7.2848,7.378,7.2899,7.4845,7.7488,8.0277,7.9963,7.9559,0.0,8.261,8.3361,8.292,8.4352,8.4829,8.4682,0.0,8.4719,8.5029,0.0,8.4168,8.5766,8.2994,0.0,0.0,0.0,0.0,0.0,0.0,8.2737,0.0,0.0,0.0,8.3308,8.2627,0.0,0.0,0.0,0.0,0.0,8.1525,0.0,0.0,8.3638,8.5159,8.604,8.5233,8.7105,8.8426,8.8353,8.9143,8.995,9.0702,9.006,9.028,9.173,9.1803,9.1803,9.1803,9.1803,9.1803,9.1803,9.1803,9.1803,9.1803,9.1803,9.1803,9.1803,9.1803,9.1803,9.1803,9.1803,9.1803,9.1803,9.1803,9.1803,9.1803,9.1803,9.1803,9.1803,9.1803,9.1803,9.1803,6.9134,6.9188,6.9577,7.0417,7.0753,7.1181,7.2066,7.1664,7.1344,7.1468,7.1541,7.1784,7.228,7.2505,7.3209,0.0,0.0,7.4141,0.0,0.0,7.2092,7.1138,6.9376,6.9082,7.0587,6.9486,6.8972,6.9096,6.9412,6.9412,6.9082,6.9449,7.0844,7.312,7.4353,7.5821,7.7414,7.6959,7.7582,0.0,0.0,0.0,0.0,8.3344,8.5013,8.4242,8.4022,8.3895,8.3895,0.0,8.3838,0.0,0.0,0.0,0.0,0.0,0.0,0.0,0.0,0.0,0.0,0.0,0.0,0.0,8.248,0.0,8.2627,0.0,0.0,0.0,0.0,0.0,0.0,0.0,8.303,0.0,0.0,0.0,8.5857,0.0,0.0,0.0,8.9454,8.9473,8.9913,9.1216,9.0555,9.0592,9.173,9.1803,9.1803,9.1803,9.1803,9.1803,9.1803,9.1803,9.1803,9.1803,9.1803,9.1803,9.1803,9.1803,9.1803,9.1803,9.1803,9.1803,9.1803,9.1803,9.1803,9.1803,9.1803,9.1803,9.1803,9.1803,9.1803,9.1803,6.9302,6.9064,6.9076,6.9694,7.03,7.0911,7.1539,7.1913,7.2361,7.3033,7.2593,7.2628,7.3665,7.4062,0.0,0.0,7.663,7.6476,0.0,0.0,7.3757,7.3033,7.0565,0.0,7.1725,7.033,6.9743,7.011,7.033,7.044,7.044,7.044,7.2239,7.5432,7.5527,7.7326,8.0241,7.8904,7.8573,7.894,7.872,7.8699,7.9213,8.3434,8.5086,8.4976,8.3581,8.3344,8.3711,8.3454,8.3324,0.0,8.4976,0.0,0.0,0.0,0.0,0.0,8.3785,0.0,0.0,0.0,0.0,0.0,0.0,0.0,0.0,0.0,0.0,0.0,0.0,0.0,0.0,0.0,0.0,0.0,0.0,0.0,0.0,0.0,0.0,0.0,0.0,8.8996,8.916,9.0996,9.0188,9.0262,9.173,9.1803,9.1803,9.1803,9.1803,9.1803,9.1803,9.1803,9.1803,9.1803,9.1803,9.1803,9.1803,9.1803,9.1803,9.1803,9.1803,9.1803,9.1803,9.1803,9.1803,9.1803,9.1803,9.1803,9.1803,9.1803,9.1803,9.1803,6.9302,6.8464,6.8232,6.9821,7.0115,7.0652,7.2239,7.3454,7.4301,7.4598,7.639,0.0,0.0,0.0,0.0,0.0,0.0,8.3978,8.1601,0.0,7.877,0.0,0.0,7.1908,0.0,7.2812,7.083,7.011,7.0866,7.127,7.127,7.127,7.2151,7.3891,7.6188,7.7766,7.8772,8.0241,8.1766,8.3124,8.237,8.3451,8.5103,0.0,8.1452,8.3381,8.2553,0.0,0.0,8.3638,8.4425,0.0,0.0,0.0,0.0,0.0,0.0,0.0,0.0,0.0,0.0,8.281,0.0,0.0,0.0,0.0,8.3124,0.0,0.0,0.0,0.0,0.0,0.0,0.0,0.0,0.0,0.0,0.0,0.0,0.0,0.0,0.0,0.0,8.6848,8.6921,0.0,8.8005,8.85,9.162,9.1803,9.1803,9.1803,9.1803,9.1803,9.1803,9.1803,9.1803,9.1803,9.1803,9.1803,9.1803,9.1803,9.1803,9.1803,9.1803,9.1803,9.1803,9.1803,9.1803,9.1803,9.1803,9.1803,9.1803,9.1803,9.1803,9.1803,7.0224,7.0283,7.0428,7.0442,7.1008,7.2185,7.4199,7.5313,0.0,0.0,0.0,0.0,0.0,8.0418,8.1879,0.0,0.0,8.4363,8.4226,8.1528,0.0,0.0,0.0,7.3854,0.0,0.0,7.2239,7.2459,7.2753,7.2899,7.2899,7.3435,7.4258,7.5359,7.7304,7.9213,8.1012,8.1562,0.0,0.0,0.0,8.1415,8.2663,0.0,8.3471,8.4095,8.3271,8.2994,0.0,8.3948,8.4572,8.5233,8.6554,8.6628,8.6407,8.7472,8.6664,8.571,0.0,0.0,8.6921,8.5049,0.0,0.0,0.0,0.0,0.0,0.0,0.0,0.0,0.0,0.0,0.0,0.0,0.0,0.0,0.0,0.0,0.0,0.0,0.0,0.0,0.0,0.0,0.0,0.0,8.94,0.0,9.1693,9.1803,9.1803,9.1803,9.1803,9.1803,9.1803,9.1803,9.1803,9.1803,9.1803,9.1803,9.1803,9.1803,9.1803,9.1803,9.1803,9.1803,9.1803,9.1803,9.1803,9.1803,9.1803,9.1803,9.1803,9.1803,9.1803,9.1803,7.1763,7.2164,7.239,7.1597,7.2703,7.4203,7.5749,0.0,0.0,0.0,7.954,0.0,8.1323,0.0,8.3476,0.0,8.5552,8.566,8.5819,8.3427,0.0,8.2067,7.8079,0.0,0.0,0.0,7.4478,7.4992,7.4404,7.4258,7.4551,7.4515,7.5212,7.6533,7.6754,7.8846,8.2186,8.1893,8.226,0.0,0.0,8.1305,0.0,0.0,8.3985,8.3728,0.0,8.3434,8.3618,8.4682,8.5233,8.5747,8.7288,8.7252,8.6921,8.8243,8.7729,8.7031,8.828,8.8647,0.0,8.6628,8.6628,0.0,8.3654,0.0,0.0,0.0,0.0,0.0,0.0,0.0,0.0,0.0,0.0,0.0,0.0,0.0,0.0,0.0,0.0,0.0,0.0,0.0,0.0,0.0,0.0,0.0,0.0,9.1253,9.1216,9.1767,9.151,9.151,9.1803,9.1803,9.1803,9.1803,9.1803,9.1803,9.1803,9.1803,9.1803,9.1803,9.1803,9.1803,9.1803,9.1803,9.1803,9.1803,9.1803,9.1803,9.1803,9.1803,9.1803,9.1803,7.3776,7.4045,7.4175,7.3436,7.5093,7.6665,7.69,0.0,8.0112,0.0,8.2399,8.3793,8.3832,8.6025,8.7132,8.6363,8.7769,0.0,8.6688,8.5117,0.0,0.0,8.1579,8.0661,8.226,0.0,0.0,0.0,7.5747,7.5322,7.6019,7.4551,7.5102,7.7215,7.4918,7.6974,8.215,8.1379,8.2443,8.4462,8.2884,8.3141,8.4352,8.3601,8.2884,8.2296,8.3177,8.4425,8.569,8.5764,8.6334,8.7014,8.7051,8.7655,8.8463,8.9216,9.0024,9.0482,8.973,8.951,8.9143,8.7528,8.7124,0.0,0.0,0.0,8.5453,0.0,0.0,0.0,0.0,0.0,0.0,0.0,0.0,0.0,0.0,0.0,0.0,0.0,0.0,0.0,0.0,0.0,0.0,0.0,0.0,0.0,0.0,9.028,9.0134,9.173,9.1106,9.1069,9.1803,9.184,9.184,9.1803,9.1803,9.1803,9.1803,9.1803,9.1803,9.1803,9.1803,9.1803,9.1803,9.1803,9.1803,9.1803,9.1803,9.1803,9.1803,9.1803,9.1803,9.1803,7.5399,7.6463,7.7422,7.751,7.8294,7.8933,0.0,0.0,0.0,0.0,8.5296,8.6671,8.7333,8.7987,8.8517,8.8893,8.8864,0.0,0.0,0.0,0.0,8.7101,8.3588,8.2333,8.3948,8.0241,0.0,7.7289,7.6298,7.5579,7.5234,7.6004,7.6702,7.7289,7.6665,7.8552,8.2186,8.1966,8.2957,8.4499,8.3508,8.261,8.1966,0.0,8.237,8.237,8.3801,8.4168,8.4205,8.538,8.6334,8.7088,8.7692,8.8867,9.0041,9.0207,9.0849,9.1436,9.1253,9.1179,9.0812,8.9179,8.8776,8.8372,0.0,0.0,0.0,0.0,0.0,0.0,0.0,0.0,0.0,0.0,0.0,0.0,0.0,0.0,0.0,0.0,0.0,0.0,0.0,0.0,0.0,0.0,0.0,0.0,0.0,0.0,9.0134,9.173,9.2244,9.2244,9.1803,9.2427,9.2427,9.1803,9.1803,9.1803,9.1803,9.1803,9.1803,9.1803,9.1803,9.1803,9.1803,9.1803,9.1803,9.1803,9.1803,9.1803,9.1803,9.1803,9.1803,9.1803,7.7363,7.8382,7.9411,7.9728,8.0784,0.0,8.1592,8.2798,0.0,8.5299,8.6652,0.0,8.8615,8.9363,8.9862,8.9976,8.9638,0.0,8.8734,0.0,0.0,8.7058,8.5279,8.4719,8.5637,8.2737,0.0,7.9417,0.0,7.7121,7.5968,7.6518,7.6775,7.6775,7.6775,7.8222,8.0681,8.1746,8.292,8.4022,8.3214,8.2537,0.0,8.2553,8.2737,8.2957,8.4535,8.4829,8.4646,8.5894,8.6628,8.7124,8.7949,8.905,9.0134,9.0501,9.1179,9.1803,9.1803,9.1803,9.1583,9.0702,9.0427,9.0024,8.8409,8.8133,8.7839,0.0,0.0,0.0,0.0,0.0,0.0,0.0,0.0,0.0,0.0,0.0,0.0,0.0,0.0,0.0,0.0,0.0,0.0,0.0,0.0,0.0,0.0,0.0,8.9784,9.173,9.1583,9.1767,9.2354,9.2134,9.2134,9.2354,9.1987,9.1803,9.1803,9.1803,9.1803,9.1803,9.1803,9.1803,9.1803,9.1803,9.1803,9.1803,9.1803,9.1803,9.1803,9.1803,9.1803,9.1803,7.9438,8.0065,8.0842,0.0,0.0,0.0,0.0,8.4365,0.0,8.615,0.0,8.8196,8.8718,9.006,9.0684,9.0001,0.0,8.9036,8.7183,8.7643,8.7328,8.5854,8.6591,8.6941,8.6831,8.538,0.0,0.0,0.0,7.8883,7.7142,7.6533,7.6276,7.6276,7.6276,7.7268,7.9066,8.1379,8.2774,8.3344,8.2627,8.27,8.3234,8.3344,8.3454,8.3748,8.527,8.58,8.593,8.6738,8.7051,8.7288,8.7986,8.883,8.9693,9.0391,9.1179,9.1803,9.1803,9.1803,9.1803,9.1803,9.1803,9.1436,9.0024,8.916,8.8426,8.7638,8.6297,8.582,0.0,0.0,0.0,0.0,0.0,0.0,0.0,0.0,0.0,0.0,0.0,0.0,0.0,0.0,0.0,0.0,0.0,0.0,0.0,0.0,0.0,9.1583,9.0501,9.0794,9.2758,9.1546,9.1546,9.2758,9.2097,9.1803,9.1803,9.1803,9.1803,9.1803,9.1803,9.1803,9.1803,9.1803,9.1803,9.1803,9.1803,9.1803,9.1803,9.1803,9.1803,9.1803,8.1289,8.2276,8.2746,0.0,0.0,8.4995,8.5255,8.6758,8.775,8.7394,8.8682,8.9516,8.9096,8.9274,8.9426,8.9301,8.876,0.0,0.0,0.0,0.0,8.5837,8.6591,8.6701,8.6004,8.5086,8.3508,0.0,0.0,7.8605,7.6313,7.6848,7.7105,7.7105,7.7105,7.839,8.0681,8.2427,8.3271,8.3381,8.3234,8.2884,8.248,8.3124,8.3821,8.4499,8.5453,8.58,8.593,8.6738,8.7435,8.8023,8.8169,8.9197,9.0427,9.0537,9.1179,9.1803,9.1803,9.1803,9.1803,9.1803,9.1803,9.173,9.1436,9.1253,9.0922,9.0152,8.9216,8.8262,8.7399,0.0,0.0,0.0,0.0,0.0,0.0,0.0,0.0,0.0,0.0,0.0,0.0,0.0,0.0,0.0,0.0,0.0,0.0,0.0,0.0,0.0,9.1877,0.0,0.0,0.0,9.2134,9.1033,9.1546,9.1803,9.1803,9.1803,9.1803,9.1803,9.1803,9.1803,9.1803,9.1803,9.1803,9.1803,9.1803,9.1803,9.1803,9.1803,9.1803,9.1803,8.4187,8.3875,0.0,0.0,0.0,0.0,8.619,8.7777,8.864,8.7788,8.8129,8.8454,8.8416,8.8844,8.8963,8.8631,8.7883,8.7306,8.6941,8.6571,8.6004,8.5196,8.6371,0.0,8.582,8.582,8.4462,8.1636,0.0,7.9984,7.6738,7.7582,7.7509,7.6702,7.7582,7.8883,8.0461,8.2076,8.2553,8.217,8.2627,8.2553,8.2296,8.3087,8.3895,8.4719,8.549,8.6077,8.6554,8.7362,8.7876,8.8353,8.9197,8.9968,9.0702,9.1106,9.151,9.1803,9.1803,9.1803,9.1803,9.1803,9.1803,9.1803,9.1803,9.1473,9.1069,9.0702,8.995,8.8923,8.7308,8.5363,0.0,0.0,0.0,0.0,0.0,0.0,0.0,0.0,0.0,0.0,0.0,0.0,0.0,0.0,0.0,0.0,0.0,0.0,8.8316,0.0,0.0,0.0,0.0,0.0,9.206,9.2501,9.2024,9.1803,9.1803,9.1803,9.1803,9.1803,9.1803,9.1803,9.1803,9.1803,9.1803,9.1803,9.1803,9.1803,9.1803,9.1803,9.1803,9.1803,8.6288,8.5053,8.4015,0.0,8.5302,8.6051,8.6591,8.7792,8.848,8.7939,8.7444,8.7279,8.7604,8.8223,8.8446,8.7892,8.7118,8.6429,8.5834,8.5637,8.527,8.4646,8.5967,8.6444,8.582,8.6591,8.56,0.0,0.0,8.1583,7.8096,7.8442,7.8002,7.6937,7.8075,7.925,8.0367,8.1489,8.1672,8.1305,8.1929,8.2186,8.2296,8.3087,8.3785,8.4462,8.5453,8.6224,8.6885,8.7876,8.8316,8.8683,8.995,9.0592,9.0996,9.162,9.1803,9.1803,9.1803,9.1803,9.1803,9.1803,9.1803,9.1803,9.1803,9.1326,9.0849,9.0849,9.0207,8.9143,8.7528,8.6224,0.0,0.0,0.0,0.0,0.0,0.0,0.0,0.0,0.0,0.0,0.0,0.0,0.0,0.0,0.0,0.0,8.7288,0.0,0.0,0.0,0.0,9.1546,9.3492,0.0,9.184,9.3749,9.2427,9.1803,9.1803,9.1803,9.1803,9.1803,9.1803,9.1803,9.1803,9.1803,9.1803,9.1803,9.1803,9.1803,9.1803,9.1803,9.1803,9.1803,8.5791,8.5529,8.525,8.4706,0.0,8.6493,8.5962,8.6648,8.7423,8.7995,8.804,8.7734,8.7134,8.716,8.7163,8.7115,8.636,8.5885,8.58,8.5123,8.4682,8.4609,8.5453,8.5874,8.58,8.6591,8.6133,0.0,0.0,8.2463,8.0629,7.925,7.8919,7.9449,7.8846,7.9837,0.0,8.1379,8.1489,8.2076,8.215,8.2186,8.2296,8.3087,8.3454,8.3711,8.5233,8.5874,8.6151,8.7692,8.8683,8.9326,8.9473,9.0519,9.1693,9.1767,9.1803,9.1803,9.1803,9.1803,9.1803,9.1803,9.1803,9.1803,9.1803,9.173,9.1693,9.1693,9.1069,9.0005,8.839,8.7949,8.7619,0.0,0.0,0.0,0.0,0.0,0.0,0.0,0.0,0.0,0.0,0.0,0.0,0.0,8.3711,0.0,0.0,0.0,0.0,8.9583,9.0244,9.0702,9.0959,9.1436,9.1803,9.2024,9.1877,9.1803,9.1803,9.1803,9.1803,9.1803,9.1803,9.1803,9.1803,9.1803,9.1803,9.1803,9.1803,9.1803,9.1803,9.1803,9.1803,9.1803,8.8355,8.7609,8.7032,8.7246,8.737,8.7389,8.7216,8.7346,8.7436,8.7325,8.7397,8.7311,8.7029,8.6591,8.6481,8.6941,8.538,8.4572,8.5049,8.4352,8.3654,8.3177,8.4389,8.4866,8.4389,8.5637,8.549,0.0,0.0,0.0,8.1012,8.0828,8.0681,8.0534,8.1195,8.1489,8.1562,8.27,8.2774,8.2186,8.2186,8.248,8.2957,8.3271,8.3711,8.4278,8.538,8.6114,8.6701,8.7802,8.872,8.9473,8.995,9.0886,9.1803,9.1803,9.1803,9.1803,9.1803,9.1803,9.1803,9.1803,9.1803,9.1803,9.1803,9.1803,9.1803,9.1803,9.1546,9.0996,8.9858,8.9271,8.8812,0.0,0.0,0.0,0.0,0.0,0.0,0.0,0.0,0.0,0.0,0.0,0.0,0.0,0.0,0.0,0.0,0.0,0.0,8.861,0.0,9.1326,9.1363,9.1657,9.206,9.2574,9.206,9.1803,9.1803,9.1803,9.1803,9.1803,9.1803,9.1803,9.1803,9.1803,9.1803,9.1803,9.1803,9.1803,9.1803,9.1803,9.1803,9.1803,8.9121,8.8214,8.7776,8.858,8.8254,8.7909,8.7997,8.7708,8.7278,8.6794,8.683,8.6798,8.6627,8.5899,8.5783,8.6591,8.4665,8.3827,8.4825,8.3919,8.3292,8.3133,8.4244,0.0,8.4419,8.5505,8.5557,8.4445,8.4572,0.0,8.2076,8.1893,8.1672,8.1379,8.228,8.2463,8.215,8.3361,8.3398,8.2553,8.2553,8.2884,8.3381,8.3381,8.3748,8.4315,8.4903,8.5747,8.6775,8.7582,8.872,8.984,9.0427,9.1143,9.1803,9.1803,9.1803,9.1803,9.1803,9.1803,9.1803,9.1803,9.1803,9.1803,9.1803,9.1803,9.1803,9.1803,9.1803,9.162,9.1069,9.028,8.9693,8.9436,0.0,0.0,0.0,0.0,0.0,0.0,0.0,0.0,0.0,0.0,0.0,0.0,0.0,0.0,0.0,0.0,0.0,0.0,0.0,0.0,9.1895,9.184,9.2244,9.3088,9.2207,9.1803,9.1803,9.1803,9.1803,9.1803,9.1803,9.1803,9.1803,9.1803,9.1803,9.1803,9.1803,9.1803,9.1803,9.1803,9.1803,9.1803,8.677,8.6619,8.6883,8.7687,8.78,8.7787,8.7787,8.7146,8.6618,8.6605,8.6605,8.6331,8.5677,8.5007,8.4939,8.5764,8.4352,8.3998,8.547,8.4106,8.3848,0.0,0.0,8.5827,8.6743,8.678,8.6841,8.6941,0.0,0.0,8.4499,8.215,8.1415,8.215,8.1379,8.2333,8.4462,8.2884,8.27,8.3381,8.3381,8.3381,8.3381,8.3381,8.3418,8.3418,8.3418,8.4462,8.593,8.6738,8.8592,9.0592,9.0592,9.1143,9.1803,9.1803,9.1803,9.1803,9.1803,9.1803,9.1803,9.1803,9.1803,9.1803,9.1803,9.1803,9.1803,9.1803,9.1803,9.1803,9.1803,9.1143,9.0317,8.9546,0.0,0.0,0.0,0.0,0.0,0.0,0.0,0.0,0.0,0.0,0.0,0.0,0.0,0.0,0.0,0.0,0.0,8.9326,9.017,0.0,9.1895,9.184,9.2244,9.3088,9.2207,9.1803,9.1803,9.1803,9.1803,9.1803,9.1803,9.1803,9.1803,9.1803,9.1803,9.1803,9.1803,9.1803,9.1803,9.1803,9.1803,9.1803,8.8078,8.801,8.8097,8.8383,8.8421,8.8262,8.774,8.7375,8.6943,8.6463,8.5925,8.5516,8.5283,8.5194,8.5475,0.0,8.489,8.44,0.0,8.4452,8.4079,8.4544,8.4146,8.4261,8.5002,8.4658,8.4722,8.5226,0.0,0.0,8.3748,8.2443,8.226,8.3014,8.2757,8.3051,8.3748,8.3251,8.3161,8.3344,8.281,8.292,8.3381,8.3381,8.3381,8.3528,8.4646,8.538,8.6004,8.7362,8.8666,8.9767,8.9767,9.0702,9.1803,9.1803,9.1803,9.1803,9.1803,9.1803,9.1803,9.1803,9.1803,9.1803,9.1803,9.1803,9.1803,9.1803,9.1803,9.1803,9.1803,9.1583,9.1143,9.0354,9.0445,0.0,0.0,0.0,0.0,0.0,0.0,0.0,0.0,8.7142,0.0,0.0,0.0,0.0,0.0,0.0,0.0,0.0,9.0445,0.0,9.1033,9.1546,9.195,9.2207,9.1913,9.1803,9.1803,9.1803,9.1803,9.1803,9.1803,9.1803,9.1803,9.1803,9.1803,9.1803,9.1803,9.1803,9.1803,9.1803,9.1803,9.1803,8.7786,8.7987,8.8218,8.8218,8.8218,8.8076,8.76,8.7172,8.6752,8.6279,8.5791,8.5495,8.5495,8.5606,0.0,8.6103,8.4959,8.4628,8.5664,8.498,8.4548,8.4548,8.4154,8.404,8.4287,8.3945,0.0,8.4475,8.3754,8.3234,8.2957,8.2443,8.248,8.2957,8.2957,8.3124,8.3381,8.3087,8.3124,8.3344,8.2847,8.2957,8.3418,8.3748,8.3858,8.3985,8.4976,8.5747,8.6407,8.7399,8.8666,8.9803,8.951,9.028,9.1363,9.1363,9.1363,9.1436,9.173,9.1803,9.1803,9.1803,9.1803,9.1803,9.1803,9.1803,9.1803,9.1803,9.1803,9.1803,9.1803,9.1803,9.1657,9.1143,9.1069,9.0592,8.9307,0.0,0.0,0.0,0.0,0.0,0.0,8.8463,0.0,0.0,0.0,0.0,0.0,0.0,0.0,8.905,9.0849,0.0,9.1069,9.1546,9.1803,9.1803,9.1803,9.1803,9.1803,9.1803,9.1803,9.1803,9.1803,9.1803,9.1803,9.1803,9.1803,9.1803,9.1803,9.1803,9.1803,9.1803,9.1803,9.1803,8.6247,8.6748,8.7325,8.7325,8.7325,8.7325,8.7325,8.6632,8.6094,8.6094,8.6094,8.6094,8.6094,8.6094,8.5924,8.5493,8.4766,8.4889,8.6125,8.5519,8.51,8.502,8.4978,8.4796,8.4393,8.4301,8.4327,8.4425,8.3675,8.2904,8.2186,8.2186,8.2186,8.2186,8.2186,8.2663,8.3344,8.2553,8.2663,8.3381,8.3344,8.3308,8.3381,8.4205,8.4499,8.4462,8.4609,8.56,8.6831,8.6941,8.8482,9.0207,8.9473,8.973,9.0372,9.0555,9.0592,9.0776,9.1583,9.1803,9.1803,9.1803,9.1803,9.1803,9.1803,9.1803,9.1803,9.1803,9.1803,9.1803,9.1803,9.1803,9.1803,9.1803,9.1803,9.151,9.0702,0.0,0.0,0.0,0.0,0.0,0.0,8.7876,8.8867,0.0,0.0,0.0,0.0,0.0,8.8225,9.0629,9.14,9.1803,9.1803,9.1803,9.1803,9.1803,9.1803,9.1803,9.1803,9.1803,9.1803,9.1803,9.1803,9.1803,9.1803,9.1803,9.1803,9.1803,9.1803,9.1803,9.1803,9.1803,9.1803,9.1803,8.6132,8.6286,8.6401,8.6401,8.6401,8.6401,8.6401,8.6247,8.6094,8.6094,8.6094,8.6094,8.6094,8.6094,8.6039,8.5923,8.576,8.5571,8.5398,8.5225,8.4893,8.4432,8.3928,8.3845,8.4241,8.3247,8.2727,8.2774,8.259,8.237,8.2186,8.2186,8.2186,8.2186,8.2186,8.2663,8.3344,8.2553,8.2663,8.3344,8.2737,8.248,8.2553,8.3398,8.3324,8.2994,8.4829,8.538,8.538,8.6591,8.7381,8.7822,8.7638,8.7711,8.8189,9.0078,9.0592,9.0776,9.1583,9.1803,9.1803,9.1803,9.1803,9.1803,9.1803,9.1803,9.1803,9.1803,9.1803,9.1803,9.1803,9.1803,9.1803,9.1803,9.1803,9.151,9.0702,9.0776,9.0592,0.0,8.9363,8.929,8.9693,8.9363,8.8996,0.0,0.0,0.0,8.9913,8.9253,8.9657,9.1473,9.1693,9.1803,9.1803,9.1803,9.1803,9.1803,9.1803,9.1803,9.1803,9.1803,9.1803,9.1803,9.1803,9.1803,9.1803,9.1803,9.1803,9.1803,9.1803,9.1803,9.1803,9.1803,9.1803,9.1803,8.6094,8.6094,8.6094,8.6094,8.6094,8.6094,8.6094,8.6094,8.6094,8.6094,8.6094,8.5971,8.5682,8.5655,8.5523,8.525,8.5485,8.5504,8.5131,8.4839,8.442,8.3759,8.3378,8.3232,8.3289,8.2554,8.2186,8.2186,8.2186,8.2186,8.2186,8.2186,8.2186,8.2186,8.2186,8.2443,8.281,8.237,8.2443,8.281,8.237,8.2406,8.281,8.3234,8.3581,8.4022,8.5323,8.5747,8.582,8.6721,8.7234,8.7472,8.7124,8.7252,8.7802,8.9124,8.9491,8.9748,9.0922,9.1253,9.1253,9.1253,9.1253,9.1179,9.0812,9.0702,9.0812,9.1179,9.1253,9.1363,9.173,9.1803,9.1803,9.1803,9.1803,9.1657,9.1216,9.0849,9.0592,9.0592,8.9877,8.9583,8.9987,8.9657,8.9363,8.9307,8.8977,0.0,9.0445,9.0134,9.0519,9.1767,9.1803,9.1803,9.1803,9.1803,9.1803,9.1803,9.1803,9.1803,9.1803,9.1803,9.1803,9.1803,9.1803,9.1803,9.1803,9.1803,9.1803,9.1803,9.1803,9.1803,9.1803,9.1803,9.1803,9.1803,8.6094,8.6094,8.6094,8.6094,8.6094,8.6094,8.6094,8.6094,8.6094,8.6094,8.6094,8.5837,8.5172,8.511,8.4926,8.4429,8.4658,8.4817,8.4817,8.4349,8.3733,8.3097,8.3053,8.2778,8.2203,8.2333,8.237,8.237,8.237,8.2333,8.2186,8.2186,8.226,8.237,8.226,8.226,8.237,8.226,8.2186,8.2186,8.2186,8.27,8.3418,8.3528,8.4425,8.5637,8.5894,8.6334,8.6848,8.6941,8.7472,8.7912,8.7215,8.7472,8.8023,8.8023,8.8023,8.839,8.9987,9.0427,9.0427,9.0427,9.0427,9.0244,8.9546,8.94,8.9583,9.028,9.0427,9.0665,9.1473,9.162,9.1583,9.1473,9.1657,9.1657,9.1289,9.0886,9.0592,9.0592,8.9877,8.9436,8.9583,8.9583,8.984,9.0555,8.995,9.0207,9.173,9.1033,9.0959,9.1767,9.1803,9.1803,9.1803,9.1803,9.1803,9.1803,9.1803,9.1803,9.1803,9.1803,9.1803,9.1803,9.1803,9.1803,9.1803,9.1803,9.1803,9.1803,9.1803,9.1803,9.1803,9.1803,9.1803,9.1803,8.6094,8.6094,8.6094,8.6094,8.6094,8.6094,8.6094,8.6094,8.6094,8.6094,8.6094,8.5837,8.5172,8.511,8.5143,8.5197,8.4159,8.3502,8.3502,8.3405,8.3068,8.2391,8.2359,8.2295,8.2203,8.2884,8.3197,8.3197,8.3197,8.2884,8.2186,8.2186,8.2553,8.3161,8.2517,8.259,8.3161,8.248,8.2186,8.2186,8.2186,8.27,8.3454,8.4168,8.4572,8.4976,8.6334,8.6444,8.6077,8.6775,8.7088,8.7178,8.7014,8.7088,8.7215,8.7215,8.7215,8.7528,8.9143,8.9583,8.9583,8.9583,8.9583,8.9546,8.9436,8.94,8.9436,8.9546,8.9583,8.984,9.0629,9.0812,9.0537,8.9877,9.0922,9.1069,8.905,8.9821,9.0592,9.0592,8.9877,8.9657,9.0354,9.0391,9.0464,9.0592,9.0464,9.0812,9.173,9.1033,9.0959,9.1767,9.1803,9.1803,9.1803,9.1803,9.1803,9.1803,9.1803,9.1803,9.1803,9.1803,9.1803,9.1803,9.1803,9.1803,9.1803,9.1803,9.1803,9.1803,9.1803,9.1803,9.1803,9.1803,9.1803,9.1803,8.6094,8.6094,8.6094,8.6094,8.6094,8.6094,8.6094,8.6094,8.5962,8.5627,8.5551,8.5172,8.4178,8.4469,8.445,8.3756,8.3839,8.3756,8.3349,8.2884,8.2528,8.2203,8.2186,8.2406,8.2847,8.3197,8.3381,8.3381,8.3381,8.2994,8.2186,8.2627,8.3014,8.3381,8.3014,8.3051,8.3344,8.2553,8.2186,8.2223,8.2663,8.3324,8.4095,8.4462,8.5159,8.593,8.6261,8.6407,8.6518,8.6867,8.6978,8.6978,8.6978,8.6978,8.6978,8.6978,8.7325,8.7802,8.8556,8.9069,8.929,8.8849,8.8739,8.8629,8.8189,8.8115,8.8225,8.8666,8.8739,8.9014,8.9803,8.995,8.984,8.9473,9.0024,9.0262,8.9601,8.9767,9.0097,9.0555,8.9877,8.9546,8.9913,8.995,9.0134,9.0592,9.0592,9.0959,9.1767,9.1436,9.1436,9.1803,9.1803,9.1803,9.1803,9.1803,9.1803,9.1803,9.1803,9.1803,9.1803,9.1803,9.1803,9.1803,9.1803,9.1803,9.1803,9.1803,9.1803,9.1803,9.1803,9.1803,9.1803,9.1803,9.1803,9.1803,8.6094,8.6094,8.6094,8.6094,8.6094,8.6094,8.6094,8.5962,8.5682,8.5172,8.5148,8.4732,8.3592,8.4032,8.4041,8.3113,8.3838,8.4242,8.3968,8.3214,8.2774,8.2774,8.2774,8.3141,8.3931,8.3968,8.3968,8.3968,8.3748,8.3287,8.248,8.292,8.3308,8.3675,8.3491,8.3491,8.3638,8.281,8.248,8.2517,8.3161,8.3968,8.4866,8.4866,8.5747,8.6904,8.6297,8.6481,8.6978,8.6978,8.6978,8.6978,8.6978,8.6978,8.6978,8.6978,8.7435,8.7912,8.7912,8.839,8.8702,8.8096,8.7912,8.7766,8.7124,8.7124,8.7472,8.8059,8.8353,8.8683,8.929,8.94,8.929,8.8886,8.9326,8.9693,8.9767,8.9693,8.9913,9.0537,9.006,8.9767,8.995,8.995,9.0207,9.0849,9.0886,9.1143,9.1767,9.1803,9.1803,9.1803,9.1803,9.1803,9.1803,9.1803,9.1803,9.1803,9.1803,9.1803,9.1803,9.1803,9.1803,9.1803,9.1803,9.1803,9.1803,9.1803,9.1803,9.1803,9.1803,9.1803,9.1803,9.1803,9.1803,9.1803,8.6094,8.6094,8.6094,8.6094,8.6094,8.6094,8.6094,8.5561,8.5162,8.5121,8.5276,8.512,8.4379,8.4352,8.4709,8.5464,8.4278,8.4095,8.5527,8.4866,8.4425,8.4425,8.4425,8.4792,8.56,8.56,8.56,8.56,8.4866,8.4095,8.3308,8.2627,8.3067,8.4499,8.3711,8.3821,8.4462,8.3638,8.3308,8.3308,8.3381,8.4352,8.571,8.571,8.6261,8.6978,8.6904,8.6941,8.6978,8.6978,8.6978,8.6978,8.6978,8.6978,8.6978,8.6978,8.7014,8.7088,8.7088,8.7124,8.7161,8.7088,8.7088,8.7051,8.7014,8.7582,8.8133,8.8206,8.8776,8.9326,8.94,8.94,8.8923,8.7418,8.9033,8.973,8.7565,8.916,9.0537,9.0592,9.0555,9.0812,9.1546,9.162,9.1657,9.1693,9.1693,9.173,9.1803,9.1803,9.1803,9.1803,9.1803,9.1803,9.1803,9.1803,9.1803,9.1803,9.1803,9.1803,9.1803,9.1803,9.1803,9.1803,9.1803,9.1803,9.1803,9.1803,9.1803,9.1803,9.1803,9.1803,9.1803,9.1803,9.1803,9.1803,8.6094,8.6094,8.6094,8.6094,8.5775,8.5638,8.6164,8.5257,8.4737,8.5321,8.503,8.4721,8.4553,8.4975,8.5214,8.5083,8.5416,8.5673,8.5783,8.5967,8.5637,8.4646,8.4609,8.4976,8.58,8.58,8.58,8.58,8.549,8.4939,8.4168,8.4352,8.4756,8.5306,8.5013,8.5049,8.527,8.4499,8.4132,8.4205,8.4682,8.5233,8.5874,8.6334,8.6738,8.6978,8.6978,8.6978,8.6978,8.6978,8.6978,8.6978,8.6978,8.6978,8.6978,8.6978,8.6978,8.6978,8.6978,8.6978,8.6978,8.6978,8.7399,8.7729,8.7729,8.839,8.8923,8.8923,8.9179,8.94,8.94,8.94,8.9216,8.8592,8.9253,8.9693,8.929,9.0041,9.0812,9.1289,9.1326,9.1473,9.1767,9.1803,9.1803,9.1803,9.1803,9.1803,9.1803,9.1803,9.1803,9.1803,9.1803,9.1803,9.1803,9.1803,9.1803,9.1803,9.1803,9.1803,9.1803,9.1803,9.1803,9.1803,9.1803,9.1803,9.1803,9.1803,9.1803,9.1803,9.1803,9.1803,9.1803,9.1803,9.1803,9.1803,8.6094,8.6094,8.6043,8.582,8.5618,8.5609,8.5958,8.5221,8.488,8.5506,8.5149,8.4891,8.497,8.5453,8.5673,8.538,8.6151,8.6518,8.6187,8.6701,8.65,8.5416,8.5343,8.56,8.6151,8.6187,8.6187,8.6187,8.593,8.5527,8.4976,8.527,8.5563,8.58,8.58,8.58,8.5747,8.5196,8.4976,8.5013,8.5563,8.593,8.6224,8.6811,8.6978,8.6978,8.6978,8.6978,8.6978,8.6978,8.6978,8.6978,8.6978,8.6978,8.6978,8.6978,8.7161,8.7399,8.7399,8.7565,8.7675,8.7435,8.7802,8.828,8.8536,8.9179,8.9767,8.9767,8.9987,9.006,8.9803,8.9767,8.9693,8.9436,8.962,8.995,9.0519,9.0812,9.1179,9.173,9.1803,9.1803,9.1803,9.1803,9.1803,9.1803,9.1803,9.1803,9.1803,9.1803,9.1803,9.1803,9.1803,9.1803,9.1803,9.1803,9.1803,9.1803,9.1803,9.1803,9.1803,9.1803,9.1803,9.1803,9.1803,9.1803,9.1803,9.1803,9.1803,9.1803,9.1803,9.1803,9.1803,9.1803,9.1803,9.1803,8.6094,8.6085,8.5864,8.5212,8.5776,8.6105,8.5486,8.5493,8.5604,8.5604,8.5724,8.58,8.58,8.58,8.6114,8.6904,8.6261,8.6151,8.6941,8.6978,8.6978,8.6978,8.6978,8.6978,8.6978,8.6978,8.6978,8.6978,8.6187,8.58,8.5783,8.4976,8.5049,8.58,8.58,8.58,8.58,8.58,8.58,8.58,8.58,8.6297,8.6978,8.6978,8.6978,8.6978,8.6978,8.6978,8.6978,8.6978,8.6978,8.6978,8.6978,8.6978,8.6978,8.7014,8.7582,8.8206,8.8206,8.8776,8.9216,8.8426,8.8206,8.8426,8.9216,9.0024,9.0629,9.0629,9.1253,9.1546,9.0776,9.0629,9.0354,8.9546,9.0097,9.0629,9.0629,9.1289,9.1803,9.1803,9.1803,9.1803,9.1803,9.1803,9.1803,9.1803,9.1803,9.1803,9.1803,9.1803,9.1803,9.1803,9.1803,9.1803,9.1803,9.1803,9.1803,9.1803,9.1803,9.1803,9.1803,9.1803,9.1803,9.1803,9.1803,9.1803,9.1803,9.1803,9.1803,9.1803,9.1803,9.1803,9.1803,9.1803,9.1803,9.1803,8.6094,8.571,8.5531,8.5883,8.5381,8.5279,8.6242,8.5562,8.532,8.641,8.6136,8.6004,8.6591,8.6628,8.6738,8.6978,8.6775,8.6738,8.6978,8.6978,8.6978,8.6978,8.6978,8.6978,8.6978,8.6978,8.6978,8.6978,8.6775,8.6628,8.6628,8.6407,8.6407,8.6628,8.6628,8.6628,8.6628,8.6628,8.6628,8.6628,8.6628,8.6811,8.6978,8.6978,8.6978,8.6978,8.6978,8.6978,8.6978,8.6978,8.6978,8.6978,8.6978,8.6978,8.7088,8.7692,8.8023,8.8316,8.8886,8.9216,8.9326,8.9106,8.9491,8.9968,9.017,9.0849,9.1436,9.1436,9.162,9.173,9.1473,9.1436,9.1363,9.1106,9.1289,9.1436,9.1436,9.1657,9.1803,9.1803,9.1803,9.1803,9.1803,9.1803,9.1803,9.1803,9.1803,9.1803,9.1803,9.1803,9.1803,9.1803,9.1803,9.1803,9.1803,9.1803,9.1803,9.1803,9.1803,9.1803,9.1803,9.1803,9.1803,9.1803,9.1803,9.1803,9.1803,9.1803,9.1803,9.1803,9.1803,9.1803,9.1803,9.1803,9.1803,9.1803,8.6094,8.5551,8.5266,8.5853,8.5367,8.5217,8.6232,8.5935,8.5894,8.6867,8.6591,8.6444,8.6941,8.6978,8.6978,8.6978,8.6978,8.6978,8.6978,8.6978,8.6978,8.6978,8.6978,8.6978,8.6978,8.6978,8.6978,8.6978,8.6978,8.6978,8.6978,8.6978,8.6978,8.6978,8.6978,8.6978,8.6978,8.6978,8.6978,8.6978,8.6978,8.6978,8.6978,8.6978,8.6978,8.6978,8.6978,8.6978,8.6978,8.6978,8.6978,8.7051,8.7362,8.7472,8.7655,8.8463,8.8904,8.9271,8.973,9.0097,9.0354,9.0354,9.0464,9.0702,9.0996,9.1436,9.1803,9.1803,9.1803,9.1803,9.1803,9.1803,9.1803,9.1803,9.1803,9.1803,9.1803,9.1803,9.1803,9.1803,9.1803,9.1803,9.1803,9.1803,9.1803,9.1803,9.1803,9.1803,9.1803,9.1803,9.1803,9.1803,9.1803,9.1803,9.1803,9.1803,9.1803,9.1803,9.1803,9.1803,9.1803,9.1803,9.1803,9.1803,9.1803,9.1803,9.1803,9.1803,9.1803,9.1803,9.1803,9.1803,9.1803,9.1803,9.1803,9.1803,8.6094,8.5523,8.5132,8.5461,8.5503,8.5606,8.5882,8.6518,8.6978,8.6978,8.6978,8.6978,8.6978,8.6978,8.6978,8.6978,8.6978,8.6978,8.6978,8.6978,8.6978,8.6978,8.6978,8.6978,8.6978,8.6978,8.6978,8.6978,8.6978,8.6978,8.6978,8.6978,8.6978,8.6978,8.6978,8.6978,8.6978,8.6978,8.6978,8.6978,8.6978,8.6978,8.6978,8.6978,8.6978,8.6978,8.6978,8.6978,8.6978,8.6978,8.6978,8.7124,8.7949,8.8206,8.839,8.9253,9.0024,9.0629,9.0702,9.1253,9.1803,9.1803,9.1253,9.0922,9.162,9.1803,9.1803,9.1803,9.1803,9.1803,9.1803,9.1803,9.1803,9.1803,9.1803,9.1803,9.1803,9.1803,9.1803,9.1803,9.1803,9.1803,9.1803,9.1803,9.1803,9.1803,9.1803,9.1803,9.1803,9.1803,9.1803,9.1803,9.1803,9.1803,9.1803,9.1803,9.1803,9.1803,9.1803,9.1803,9.1803,9.1803,9.1803,9.1803,9.1803,9.1803,9.1803,9.1803,9.1803,9.1803,9.1803,9.1803,9.1803,9.1803,9.1803,9.1803,8.6094,8.519,8.479,8.6128,8.5484,8.5267,8.6535,8.6885,8.6978,8.6978,8.6978,8.6978,8.6978,8.6978,8.6978,8.6978,8.6978,8.6978,8.6978,8.6978,8.6978,8.6978,8.6978,8.6978,8.6978,8.6978,8.6978,8.6978,8.6978,8.6978,8.6978,8.6978,8.6978,8.6978,8.6978,8.6978,8.6978,8.6978,8.6978,8.6978,8.6978,8.6978,8.6978,8.6978,8.6978,8.6978,8.6978,8.6978,8.6978,8.6978,8.6978,8.7124,8.7949,8.8206,8.85,8.9931,9.0482,9.0739,9.1363,9.1657,9.1803,9.1803,9.1657,9.1583,9.1767,9.1803,9.1803,9.1803,9.1803,9.1803,9.1803,9.1803,9.1803,9.1803,9.1803,9.1803,9.1803,9.1803,9.1803,9.1803,9.1803,9.1803,9.1803,9.1803,9.1803,9.1803,9.1803,9.1803,9.1803,9.1803,9.1803,9.1803,9.1803,9.1803,9.1803,9.1803,9.1803,9.1803,9.1803,9.1803,9.1803,9.1803,9.1803,9.1803,9.1803,9.1803,9.1803,9.1803,9.1803,9.1803,9.1803,9.1803,9.1803,9.1803,9.1803,9.1803,8.6094,8.5654,8.5522,8.6455,8.6107,8.5987,8.6863,8.6978,8.6978,8.6978,8.6978,8.6978,8.6978,8.6978,8.6978,8.6978,8.6978,8.6978,8.6978,8.6978,8.6978,8.6978,8.6978,8.6978,8.6978,8.6978,8.6978,8.6978,8.6978,8.6978,8.6978,8.6978,8.6978,8.6978,8.6978,8.6978,8.6978,8.6978,8.6978,8.6978,8.6978,8.6978,8.6978,8.6978,8.6978,8.6978,8.6978,8.6978,8.7051,8.7435,8.7582,8.7802,8.8977,8.9344,8.9601,9.0812,9.1179,9.1253,9.1693,9.1803,9.1803,9.1803,9.1803,9.1803,9.1803,9.1803,9.1803,9.1803,9.1803,9.1803,9.1803,9.1803,9.1803,9.1803,9.1803,9.1803,9.1803,9.1803,9.1803,9.1803,9.1803,9.1803,9.1803,9.1803,9.1803,9.1803,9.1803,9.1803,9.1803,9.1803,9.1803,9.1803,9.1803,9.1803,9.1803,9.1803,9.1803,9.1803,9.1803,9.1803,9.1803,9.1803,9.1803,9.1803,9.1803,9.1803,9.1803,9.1803,9.1803,9.1803,9.1803,9.1803,9.1803,9.1803,9.1803,9.1803,8.6094,8.625,8.6497,8.6741,8.6831,8.6963,8.7151,8.7081,8.6978,8.6978,8.6978,8.6978,8.6978,8.6978,8.6978,8.6978,8.6978,8.6978,8.6978,8.6978,8.6978,8.6978,8.6978,8.6978,8.6978,8.6978,8.6978,8.6978,8.6978,8.6978,8.6978,8.6978,8.6978,8.6978,8.6978,8.6978,8.6978,8.6978,8.6978,8.6978,8.6978,8.6978,8.6978,8.6978,8.6978,8.6978,8.6978,8.7088,8.7325,8.8133,8.8426,8.8647,9.0152,9.0592,9.0776,9.1546,9.1803,9.1803,9.1803,9.1803,9.1803,9.1803,9.1803,9.1803,9.1803,9.1803,9.1803,9.1803,9.1803,9.1803,9.1803,9.1803,9.1803,9.1803,9.1803,9.1803,9.1803,9.1803,9.1803,9.1803,9.1803,9.1803,9.1803,9.1803,9.1803,9.1803,9.1803,9.1803,9.1803,9.1803,9.1803,9.1803,9.1803,9.1803,9.1803,9.1803,9.1803,9.1803,9.1803,9.1803,9.1803,9.1803,9.1803,9.1803,9.1803,9.1803,9.1803,9.1803,9.1803,9.1803,9.1803,9.1803,9.1803,9.1803,9.1803,9.1803,8.6094,8.625,8.6625,8.7329,8.7167,8.7123,8.7842,8.7411,8.6978,8.6978,8.6978,8.6978,8.6978,8.6978,8.6978,8.6978,8.6978,8.6978,8.6978,8.6978,8.6978,8.6978,8.6978,8.6978,8.6978,8.6978,8.6978,8.6978,8.6978,8.6978,8.6978,8.6978,8.6978,8.6978,8.6978,8.6978,8.6978,8.6978,8.6978,8.6978,8.6978,8.6978,8.6978,8.6978,8.6978,8.6978,8.6978,8.7472,8.8169,8.8959,8.9253,8.94,9.0317,9.0592,9.0776,9.1546,9.1803,9.1803,9.1803,9.1803,9.1803,9.1803,9.1803,9.1803,9.1803,9.1803,9.1803,9.1803,9.1803,9.1803,9.1803,9.1803,9.1803,9.1803,9.1803,9.1803,9.1803,9.1803,9.1803,9.1803,9.1803,9.1803,9.1803,9.1803,9.1803,9.1803,9.1803,9.1803,9.1803,9.1803,9.1803,9.1803,9.1803,9.1803,9.1803,9.1803,9.1803,9.1803,9.1803,9.1803,9.1803,9.1803,9.1803,9.1803,9.1803,9.1803,9.1803,9.1803,9.1803,9.1803,9.1803,9.1803,9.1803,9.1803,9.1803,9.1803,8.6094,8.6546,8.7074,8.7527,8.7838,8.8035,8.8093,8.782,8.7477,8.7046,8.6978,8.6978,8.6978,8.6978,8.6978,8.6978,8.6978,8.6978,8.6978,8.6978,8.6978,8.6978,8.6978,8.6978,8.6978,8.6978,8.6978,8.6978,8.6978,8.6978,8.6978,8.6978,8.6978,8.6978,8.6978,8.6978,8.6978,8.6978,8.6978,8.6978,8.6978,8.6978,8.6978,8.6978,8.6978,8.7051,8.7509,8.7912,8.839,8.9657,9.006,9.0207,9.1033,9.1253,9.1326,9.1693,9.1803,9.1803,9.1803,9.1803,9.1803,9.1803,9.1803,9.1803,9.1803,9.1803,9.1803,9.1803,9.1803,9.1803,9.1803,9.1803,9.1803,9.1803,9.1803,9.1803,9.1803,9.1803,9.1803,9.1803,9.1803,9.1803,9.1803,9.1803,9.1803,9.1803,9.1803,9.1803,9.1803,9.1803,9.1803,9.1803,9.1803,9.1803,9.1803,9.1803,9.1803,9.1803,9.1803,9.1803,9.1803,9.1803,9.1803,9.1803,9.1803,9.1803,9.1803,9.1803,9.1803,9.1803,9.1803,9.1803,9.1803,9.1803,9.1803,9.1803]}]]